[[{"header":{"parameterUnit":"m.s-1","parameterCategory":1,"la1":31.0,"la2":29.5877,"lo1":-88.7671,"lo2":-86.6584,"dy":0.0162,"dx":0.0185,"nx":115,"ny":88,"refTime":"2026-04-13T12:00:00:Z","depth":0,"parameterNumber":2,"parameterNumberName":"U-component_of_WINDS"},"data":[0.0,0.0,0.0,0.0,0.0,0.0,0.0,0.0,0.0,0.0,0.0,0.0,0.0,0.0,0.0,0.0,0.0,0.0,0.0,0.0,0.0,0.0,0.0,0.0,0.0,0.0,0.0,0.0,0.0,0.0,0.0,0.0,0.0,0.0,0.0,0.0,0.0,0.0,0.0,0.0,0.0,0.0,0.0,0.0,0.0,0.0,0.0,0.0,0.0,0.0,0.0,0.0,0.0,0.0,0.0,0.0,0.0,0.0,0.0,0.0,0.0,0.0,0.0,0.0,0.0,0.0,0.0,0.0,0.0,0.0,0.0,0.0,0.0,0.0,0.0,0.0,0.0,0.0,0.0,0.0,0.0,0.0,0.0,0.0,0.0,0.0,0.0,0.0,0.0,0.0,0.0,0.0,0.0,0.0,0.0,0.0,0.0,0.0,0.0,0.0,0.0,0.0,0.0,0.0,0.0,0.0,0.0,0.0,0.0,0.0,0.0,0.0,0.0,0.0,0.0,0.0,0.0,0.0,0.0,0.0,0.0,0.0,0.0,0.0,0.0,0.0,0.0,0.0,0.0,0.0,0.0,0.0,0.0,0.0,0.0,0.0,0.0,0.0,0.0,0.0,0.0,0.0,0.0,0.0,0.0,0.0,0.0,0.0,0.0,0.0,0.0,0.0,0.0,0.0,0.0,0.0,0.0,0.0,0.0,0.0,0.0,0.0,0.0,0.0,0.0,0.0,0.0,0.0,0.0,0.0,0.0,0.0,0.0,0.0,0.0,0.0,0.0,0.0,0.0,0.0,0.0,0.0,0.0,0.0,0.0,0.0,0.0,0.0,0.0,0.0,0.0,0.0,0.0,0.0,0.0,0.0,0.0,0.0,0.0,0.0,0.0,0.0,0.0,0.0,0.0,0.0,0.0,0.0,0.0,0.0,0.0,0.0,0.0,0.0,0.0,0.0,0.0,0.0,0.0,0.0,0.0,0.0,0.0,0.0,0.0,0.0,0.0,0.0,0.0,0.0,0.0,0.0,0.0,0.0,0.0,0.0,0.0,0.0,0.0,0.0,0.0,0.0,0.0,0.0,0.0,0.0,0.0,0.0,0.0,0.0,0.0,0.0,0.0,0.0,0.0,0.0,0.0,0.0,0.0,0.0,0.0,0.0,0.0,0.0,0.0,0.0,0.0,0.0,0.0,0.0,0.0,0.0,0.0,0.0,0.0,0.0,0.0,0.0,0.0,0.0,0.0,0.0,0.0,0.0,0.0,0.0,0.0,0.0,0.0,0.0,0.0,0.0,0.0,0.0,0.0,0.0,0.0,0.0,0.0,0.0,0.0,0.0,0.0,0.0,0.0,0.0,0.0,0.0,0.0,0.0,0.0,0.0,0.0,0.0,0.0,0.0,0.0,0.0,0.0,0.0,0.0,0.0,0.0,0.0,0.0,0.0,0.0,0.0,0.0,0.0,0.0,0.0,0.0,0.0,0.0,0.0,0.0,0.0,0.0,0.0,0.0,0.0,0.0,0.0,0.0,0.0,0.0,0.0,0.0,0.0,0.0,0.0,0.0,0.0,0.0,0.0,0.0,0.0,0.0,0.0,0.0,0.0,0.0,0.0,0.0,0.0,0.0,0.0,0.0,0.0,0.0,0.0,0.0,0.0,0.0,0.0,0.0,0.0,0.0,0.0,0.0,0.0,0.0,0.0,0.0,0.0,0.0,0.0,0.0,0.0,0.0,0.0,0.0,0.0,0.0,0.0,0.0,0.0,0.0,0.0,0.0,0.0,0.0,0.0,0.0,0.0,0.0,0.0,0.0,0.0,0.0,0.0,0.0,0.0,0.0,0.0,0.0,0.0,0.0,0.0,0.0,0.0,0.0,0.0,0.0,0.0,0.0,0.0,0.0,0.0,0.0,0.0,0.0,0.0,0.0,0.0,0.0,0.0,0.0,0.0,0.0,0.0,0.0,0.0,0.0,0.0,0.0,0.0,0.0,0.0,0.0,0.0,0.0,0.0,0.0,0.0,0.0,0.0,0.0,0.0,0.0,0.0,0.0,0.0,0.0,0.0,0.0,0.0,0.0,0.0,0.0,0.0,0.0,0.0,0.0,0.0,0.0,0.0,0.0,0.0,0.0,0.0,0.0,0.0,0.0,0.0,0.0,0.0,0.0,0.0,0.0,0.0,0.0,0.0,0.0,0.0,0.0,0.0,0.0,0.0,0.0,0.0,0.0,0.0,0.0,0.0,0.0,0.0,0.0,0.0,0.0,0.0,0.0,0.0,0.0,0.0,0.0,0.0,0.0,0.0,0.0,0.0,0.0,0.0,0.0,0.0,0.0,0.0,0.0,0.0,0.0,0.0,0.0,0.0,0.0,0.0,0.0,0.0,0.0,0.0,0.0,0.0,0.0,0.0,0.0,0.0,0.0,0.0,0.0,0.0,0.0,0.0,0.0,0.0,0.0,0.0,0.0,0.0,0.0,0.0,0.0,0.0,0.0,0.0,0.0,0.0,0.0,0.0,0.0,0.0,0.0,0.0,0.0,0.0,0.0,0.0,0.0,0.0,0.0,0.0,0.0,0.0,0.0,0.0,0.0,0.0,0.0,0.0,0.0,0.0,0.0,0.0,0.0,0.0,0.0,0.0,0.0,0.0,0.0,0.0,0.0,0.0,0.0,0.0,0.0,0.0,0.0,0.0,0.0,0.0,0.0,0.0,0.0,0.0,0.0,0.0,0.0,0.0,0.0,0.0,0.0,0.0,0.0,0.0,0.0,0.0,0.0,0.0,0.0,0.0,0.0,0.0,0.0,0.0,0.0,0.0,0.0,0.0,0.0,0.0,0.0,0.0,0.0,0.0,0.0,0.0,0.0,0.0,0.0,0.0,0.0,0.0,0.0,0.0,0.0,0.0,0.0,0.0,0.0,0.0,0.0,0.0,0.0,0.0,0.0,0.0,0.0,0.0,0.0,0.0,0.0,0.0,0.0,0.0,0.0,0.0,0.0,0.0,0.0,0.0,0.0,0.0,0.0,0.0,0.0,0.0,0.0,0.0,0.0,0.0,0.0,0.0,0.0,0.0,0.0,0.0,0.0,0.0,0.0,0.0,0.0,0.0,0.0,0.0,0.0,0.0,0.0,0.0,0.0,0.0,0.0,0.0,0.0,0.0,0.0,0.0,0.0,0.0,0.0,0.0,0.0,0.0,0.0,0.0,0.0,0.0,0.0,0.0,0.0,0.0,0.0,0.0,0.0,0.0,0.0,0.0,0.0,0.0,0.0,0.0,0.0,0.0,0.0,0.0,0.0,0.0,0.0,0.0,0.0,0.0,0.0,0.0,0.0,0.0,0.0,0.0,0.0,0.0,0.0,0.0,0.0,0.0,0.0,0.0,0.0,0.0,0.0,0.0,0.0,0.0,0.0,0.0,0.0,0.0,0.0,0.0,0.0,0.0,0.0,0.0,0.0,0.0,0.0,0.0,0.0,0.0,0.0,0.0,0.0,0.0,0.0,0.0,0.0,0.0,0.0,0.0,0.0,0.0,0.0,0.0,0.0,0.0,0.0,0.0,0.0,0.0,0.0,0.0,0.0,0.0,0.0,0.0,0.0,0.0,0.0,0.0,0.0,0.0,0.0,0.0,0.0,0.0,0.0,0.0,0.0,0.0,0.0,0.0,0.0,0.0,0.0,0.0,0.0,0.0,0.0,0.0,0.0,0.0,0.0,0.0,0.0,0.0,0.0,0.0,0.0,0.0,0.0,0.0,0.0,0.0,0.0,0.0,0.0,0.0,0.0,0.0,0.0,0.0,0.0,0.0,0.0,0.0,0.0,0.0,0.0,0.0,0.0,0.0,0.0,0.0,0.0,0.0,0.0,0.0,0.0,0.0,0.0,0.0,0.0,0.0,0.0,0.0,0.0,0.0,0.0,0.0,0.0,0.0,0.0,0.0,0.0,0.0,0.0,0.0,0.0,0.0,0.0,0.0,0.0,0.0,0.0,0.0,0.0,0.0,0.0,0.0,0.0,0.0,0.0,0.0,0.0,0.0,0.0,0.0,0.0,0.0,0.0,0.0,0.0,0.0,0.0,0.0,0.0,0.0,0.0,0.0,0.0,0.0,0.0,0.0,0.0,0.0,0.0,0.0,0.0,0.0,0.0,0.0,0.0,0.0,0.0,0.0,0.0,0.0,0.0,0.0,0.0,0.0,0.0,0.0,0.0,0.0,0.0,0.0,0.0,0.0,0.0,0.0,0.0,0.0,0.0,0.0,0.0,0.0,0.0,0.0,0.7457,0.0,0.0,0.0,0.0,0.0,0.0,0.0,0.0,0.0,0.0,0.0,0.0,0.0,0.0,0.0,0.0,0.0,0.0,0.0,0.0,0.0,0.0,0.0,0.0,0.0,0.0,0.0,0.0,0.0,0.0,0.0,0.0,0.0,0.0,0.0,0.0,0.0,0.0,0.0,0.0,0.0,0.0,0.0,0.0,0.0,0.0,0.0,0.0,0.0,0.0,0.0,0.0,0.0,0.0,0.0,0.0,0.0,0.0,0.0,0.0,0.0,0.0,0.0,0.0,0.0,0.0,0.0,0.0,0.0,0.0,0.0,0.0,0.0,0.0,0.0,0.0,0.0,0.0,0.0,0.0,0.0,0.0,0.0,0.0,0.0,0.0,0.0,0.0,0.0,0.0,0.0,0.0,0.0,0.0,0.0,0.0,0.0,0.0,0.0,0.0,0.0,0.0,0.0,0.0,0.0,0.0,0.0,0.0,0.0,0.0,1.0311,0.9729,0.9006,0.8233,0.7443,0.0,0.0,0.0,0.0,0.0,0.0,0.0,0.0,0.0,0.0,0.0,0.0,0.0,0.0,0.0,0.0,0.0,0.0,0.0,0.0,0.0,0.0,0.0,0.0,0.0,0.0,0.0,0.0,0.0,0.0,0.0,0.0,0.0,0.0,0.0,0.0,0.0,0.0,0.0,0.0,0.0,0.0,0.0,0.0,0.0,0.0,0.0,0.0,0.0,0.0,0.0,0.0,0.0,0.0,0.0,0.0,0.0,0.0,0.0,0.0,0.0,0.0,0.0,0.0,0.0,0.0,0.0,0.0,0.0,0.0,0.0,0.0,0.0,0.0,0.0,0.0,0.0,0.0,0.0,0.0,0.0,0.0,0.0,0.0,0.0,0.0,0.0,0.0,0.0,0.0,0.0,0.0,0.0,0.0,0.0,0.0,0.0,0.0,0.0,0.0,0.0,0.0,0.0,0.0,0.0,0.0,0.0,0.0,0.0,0.0,0.0,0.0,0.8897,0.8325,0.7533,0.0,0.0,0.0,0.0,0.0,0.0,0.0,0.0,0.0,0.0,0.0,0.0,0.0,0.0,0.0,0.0,0.0,0.0,0.0,0.0,0.0,0.0,0.0,0.0,0.0,0.0,0.0,0.0,0.0,0.0,0.0,0.0,0.0,0.0,0.0,0.0,0.0,0.0,0.0,0.0,0.0,0.0,0.0,0.0,0.0,0.0,0.0,0.0,0.0,0.0,0.0,0.0,0.0,0.0,0.0,0.0,0.0,0.0,0.0,0.0,0.0,0.0,0.0,0.0,0.0,0.0,0.0,0.0,0.0,0.0,0.0,0.0,0.0,0.0,0.0,0.0,0.0,0.0,0.0,0.0,0.0,0.0,0.0,0.0,0.0,0.0,0.0,0.0,0.0,0.0,0.0,0.0,0.0,0.0,0.0,0.0,0.0,0.0,0.0,0.0,0.0,0.0,0.0,0.0,0.0,0.0,0.0,0.0,0.0,0.0,0.9346,0.9025,0.9103,0.0,0.7726,0.0,0.0,0.0,0.0,0.0,0.0,0.0,0.0,0.0,0.0,0.0,0.0,0.0,0.0,0.0,0.0,0.0,0.0,0.0,0.0,0.0,0.0,0.0,0.0,0.0,0.0,0.0,0.0,0.0,0.0,0.0,0.0,0.0,0.0,0.0,0.0,0.0,0.0,0.0,0.0,0.0,0.0,0.0,0.0,0.0,0.0,0.0,0.0,0.0,0.0,0.0,0.0,0.0,0.0,0.0,0.0,0.0,0.0,0.0,0.0,0.0,0.0,0.0,0.0,0.0,0.0,0.0,0.0,0.0,0.0,0.0,0.0,0.0,0.0,0.0,0.0,0.0,0.0,0.0,0.0,0.0,0.0,0.0,0.0,0.0,0.0,0.0,0.0,0.0,0.0,0.0,0.0,0.0,0.0,0.0,0.0,0.0,0.0,0.0,0.0,0.0,0.0,0.0,0.0,0.0,0.0,0.0,0.0,0.0,0.0,0.9224,0.9331,0.9358,0.9067,0.0,0.0,0.0,0.0,0.0,0.0,0.0,0.0,0.0,0.0,0.0,0.0,0.0,0.0,0.0,0.0,0.0,0.0,0.0,0.0,0.0,0.0,0.0,0.0,0.0,0.0,0.0,0.0,0.0,0.0,0.0,0.0,0.0,0.0,0.0,0.0,0.0,0.0,0.0,0.0,0.0,0.0,0.0,0.0,0.0,0.0,0.0,0.0,0.0,0.0,0.0,0.0,0.0,0.0,0.0,0.0,0.0,0.0,0.0,0.0,0.0,0.0,0.0,0.0,0.0,0.0,0.0,0.0,0.0,0.0,0.0,0.0,0.0,0.0,0.0,0.0,0.0,0.0,0.0,0.0,0.0,0.0,0.0,0.0,0.0,0.0,0.0,0.0,0.0,0.0,0.0,0.0,0.0,0.0,0.0,0.0,0.0,0.0,0.0,0.0,0.0,0.0,0.0,0.0,0.0,0.0,0.0,0.0,0.0,0.0,0.8605,0.0,0.947,0.9259,0.8975,0.8693,0.0,0.0,0.0,0.0,0.0,0.0,0.0,0.0,0.0,0.0,0.0,0.0,0.0,0.0,0.0,0.0,0.0,0.0,0.0,0.0,0.0,0.0,0.0,0.0,0.0,0.0,0.0,0.0,0.0,0.0,0.0,0.0,0.0,0.0,0.0,0.0,0.0,0.0,0.0,0.0,0.0,0.0,0.0,0.0,0.0,0.0,0.0,0.0,0.0,0.0,0.0,0.0,0.0,0.0,0.0,0.0,0.0,0.0,0.0,0.0,0.0,0.0,0.0,0.0,0.0,0.0,0.0,0.0,0.0,0.0,0.0,0.0,0.0,0.0,0.0,0.0,0.0,0.0,0.0,0.0,0.0,0.0,0.0,0.0,0.0,0.0,0.0,0.0,0.0,0.0,0.0,0.0,0.0,0.0,0.0,0.0,0.0,0.0,0.0,0.0,0.0,0.0,0.0,0.0,0.0,0.0,0.0,0.0,0.0,0.7612,0.8027,0.9325,0.8625,0.8343,0.0,0.0,0.0,0.0,0.0,0.0,0.0,0.0,0.0,0.0,0.0,0.0,0.0,0.0,0.0,0.0,0.0,0.0,0.0,0.0,0.0,0.0,0.0,0.0,0.0,0.0,0.0,0.0,0.0,0.0,0.0,0.0,0.0,0.0,0.0,0.0,0.0,0.0,0.0,0.0,0.0,0.0,0.0,0.0,0.0,0.0,0.0,0.0,0.0,0.0,0.0,0.0,0.0,0.0,0.0,0.0,0.0,0.0,0.0,0.0,0.0,0.0,0.0,0.0,0.0,0.0,0.0,0.0,0.0,0.0,0.0,0.0,0.0,0.0,0.0,0.0,0.0,0.0,0.0,0.0,0.0,0.0,0.0,0.0,0.0,0.0,0.0,0.0,0.0,0.0,0.0,0.0,0.0,0.0,0.0,0.0,0.0,0.0,0.0,0.0,0.0,0.0,0.0,0.0,0.0,0.0,0.0,0.0,0.0,0.7552,0.81,0.8617,0.9105,0.9292,0.9195,0.0,0.0,0.0,0.0,0.0,0.0,0.0,0.0,0.0,0.0,0.0,0.0,0.0,0.0,0.0,0.0,0.0,0.0,0.0,0.0,0.0,0.0,0.0,0.0,0.0,0.0,0.0,0.0,0.0,0.0,0.0,0.0,0.0,0.0,0.0,0.0,0.0,0.0,0.0,0.0,0.0,0.0,0.0,0.0,0.0,0.0,0.0,0.0,0.0,0.0,0.0,0.0,0.0,0.0,0.0,0.0,0.0,0.0,0.0,0.0,0.0,0.0,0.0,0.0,0.0,0.0,0.0,0.0,0.0,0.0,0.0,0.0,0.0,0.0,0.0,0.0,0.0,0.0,0.0,0.0,0.0,0.0,0.0,0.0,0.0,0.0,0.0,0.0,0.0,0.0,0.0,0.0,0.0,0.0,0.0,0.0,0.0,0.0,0.0,0.0,0.0,0.0,0.0,0.0,0.0,0.0,0.0,0.0,0.0,0.7628,0.0,0.8776,0.0,0.9299,0.9259,0.0,0.0,0.0,0.0,0.0,0.0,0.0,0.0,0.0,0.0,0.0,0.0,0.0,0.0,0.0,0.0,0.0,0.0,0.0,0.0,0.0,0.0,0.0,0.0,0.0,0.0,0.0,0.0,0.0,0.0,0.0,0.0,0.0,0.0,0.0,0.0,0.0,0.0,0.0,0.0,0.0,0.0,0.0,0.0,0.0,0.0,0.0,0.0,0.0,0.0,0.0,0.0,0.0,0.0,0.0,0.0,0.0,0.0,0.0,0.0,0.0,0.0,0.0,0.0,0.0,0.0,0.0,0.0,0.0,0.0,0.0,0.0,0.0,0.0,0.0,0.0,0.0,0.0,0.0,0.0,0.0,0.0,0.0,0.0,0.0,0.0,0.0,0.0,0.0,0.0,0.0,0.0,0.0,0.0,0.0,0.0,0.0,0.0,0.0,0.0,0.0,0.0,0.0,0.0,0.0,0.0,0.0,0.0,0.7654,0.8249,0.8172,0.8316,0.8561,0.8487,0.8314,0.0,0.0,0.0,0.0,0.0,0.0,0.0,0.0,0.0,0.0,0.0,0.0,0.0,0.0,0.0,0.0,0.0,0.0,0.0,0.0,0.0,0.0,0.0,0.0,0.0,0.0,0.0,0.0,0.0,0.0,0.0,0.0,0.0,0.0,0.0,0.0,0.0,0.0,0.0,0.0,0.0,0.0,0.0,0.0,0.0,0.0,0.0,0.0,0.0,0.0,0.0,0.0,0.0,0.0,0.0,0.0,0.0,0.0,0.0,0.0,0.0,0.0,0.0,0.0,0.0,0.0,0.0,0.0,0.0,0.0,0.0,0.0,0.0,0.0,0.0,0.0,0.0,0.0,0.0,0.0,0.0,0.0,0.0,0.0,0.0,0.0,0.0,0.0,0.0,0.0,0.0,0.0,0.0,0.0,0.0,0.0,0.0,0.0,0.0,0.0,0.0,0.0,0.0,0.0,0.0,0.0,0.0,0.0,0.0,0.8125,0.8657,0.868,0.8167,0.8172,0.8059,0.0,0.0,0.0,0.0,0.0,0.0,0.0,0.0,0.0,0.0,0.0,0.0,0.0,0.0,0.0,0.0,0.0,0.0,0.0,0.0,0.0,0.0,0.0,0.0,0.0,0.0,0.0,0.0,0.0,0.0,0.0,0.0,0.0,0.0,0.0,0.0,0.0,0.0,0.0,0.0,0.0,0.0,0.0,0.0,0.0,0.0,0.0,0.0,0.0,0.0,0.0,0.0,0.0,0.0,0.0,0.0,0.0,0.0,0.0,0.0,0.0,0.0,0.0,0.0,0.0,0.0,0.0,0.0,0.0,0.0,0.0,0.0,0.0,0.0,0.0,0.0,0.0,0.0,0.0,0.0,0.0,0.0,0.0,0.0,0.0,0.0,0.0,0.0,0.0,0.0,0.0,0.0,0.0,0.0,0.0,0.0,0.0,0.0,0.0,0.0,0.0,0.0,0.0,0.0,0.0,0.0,0.0,0.0,0.0,1.0335,1.0274,0.9849,0.9056,0.8533,0.8006,0.7461,0.0,0.0,0.0,0.0,0.0,0.0,0.0,0.0,0.0,0.0,0.0,0.0,0.0,0.0,0.0,0.0,0.0,0.0,0.0,0.0,0.0,0.0,0.0,0.0,0.0,0.0,0.0,0.0,0.0,0.0,0.0,0.0,0.0,0.0,0.0,0.0,0.0,0.0,0.0,0.0,0.0,0.0,0.0,0.0,0.0,0.0,0.0,0.0,0.0,0.0,0.0,0.0,0.0,0.0,0.0,0.0,0.0,0.0,0.0,0.0,0.0,0.0,0.0,0.0,0.0,0.0,0.0,0.0,0.0,0.0,0.0,0.0,0.0,0.0,0.0,0.0,0.0,0.0,0.0,0.0,0.0,0.0,0.0,0.0,0.0,0.0,0.0,0.0,0.0,0.0,0.0,0.0,0.0,0.0,0.0,0.0,0.0,0.0,0.0,0.0,0.0,0.0,0.0,0.0,0.0,0.0,0.0,0.0,1.4297,1.2916,1.1804,1.0977,0.9429,0.8194,0.0,0.0,0.0,0.0,0.0,0.0,0.0,0.0,0.0,0.0,0.0,0.0,0.0,0.0,0.0,0.0,0.0,0.0,0.0,0.0,0.0,0.0,0.0,0.0,0.0,0.0,0.0,0.0,0.0,0.0,0.0,0.0,0.0,0.0,0.0,0.0,0.0,0.0,0.0,0.0,0.0,0.0,0.0,0.0,0.0,0.0,0.0,0.0,0.0,0.0,0.0,0.0,0.0,0.0,0.0,0.0,0.0,0.0,0.0,0.0,0.0,0.0,0.0,0.0,0.0,0.0,0.0,0.0,0.0,0.0,0.0,0.0,0.0,0.0,0.0,0.0,0.0,0.0,0.0,0.0,0.0,0.0,0.0,0.0,0.0,0.0,0.0,0.0,0.0,0.0,0.0,0.0,0.0,0.0,0.0,0.0,0.0,0.0,0.0,0.0,0.0,0.0,0.0,0.0,0.0,0.0,0.0,0.0,0.0,1.5861,1.6427,1.5374,1.2565,1.0667,0.9224,0.0,0.0,0.0,0.0,0.0,0.0,0.0,0.0,0.0,0.0,0.0,0.0,0.0,0.0,0.0,0.0,0.0,0.0,0.0,0.0,0.0,0.0,0.0,0.0,0.0,0.0,0.0,0.0,0.0,0.0,0.0,0.0,0.0,0.0,0.0,0.0,0.0,0.0,0.0,0.0,0.0,0.0,0.0,0.0,0.0,0.0,0.0,0.0,0.0,0.0,0.0,0.0,0.0,0.0,0.0,0.0,0.0,0.0,0.0,0.0,0.0,0.0,0.0,0.0,0.0,0.0,0.0,0.0,0.0,0.0,0.0,0.0,0.0,0.0,0.0,0.0,0.0,0.0,0.0,0.0,0.0,0.0,0.0,0.0,0.0,0.0,0.0,0.0,0.0,0.0,0.0,0.0,0.0,0.0,0.0,0.0,0.0,0.0,0.0,0.0,0.0,0.0,0.0,0.0,0.0,0.0,0.0,0.0,1.5032,1.698,1.8462,1.7866,1.5158,1.263,1.0533,0.0,0.0,0.0,0.0,0.0,0.0,0.0,0.0,0.0,0.0,0.0,0.0,0.0,0.0,0.0,0.0,0.0,0.0,0.0,0.0,0.0,0.0,0.0,0.0,0.0,0.0,0.0,0.0,0.0,0.0,0.0,0.0,0.0,0.0,0.0,0.0,0.0,0.0,0.0,0.0,0.0,0.0,0.0,0.0,0.0,0.0,0.0,0.0,0.0,0.0,0.0,0.0,0.0,0.0,0.0,0.0,0.0,0.0,0.0,0.0,0.0,0.0,0.0,0.0,0.0,0.0,0.0,0.0,0.0,0.0,0.0,0.0,0.0,0.0,0.0,0.0,0.0,0.0,0.0,0.0,0.0,0.0,0.0,0.0,0.0,0.0,0.0,0.0,0.0,0.0,0.0,0.0,0.0,0.0,0.0,0.0,0.0,0.0,0.0,0.0,0.0,0.0,0.0,0.0,0.0,0.0,0.0,0.0,1.5625,1.7735,1.9408,1.9447,1.7931,1.4862,1.2102,0.0,0.0,0.0,0.0,0.0,0.0,0.0,0.0,0.0,0.0,0.0,0.0,0.0,0.0,0.0,0.0,0.0,0.0,0.0,0.0,0.0,0.0,0.0,0.0,0.0,0.0,0.0,0.0,0.0,0.0,0.0,0.0,0.0,0.0,0.0,0.0,0.0,0.0,0.0,0.0,0.0,0.0,0.0,0.0,0.0,0.0,0.0,0.0,0.0,0.0,0.0,0.0,0.0,0.0,0.0,0.0,0.0,0.0,0.0,0.0,0.0,0.0,0.0,0.0,0.0,0.0,0.0,0.0,0.0,0.0,0.0,0.0,0.0,0.0,0.0,0.0,0.0,0.0,0.0,0.0,0.0,0.0,0.0,0.0,0.0,0.0,0.0,0.0,0.0,0.0,0.0,0.0,0.0,0.0,0.0,0.0,0.0,0.0,0.0,0.0,0.0,0.0,0.0,0.0,0.0,0.0,0.0,0.0,1.598,1.7669,1.9317,1.9487,1.8115,1.6339,1.4175,0.0,0.0,0.0,0.0,0.0,0.0,0.0,0.0,0.0,0.0,0.0,0.0,0.0,0.0,0.0,0.0,0.0,0.0,0.0,0.0,0.0,0.0,0.0,0.0,0.0,0.0,0.0,0.0,0.0,0.0,0.0,0.0,0.0,0.0,0.0,0.0,0.0,0.0,0.0,0.0,0.0,0.0,0.0,0.0,0.0,0.0,0.0,0.0,0.2094,0.0,0.0,0.0,0.0,0.0,0.0,0.0,0.0,0.0,0.0,0.0,0.0,0.0,0.0,0.0,0.0,0.0,0.0,0.0,0.0,0.0,0.0,0.0,0.0,0.0,0.0,0.0,0.0,0.0,0.0,0.0,0.0,0.0,0.0,0.0,0.0,0.0,0.0,0.0,0.0,0.0,0.0,0.0,0.0,0.0,0.0,0.0,0.0,0.0,0.0,0.0,0.0,0.0,0.0,0.0,0.0,0.0,0.0,0.0,1.5892,1.7158,1.8721,1.8877,1.7789,1.7004,1.5226,0.0,0.0,0.0,0.0,0.0,0.0,0.0,0.0,0.0,0.0,0.0,0.0,0.0,0.0,0.0,0.0,0.0,0.0,0.0,0.0,0.0,0.0,0.0,0.0,0.0,0.0,0.0,0.0,0.0,0.0,0.0,0.0,0.0,0.0,0.0,0.0,0.0,0.0,0.0,0.0,0.0,0.0,0.0,0.0,0.0,0.0,0.0,0.0,0.0,0.0,0.0,0.0,0.0,0.0,0.0,0.0,0.0,0.0,0.0,0.0,0.0,0.0,0.0,0.0,0.0,0.0,0.0,0.0,0.0,0.0,0.0,0.0,0.0,0.0,0.0,0.0,0.0,0.0,0.0,0.0,0.0,0.0,0.0,0.0,0.0,0.0,0.0,0.0,0.0,0.0,0.0,0.0,0.0,0.0,0.0,0.0,0.0,0.0,0.0,0.0,0.0,0.0,0.0,0.0,0.0,0.0,0.0,1.451,1.5697,1.6652,1.8,1.8214,1.7264,1.6952,1.5353,1.2328,0.0,0.0,0.0,0.0,0.0,0.0,0.0,0.0,0.0,0.0,0.0,0.0,0.0,0.0,0.0,0.0,0.0,0.0,0.0,0.0,0.0,0.0,0.0,0.0,0.0,0.0,0.0,0.0,0.0,0.0,0.0,0.0,0.0,0.0,0.0,0.0,0.0,0.0,0.2321,0.2281,0.0,0.0,0.0,0.0,0.0,0.0,0.0,0.0,0.2857,0.0,0.0,0.0,0.0,0.0,0.0,0.0,0.0,0.0,0.0,0.0,0.0,0.0,0.0,0.0,0.0,0.0,0.0,0.0,0.0,0.0,0.0,0.0,0.0,0.0,0.0,0.0,0.0,0.0,0.0,0.0,0.0,0.0,0.0,0.0,0.0,0.0,0.0,0.0,0.0,0.0,0.0,0.0,0.0,0.0,0.0,0.0,0.0,0.0,0.0,0.0,0.0,0.0,0.0,0.0,0.0,1.354,1.4926,1.608,1.7016,1.7658,1.7682,1.6762,1.5812,1.428,1.2382,0.0,0.0,0.0,0.0,0.0,0.0,0.0,0.0,0.0,0.0,0.0,0.0,0.0,0.0,0.0,0.0,0.0,0.0,0.0,0.0,0.0,0.0,0.0,0.0,0.0,0.0,0.0,0.0,0.0,0.0,0.0,0.0,0.0,0.0,0.0,0.0,0.0,0.0,0.0,0.3066,0.3379,0.0,0.0,0.0,0.0,0.0,0.0,0.0,0.0,0.2685,0.0,0.0,0.0,0.0,0.0,0.0,0.0,0.0,0.0,0.0,0.0,0.0,0.0,0.0,0.0,0.0,0.0,0.0,0.0,0.0,0.0,0.0,0.0,0.0,0.0,0.0,0.0,0.0,0.0,0.0,0.0,0.0,0.0,0.0,0.0,0.0,0.0,0.0,0.0,0.0,0.0,0.0,0.0,0.0,0.0,0.0,0.0,0.0,0.0,0.0,0.0,0.0,0.0,0.0,0.0,1.3919,1.5218,1.6223,1.7024,1.7672,1.7535,1.6655,1.5454,1.3953,0.0,0.0,0.0,0.0,0.0,0.0,0.0,0.0,0.0,0.0,0.0,0.0,0.0,0.0,0.0,0.0,0.0,0.0,0.0,0.0,0.0,0.0,0.0,0.0,0.0,0.0,0.0,0.0,0.0,0.0,0.0,0.0,0.0,0.0,0.0,0.0,0.0,0.0,0.0,0.0,0.3627,0.3862,0.4095,0.0,0.0,0.0,0.0,0.0,0.0,0.2796,0.2609,0.0,0.0,0.0,0.0,0.0,0.0,0.0,0.0,0.0,0.0,0.0,0.0,0.0,0.0,0.0,0.0,0.0,0.0,0.0,0.0,0.0,0.0,0.0,0.0,0.0,0.0,0.0,0.0,0.0,0.0,0.0,0.0,0.0,0.0,0.0,0.0,0.0,0.0,0.0,0.0,0.0,0.0,0.0,0.0,0.0,0.0,0.0,0.0,0.0,0.0,0.0,0.0,0.0,0.0,0.0,1.418,1.5435,1.6332,1.7062,1.7713,1.7545,1.6531,1.525,1.3732,0.0,0.0,0.0,0.0,0.0,0.0,0.0,0.0,0.0,0.0,0.0,0.0,0.0,0.0,0.0,0.0,0.0,0.0,0.0,0.0,0.0,0.0,0.0,0.0,0.0,0.0,0.0,0.0,0.0,0.0,0.0,0.0,0.0,0.0,0.0,0.0,0.0,0.0,0.0,0.0,0.0,0.4194,0.4673,0.4412,0.0,0.0,0.0,0.0,0.3372,0.2991,0.0,0.0,0.0,0.0,0.0,0.0,0.0,0.0,0.0,0.0,0.0,0.0,0.0,0.0,0.0,0.0,0.0,0.0,0.0,0.0,0.0,0.0,0.0,0.0,0.0,0.0,0.0,0.0,0.0,0.0,0.0,0.0,0.0,0.0,0.0,0.0,0.0,0.0,0.0,0.0,0.0,0.0,0.0,0.0,0.0,0.0,0.0,0.0,0.0,0.0,0.0,0.0,0.0,0.0,0.0,0.0,1.3857,1.5427,1.6537,1.7068,1.7707,1.7458,1.6386,1.4961,1.3438,0.0,0.0,0.0,0.0,0.0,0.0,0.0,0.0,0.0,0.0,0.0,0.0,0.0,0.0,0.0,0.0,0.0,0.0,0.0,0.0,0.0,0.0,0.0,0.0,0.0,0.0,0.0,0.0,0.0,0.0,0.0,0.0,0.0,0.0,0.0,0.0,0.0,0.0,0.0,0.0,0.0,0.4209,0.477,0.4829,0.4715,0.0,0.0,0.4127,0.3497,0.3467,0.0,0.0,0.0,0.0,0.0,0.0,0.0,0.0,0.0,0.0,0.0,0.0,0.0,0.0,0.0,0.0,0.0,0.0,0.0,0.0,0.0,0.0,0.0,0.0,0.0,0.0,0.0,0.0,0.0,0.0,0.0,0.0,0.0,0.0,0.0,0.0,0.0,0.0,0.0,0.0,0.0,0.0,0.0,0.0,0.0,0.0,0.0,0.0,0.0,0.0,0.0,0.0,0.0,0.0,0.0,1.1872,1.3805,1.5584,1.6785,1.7292,1.7787,1.7514,1.6464,1.5404,1.3889,0.0,0.0,0.0,0.0,0.0,0.0,0.0,0.0,0.0,0.0,0.0,0.0,0.0,0.0,0.0,0.0,0.0,0.0,0.0,0.0,0.0,0.0,0.0,0.0,0.0,0.0,0.0,0.0,0.0,0.0,0.0,0.0,0.0,0.0,0.0,0.0,0.0,0.0,0.0,0.0,0.0,0.0,0.5232,0.5061,0.0,0.0,0.0,0.4626,0.4352,0.0,0.0,0.0,0.0,0.0,0.0,0.0,0.0,0.0,0.0,0.0,0.0,0.0,0.0,0.0,0.0,0.0,0.0,0.0,0.0,0.0,0.0,0.0,0.0,0.0,0.0,0.0,0.0,0.0,0.0,0.0,0.0,0.0,0.0,0.0,0.0,0.0,0.0,0.0,0.0,0.0,0.0,0.0,0.0,0.0,0.0,0.0,0.0,0.0,0.0,0.0,0.0,0.0,0.0,0.0,0.0,0.0,1.3888,1.5813,1.7014,1.7461,1.7849,1.7569,1.6624,1.5808,0.0,0.0,0.0,0.0,0.0,0.0,0.0,0.0,0.0,0.0,0.0,0.0,0.0,0.0,0.0,0.0,0.0,0.0,0.0,0.0,0.0,0.0,0.0,0.0,0.0,0.0,0.0,0.2283,0.0,0.0,0.0,0.0,0.0,0.0,0.0,0.0,0.0,0.0,0.0,0.0,0.0,0.0,0.4728,0.5409,0.5292,0.5173,0.0,0.0,0.5071,0.5038,0.4841,0.4486,0.0,0.0,0.0,0.0,0.0,0.0,0.0,0.0,0.0,0.0,0.0,0.0,0.0,0.0,0.0,0.0,0.0,0.0,0.0,0.0,0.0,0.0,0.0,0.0,0.0,0.0,0.0,0.0,0.0,0.0,0.0,0.0,0.0,0.0,0.0,0.0,0.0,0.0,0.0,0.0,0.0,0.0,0.0,0.0,0.0,0.0,0.0,0.0,0.0,0.0,0.0,0.0,0.0,0.0,0.0,1.39,1.5988,1.7195,1.7473,1.7849,1.7576,1.6733,1.5814,1.434,0.0,0.0,0.0,0.0,0.0,0.0,0.0,0.0,0.0,0.0,0.0,0.0,0.0,0.0,0.0,0.0,0.0,0.0,0.0,0.0,0.0,0.0,0.0,0.0,0.0,0.0,0.0,0.0,0.0,0.0,0.0,0.0,0.0,0.0,0.0,0.0,0.0,0.0,0.0,0.0,0.0,0.474,0.5312,0.5492,0.5552,0.0,0.0,0.5397,0.5225,0.5188,0.5033,0.4552,0.0,0.0,0.0,0.0,0.0,0.0,0.0,0.0,0.0,0.0,0.0,0.0,0.0,0.0,0.0,0.0,0.0,0.0,0.0,0.0,0.0,0.0,0.0,0.0,0.0,0.0,0.0,0.0,0.0,0.0,0.0,0.0,0.0,0.0,0.0,0.0,0.0,0.0,0.0,0.0,0.0,0.0,0.0,0.0,0.0,0.0,0.0,0.0,0.0,0.0,0.0,0.0,0.0,1.2049,1.4123,1.63,1.7479,1.7456,1.7706,1.7315,1.6497,1.5846,1.4402,0.0,0.0,0.0,0.0,0.0,0.0,0.0,0.0,0.0,0.0,0.0,0.0,0.0,0.0,0.0,0.0,0.0,0.0,0.0,0.0,0.0,0.0,0.0,0.0,0.0,0.0,0.0,0.0,0.1983,0.1827,0.1391,0.0,0.0,0.0,0.0,0.0,0.0,0.0,0.0,0.0,0.0,0.392,0.4235,0.4014,0.0,0.0,0.4513,0.4636,0.4897,0.5075,0.5075,0.4702,0.4191,0.0,0.0,0.0,0.0,0.0,0.0,0.0,0.0,0.0,0.0,0.0,0.0,0.0,0.0,0.0,0.0,0.0,0.0,0.0,0.0,0.0,0.0,0.0,0.0,0.0,0.0,0.0,0.0,0.0,0.0,0.0,0.0,0.0,0.0,0.0,0.0,0.0,0.0,0.0,0.0,0.0,0.0,0.0,0.0,0.0,0.0,0.0,0.0,0.0,0.0,0.0,0.0,1.2073,1.428,1.6457,1.7538,1.7418,1.7538,1.7111,1.6013,1.5456,1.4102,0.0,0.0,0.0,0.0,0.0,0.0,0.0,0.0,0.0,0.0,0.0,0.0,0.0,0.0,0.0,0.0,0.0,0.0,0.0,0.0,0.0,0.0,0.0,0.0,0.0,0.0,0.0,0.0,0.1725,0.1427,0.12,0.0,0.0,0.0,0.0,0.0,0.0,0.0,0.0,0.0,0.0,0.3099,0.3456,0.3002,0.286,0.3667,0.3778,0.4018,0.4484,0.4819,0.4902,0.4594,0.0,0.0,0.0,0.0,0.0,0.0,0.0,0.0,0.0,0.0,0.0,0.0,0.0,0.0,0.0,0.0,0.0,0.0,0.0,0.0,0.0,0.0,0.0,0.0,0.0,0.0,0.0,0.9655,0.0,0.0,0.8992,0.0,0.0,0.0,0.0,0.0,0.0,0.0,0.0,0.0,0.0,0.0,0.0,0.0,0.0,0.0,0.0,0.0,0.0,0.0,0.0,0.0,0.0,1.2243,1.4274,1.6445,1.7418,1.708,1.743,1.6802,1.5234,1.4678,1.3362,1.1064,0.0,0.0,0.0,0.0,0.0,0.0,0.0,0.0,0.0,0.0,0.0,0.0,0.0,0.0,0.0,0.0,0.0,0.0,0.0,0.0,0.0,0.0,0.0,0.0,0.0,0.0,0.2047,0.137,0.0949,0.0,0.0,0.0,0.0,0.0,0.0,0.0,0.0,0.0,0.0,0.1988,0.2182,0.3125,0.2919,0.2773,0.3491,0.355,0.3704,0.416,0.4608,0.475,0.0,0.0,0.0,0.0,0.0,0.0,0.0,0.0,0.0,0.0,0.0,0.0,0.0,0.0,0.0,0.0,0.0,0.0,0.0,0.0,0.0,0.0,0.0,0.0,0.0,0.0,0.0,1.2094,1.1994,0.0,0.0,0.0,0.0,0.0,0.0,0.0,0.0,0.0,0.0,0.0,1.383,1.4072,0.0,0.0,0.0,0.0,0.0,0.0,0.0,0.0,0.0,0.0,0.0,0.0,1.1994,1.4008,1.6193,1.7272,1.7159,1.7446,1.6881,1.5453,1.4247,1.2199,0.9075,0.0,0.0,0.0,0.0,0.0,0.0,0.0,0.0,0.0,0.0,0.0,0.0,0.0,0.0,0.0,0.0,0.0,0.0,0.0,0.0,0.0,0.0,0.0,0.0,0.0,0.217,0.0,0.0,0.0,0.0,0.0,0.0,0.0,0.0,0.0,0.0,0.0,0.1118,0.1404,0.1403,0.1557,0.1931,0.1916,0.1921,0.0,0.0,0.0,0.0,0.0,0.0,0.0,0.0,0.0,0.0,0.0,0.0,0.0,0.0,0.2774,0.2528,0.2469,0.2413,0.2228,0.0,0.0,0.0,0.0,0.0,0.0,0.0,0.0,0.0,0.0,0.0,0.0,0.0,0.0,1.4753,0.0,1.2696,0.0,0.0,0.0,0.0,0.0,0.0,0.0,0.0,1.4603,1.5443,1.5961,1.6346,1.6627,0.0,1.6227,1.481,0.0,0.0,0.0,0.0,0.0,0.0,0.0,0.0,1.1727,1.3508,1.5517,1.6452,1.6352,1.6714,1.6251,1.4719,1.2946,1.0667,0.786,0.7021,0.6469,0.0,0.0,0.0,0.0,0.0,0.0,0.0,0.0,0.0,0.0,0.0,0.0,0.0,0.0,0.0,0.0,0.0,0.0,0.0,0.0,0.0,0.0,0.0,0.1922,0.0,0.0,0.0,0.0,0.0,0.0,0.0,0.0,0.0,0.0679,0.0755,0.0859,0.0987,0.1097,0.12,0.129,0.0,0.0,0.0,0.0,0.0,0.0,0.0,0.3224,0.3308,0.3553,0.354,0.328,0.3099,0.3119,0.3355,0.0,0.0,0.2807,0.2797,0.2742,0.2505,0.2495,0.2478,0.2413,0.244,0.2492,0.0,0.0,0.0,0.0,0.0,0.0,0.0,0.0,1.8366,1.766,0.0,1.4901,0.0,0.0,0.0,0.0,0.0,1.145,0.0,0.0,1.6253,1.7515,1.8096,1.8657,1.8945,1.8844,1.8223,1.7277,1.5859,1.3224,0.0,0.0,0.0,0.0,0.0,0.0,1.14,1.2664,1.4338,1.5095,1.4902,1.5358,1.4907,1.3202,1.0775,0.8969,0.7637,0.7146,0.6677,0.6036,0.5924,0.0,0.0,0.0,0.0,0.0,0.0,0.0,0.0,0.0,0.0,0.0,0.0,0.0,0.0,0.0,0.0,0.0,0.0,0.0,0.0,0.1813,0.0,0.0,0.0,0.0,0.0,0.0,0.0,0.0,0.0,0.0,0.0831,0.0852,0.0938,0.0964,0.0,0.0,0.0,0.0,0.1451,0.148,0.1508,0.1695,0.2266,0.2917,0.3286,0.3306,0.0,0.0,0.3488,0.3285,0.3379,0.3749,0.3576,0.3322,0.313,0.3083,0.3026,0.2864,0.2887,0.2957,0.2762,0.2876,0.2903,2.6661,0.0,0.0,0.0,0.0,2.1044,2.2098,2.2878,2.1563,2.062,1.9822,1.738,0.0,0.0,0.0,0.0,0.0,0.0,1.487,1.6326,1.7749,1.8731,1.9305,1.9686,1.9734,1.9496,1.8938,1.8077,1.7145,1.5559,1.3393,1.0899,0.0,0.0,0.0,0.0,1.0879,1.1747,1.3051,1.3685,1.3742,1.406,1.3442,1.1573,0.9965,0.8619,0.7318,0.6817,0.6422,0.6061,0.5497,0.0,0.0,0.0,0.0,0.0,0.0,0.0,0.0,0.0,0.0,0.0,0.0,0.0,0.0,0.0,0.0,0.0,0.0,0.0,0.209,0.1888,0.1782,0.0,0.0,0.0,0.0,0.0,0.0,0.0,0.0,0.0,0.1014,0.104,0.1082,0.0,0.0,0.1343,0.1391,0.1474,0.1536,0.1545,0.1553,0.0,0.2205,0.2823,0.326,0.3477,0.3823,0.3967,0.3483,0.3653,0.3924,0.3977,0.3903,0.365,0.3352,0.323,0.315,0.305,0.3087,0.3134,0.3089,0.3068,0.3064,3.0287,2.5849,2.4871,2.3974,2.3153,2.4345,2.5408,2.6233,2.4846,2.3653,2.2598,2.0017,1.7943,1.6078,1.4667,0.0,0.0,0.0,1.6854,1.807,1.9017,1.9569,1.9912,2.008,2.0035,1.9672,1.9254,1.864,1.7867,1.7138,1.5473,1.305,0.0,0.0,1.0008,1.0095,1.0418,1.1044,1.1846,1.2338,1.2538,1.2578,1.1838,1.0476,0.9376,0.8362,0.7251,0.6732,0.6338,0.6004,0.5441,0.4804,0.0,0.0,0.0,0.0,0.0,0.0,0.0,0.0,0.0,0.0,0.0,0.2499,0.0,0.0,0.0,0.0,0.2192,0.2076,0.2047,0.1719,0.0,0.0,0.0,0.0,0.0,0.0,0.0,0.1033,0.1063,0.1144,0.1204,0.1252,0.1281,0.1283,0.1376,0.1455,0.1485,0.0,0.1594,0.1606,0.1608,0.1807,0.2307,0.2782,0.3177,0.3641,0.3762,0.3773,0.3767,0.3931,0.4115,0.4158,0.4034,0.383,0.3616,0.3475,0.333,0.3183,0.3246,0.333,0.3334,0.3291,0.3271,3.2368,2.9974,2.8352,2.7166,2.6316,2.7435,2.8544,2.9386,2.7543,2.6244,2.5368,2.2541,2.0066,1.7974,1.6375,0.0,1.7315,1.7889,1.8604,1.9459,1.9929,2.0198,2.023,2.0112,1.996,1.9568,1.9243,1.8821,1.8218,1.7811,1.6821,1.5147,1.3087,1.1483,1.0595,1.0185,1.0197,1.0463,1.0806,1.1101,1.1276,1.0876,1.0391,0.9827,0.8995,0.8146,0.7383,0.6986,0.6468,0.5926,0.5577,0.5081,0.444,0.0,0.0,0.0,0.0,0.0,0.0,0.0,0.0,0.0,0.0,0.0,0.0,0.0,0.0,0.0,0.2183,0.0,0.1887,0.1422,0.0,0.0,0.0,0.1227,0.1455,0.1186,0.1072,0.1159,0.0,0.0,0.135,0.146,0.1504,0.1425,0.1489,0.1554,0.1582,0.1613,0.1641,0.1671,0.1674,0.1882,0.2406,0.2716,0.3148,0.3619,0.3585,0.3548,0.395,0.3997,0.4019,0.4362,0.4169,0.3926,0.3906,0.3742,0.3573,0.334,0.3413,0.352,0.352,0.3505,0.3493,3.3844,3.1967,3.1451,3.0171,2.8324,2.8664,2.9004,2.9101,2.7564,2.6302,2.4996,2.2867,2.0676,1.8683,1.8049,1.8029,1.8517,1.8891,1.9289,1.9679,1.9989,2.0177,2.0138,2.0075,1.9707,1.8906,1.8058,1.7345,1.6741,1.6194,1.5216,1.3987,1.3382,1.237,1.1007,1.0062,0.9676,0.9734,0.9856,1.0098,1.0119,0.9986,0.9704,0.9168,0.868,0.8161,0.7397,0.7021,0.6546,0.6022,0.5634,0.5109,0.4494,0.4127,0.0,0.0,0.0,0.0,0.0,0.0,0.0,0.0,0.0,0.2692,0.2625,0.0,0.2722,0.0,0.1997,0.1652,0.1758,0.1428,0.0,0.0,0.1352,0.1286,0.1272,0.1222,0.117,0.119,0.1254,0.1332,0.1436,0.1534,0.1604,0.1626,0.1667,0.1699,0.1707,0.1733,0.1755,0.176,0.1759,0.1874,0.22,0.2753,0.3192,0.3541,0.3711,0.3886,0.4204,0.4389,0.441,0.4494,0.442,0.4214,0.3961,0.3861,0.3822,0.375,0.3722,0.3701,0.3701,0.3646,0.3597,3.4156,3.2606,3.2597,3.1808,3.0607,3.032,3.0015,2.9501,2.7985,2.6551,2.5009,2.3032,2.1282,2.0091,1.9595,1.9509,1.9668,1.9712,1.9717,1.9891,1.992,1.9947,1.9839,1.9724,1.9132,1.8108,1.72,1.6295,1.5575,1.4975,1.4249,1.3422,1.3102,1.2456,1.1201,1.0225,0.9662,0.9574,0.9624,0.9741,0.9812,0.9615,0.9293,0.8849,0.8411,0.7865,0.72,0.6885,0.6508,0.6047,0.5667,0.522,0.4694,0.4321,0.3832,0.0,0.0,0.0,0.0,0.0,0.0,0.0,0.0,0.0,0.0,0.0,0.2687,0.2324,0.1902,0.1672,0.162,0.1357,0.1199,0.1219,0.1236,0.1269,0.1195,0.1191,0.1266,0.128,0.1356,0.1438,0.153,0.162,0.1687,0.172,0.175,0.177,0.1771,0.1785,0.1795,0.1795,0.1795,0.1907,0.2356,0.2915,0.3362,0.358,0.3625,0.3783,0.4206,0.4271,0.4305,0.4562,0.4524,0.4393,0.4228,0.4128,0.4089,0.4118,0.4065,0.3981,0.3899,0.3814,0.3748,3.4001,3.2753,3.2753,3.2744,3.2753,3.1817,3.1051,3.0072,2.8372,2.6686,2.5034,2.29,2.1844,2.1483,2.0854,2.0543,2.032,2.0074,1.9947,1.9821,1.9593,1.9491,1.9394,1.9054,1.8283,1.7151,1.6253,1.5419,1.4574,1.398,1.337,1.2856,1.261,1.2078,1.1139,1.0343,0.9932,0.9817,0.982,0.9819,0.9815,0.953,0.9167,0.8713,0.8126,0.7512,0.6895,0.6597,0.6298,0.5986,0.5728,0.5396,0.4965,0.4498,0.4137,0.0,0.3904,0.0,0.0,0.0,0.0,0.0,0.0,0.0,0.0,0.2849,0.2609,0.2112,0.188,0.1652,0.1575,0.1284,0.1099,0.1099,0.1126,0.1155,0.1256,0.1234,0.1301,0.1386,0.1472,0.1549,0.1613,0.1697,0.175,0.1756,0.1776,0.1791,0.1794,0.1794,0.1795,0.1795,0.1795,0.2019,0.2581,0.3141,0.3475,0.3576,0.3601,0.3627,0.4158,0.4087,0.4135,0.4612,0.4604,0.4522,0.4594,0.4469,0.4406,0.4483,0.443,0.4306,0.4118,0.3997,0.3938,3.4331,3.3587,3.3587,3.3587,3.3449,3.2184,3.0855,2.9431,2.7571,2.5485,2.3389,2.268,2.1786,2.0834,2.0635,2.0106,1.9203,1.9203,1.8962,1.8732,1.8828,1.879,1.8494,1.832,1.7517,1.6156,1.4655,1.3644,1.2827,1.2246,1.1745,1.157,1.1676,1.1449,1.0915,0.0,0.0,0.0,0.9856,0.9819,0.9808,0.9534,0.9167,0.8716,0.8126,0.0,0.6607,0.6469,0.6105,0.5701,0.562,0.0,0.0,0.0,0.0,0.0,0.0,0.0,0.0,0.0,0.0,0.0,0.4172,0.3737,0.3336,0.2645,0.2137,0.1944,0.1814,0.1677,0.1539,0.1356,0.1223,0.1224,0.1249,0.1271,0.1277,0.1309,0.1356,0.1419,0.1485,0.1559,0.1643,0.171,0.1759,0.1781,0.1791,0.1795,0.1795,0.1795,0.1795,0.1795,0.2019,0.2244,0.2581,0.3027,0.3362,0.3461,0.3704,0.3843,0.4143,0.4233,0.4416,0.4712,0.4781,0.4759,0.4781,0.4755,0.4749,0.4851,0.4794,0.4634,0.432,0.4181,0.412,3.437,0.0,3.3678,3.34,0.0,3.1392,2.9946,2.8448,2.7,2.4977,2.2632,2.208,2.1356,2.0541,1.9997,1.9299,1.8376,1.8002,1.7836,1.775,1.8141,1.8099,1.774,1.7596,1.6615,1.5037,1.3514,1.2319,1.161,1.0901,1.0671,1.0791,1.0987,1.1012,1.0753,1.0551,1.0273,1.0053,0.9971,0.9897,0.9815,0.9608,0.9279,0.8828,0.8313,0.0,0.0,0.0,0.0,0.0,0.0,0.0,0.0,0.0,0.0,0.4928,0.5189,0.545,0.5684,0.5797,0.5615,0.5082,0.4019,0.3079,0.2666,0.2042,0.1646,0.1581,0.1531,0.1493,0.148,0.1419,0.1346,0.1346,0.1359,0.1363,0.1352,0.1373,0.1408,0.1455,0.1525,0.16,0.1674,0.1735,0.1775,0.1792,0.1795,0.1795,0.1795,0.1795,0.1795,0.1795,0.2244,0.2468,0.2693,0.3141,0.3475,0.3688,0.3841,0.3984,0.4369,0.4479,0.46,0.4802,0.4902,0.4914,0.4961,0.4969,0.4986,0.5024,0.5002,0.4906,0.4671,0.453,0.4408,3.4094,3.3817,3.34,3.2824,3.2228,3.031,2.8483,2.6848,0.0,0.0,0.0,2.1654,2.1086,2.0339,1.9312,1.8493,1.7848,1.6976,1.6767,1.693,1.7445,1.7369,1.6937,1.6764,1.5736,1.4085,1.2483,1.1472,1.0753,1.0145,1.0042,1.0307,1.0432,1.0558,1.0663,1.0555,1.0358,1.0103,1.0063,0.9988,0.9863,0.97,0.9418,0.9025,0.8557,0.7913,0.7082,0.6875,0.663,0.6393,0.6176,0.6095,0.6061,0.5745,0.5682,0.5742,0.5956,0.6264,0.6685,0.6669,0.6166,0.5321,0.3548,0.2262,0.1882,0.1539,0.1315,0.1275,0.1368,0.1391,0.1439,0.1448,0.1451,0.1451,0.1446,0.1434,0.1418,0.1429,0.1456,0.1497,0.1566,0.1637,0.1688,0.1747,0.1787,0.1787,0.1791,0.1795,0.1795,0.1795,0.1795,0.1795,0.2244,0.2581,0.2806,0.3253,0.3699,0.4033,0.4088,0.4241,0.4607,0.4742,0.4804,0.5028,0.502,0.5059,0.5135,0.5155,0.5157,0.5157,0.5143,0.511,0.5028,0.4877,0.4696,3.3817,3.3817,3.3094,3.2228,3.1034,2.9191,2.675,2.3988,2.352,2.2756,2.1897,2.1728,2.1123,2.0086,1.9373,1.844,1.7244,1.6585,1.6372,1.631,1.6594,1.6473,1.5939,1.5362,1.453,1.3289,1.1929,1.121,1.0721,1.0468,1.03,1.0446,1.0483,1.05,1.0521,1.0504,1.0412,1.0249,1.0117,1.0039,1.0012,0.9751,0.952,0.931,0.876,0.816,0.7533,0.7234,0.6881,0.6468,0.6337,0.6274,0.6237,0.6362,0.6407,0.6376,0.6854,0.7292,0.76,0.7435,0.6449,0.4594,0.2837,0.182,0.1833,0.163,0.1442,0.1428,0.145,0.1465,0.1475,0.15,0.1515,0.1511,0.1491,0.1482,0.15,0.1487,0.1495,0.1546,0.1591,0.1627,0.1662,0.1717,0.1753,0.1759,0.1774,0.1793,0.1795,0.1795,0.1795,0.1795,0.2019,0.2356,0.2688,0.3141,0.3696,0.4369,0.4529,0.47,0.5002,0.5038,0.5008,0.5186,0.5186,0.5226,0.531,0.5343,0.5328,0.5318,0.5271,0.5218,0.5186,0.5043,0.4869,3.3817,3.3669,3.2815,3.1528,2.9872,2.6972,2.4519,2.2454,2.202,2.1748,2.1496,2.1352,2.0712,1.9927,1.9383,1.8599,1.7714,1.7032,1.6631,1.6322,1.6211,1.5714,1.4817,1.4074,1.3303,1.2315,1.1456,1.09,1.0777,1.0651,1.0551,1.0609,1.0534,1.0412,1.0266,1.0337,1.0344,1.028,1.0212,1.0093,0.9927,0.9791,0.9652,0.9507,0.9034,0.8474,0.7802,0.7401,0.6996,0.6656,0.6411,0.6304,0.6334,0.6557,0.6623,0.6618,0.6913,0.7298,0.7652,0.6663,0.5418,0.4046,0.2628,0.1719,0.1839,0.1698,0.1579,0.1581,0.1581,0.1579,0.1579,0.1592,0.1593,0.1577,0.1562,0.1553,0.1549,0.154,0.1534,0.1548,0.1573,0.1598,0.1611,0.1665,0.1701,0.1705,0.174,0.1775,0.1793,0.1795,0.1795,0.1795,0.2019,0.2235,0.2442,0.29,0.357,0.4098,0.4426,0.474,0.515,0.5094,0.5204,0.5233,0.5136,0.5282,0.5365,0.5382,0.5382,0.5377,0.5355,0.5308,0.5245,0.51,0.4904,3.3817,3.3678,3.2535,3.055,2.8091,2.4477,2.2288,2.1511,2.1167,2.1075,2.1075,2.081,2.0412,1.9947,1.9404,1.8909,1.8291,1.7464,1.679,1.6314,1.5767,1.4978,1.3943,1.2954,1.2301,1.1648,1.0982,1.0721,1.0721,1.0721,1.07,1.0656,1.0521,1.0314,1.0056,1.0168,1.0212,1.0185,1.0212,1.0127,0.9934,0.9893,0.9836,0.9758,0.9222,0.8673,0.7886,0.7365,0.6888,0.6349,0.6397,0.633,0.5995,0.5924,0.599,0.6211,0.6443,0.6729,0.685,0.5505,0.4252,0.3586,0.2467,0.1785,0.176,0.1719,0.1695,0.1701,0.1679,0.1667,0.1658,0.1659,0.165,0.1621,0.161,0.1592,0.1575,0.1566,0.1553,0.1533,0.1547,0.1562,0.157,0.1608,0.165,0.1677,0.1717,0.1759,0.1787,0.1795,0.1795,0.1793,0.2014,0.211,0.2193,0.2639,0.3196,0.3825,0.4194,0.4647,0.5062,0.5277,0.5275,0.5282,0.5279,0.5308,0.5367,0.5382,0.5382,0.5382,0.5375,0.5347,0.5257,0.5149,0.4943,3.3817,3.353,3.2263,2.9284,2.5314,2.2589,2.1212,2.0871,2.0816,2.081,2.081,2.0671,2.0515,2.0189,1.9682,1.9172,1.8489,1.7558,1.6847,1.605,1.5047,1.4139,1.327,1.2285,1.1648,1.1251,1.085,1.0721,1.0721,1.0721,1.0649,1.051,1.0371,1.0219,1.0066,1.0059,1.0002,0.9869,0.9754,0.988,1.0222,1.0103,1.009,1.0215,0.9562,0.8735,0.7693,0.7043,0.6207,0.516,0.6311,0.6293,0.4853,0.4225,0.4302,0.4982,0.5165,0.5252,0.5095,0.4241,0.3582,0.3137,0.2354,0.1793,0.1789,0.1785,0.1758,0.1721,0.1703,0.1692,0.1667,0.1664,0.1652,0.162,0.1596,0.1574,0.157,0.1547,0.1528,0.1527,0.1524,0.153,0.1525,0.1555,0.161,0.1678,0.1719,0.1757,0.1789,0.1795,0.1795,0.179,0.1884,0.1866,0.1965,0.2267,0.2925,0.3491,0.4052,0.4632,0.5111,0.5357,0.5367,0.5343,0.5357,0.5365,0.5371,0.5382,0.5382,0.5382,0.5377,0.5355,0.5273,0.5218,0.5071,3.3391,3.2963,3.126,2.8253,2.4521,2.2086,2.1003,2.0895,2.0732,2.0665,2.0665,2.0665,2.0605,2.0496,2.0267,1.984,1.9036,1.8144,1.6986,1.5854,1.4289,1.3162,1.2429,1.1548,1.1118,1.0853,1.0721,1.0721,1.0721,1.0721,1.0643,1.049,1.0351,1.0158,0.993,0.9829,0.9758,0.97,0.9389,0.9199,0.907,0.9246,0.9497,0.9596,0.8812,0.7918,0.7175,0.6226,0.533,0.4501,0.4714,0.4683,0.4114,0.3664,0.3711,0.4371,0.4623,0.4522,0.4139,0.3583,0.3137,0.2579,0.2131,0.1795,0.1795,0.1795,0.1783,0.1764,0.1757,0.174,0.1695,0.1687,0.1669,0.1626,0.1605,0.1592,0.1573,0.1545,0.1515,0.148,0.1472,0.1458,0.1439,0.1478,0.1552,0.1637,0.1692,0.1742,0.1785,0.1795,0.1795,0.1791,0.177,0.1743,0.1838,0.2294,0.2726,0.3145,0.3727,0.4347,0.4918,0.527,0.5382,0.5382,0.5382,0.5382,0.538,0.5382,0.5382,0.5382,0.5377,0.5353,0.5261,0.5136,0.5126,3.2815,3.1921,2.9558,2.6805,2.3977,2.1994,2.1058,2.1022,2.078,2.0665,2.0665,2.0665,2.0527,2.0388,2.0382,1.9959,1.8949,1.794,1.6753,1.5338,1.3642,1.255,1.1994,1.1132,1.0782,1.0775,1.0741,1.0721,1.0721,1.0721,1.066,1.0544,1.0368,1.0127,0.9842,0.9593,0.9506,0.9327,0.8929,0.8418,0.792,0.8047,0.8204,0.8296,0.7564,0.6839,0.6139,0.5214,0.4361,0.3688,0.3145,0.3052,0.3271,0.3085,0.3104,0.3436,0.3636,0.3586,0.3139,0.2914,0.2578,0.2131,0.1907,0.1795,0.1795,0.1795,0.1795,0.1793,0.1795,0.177,0.1727,0.1709,0.1682,0.1636,0.1623,0.1603,0.1563,0.1532,0.1489,0.1434,0.1417,0.1405,0.1392,0.1455,0.1546,0.1623,0.1683,0.1733,0.178,0.1795,0.1795,0.1794,0.1775,0.1748,0.1717,0.2165,0.2615,0.293,0.3386,0.4003,0.4697,0.5044,0.5382,0.5382,0.5382,0.5382,0.5382,0.5382,0.5382,0.5382,0.538,0.5361,0.5308,0.5286,0.5206,3.2079,3.0426,2.668,2.4609,2.3549,2.1877,2.107,2.107,2.0792,2.0671,2.0671,2.0665,2.0243,1.9541,1.9535,1.8977,1.7856,1.6841,1.5698,1.4411,1.3111,1.2348,1.1909,1.1217,1.0934,1.0907,1.0778,1.0721,1.0721,1.0721,1.0717,1.069,1.0429,1.0134,0.9873,0.9447,0.9197,0.8797,0.8085,0.7454,0.7065,0.6251,0.6062,0.639,0.6072,0.5367,0.4562,0.3773,0.307,0.2211,0.2116,0.2034,0.1973,0.1965,0.1965,0.197,0.1999,0.2018,0.2019,0.1907,0.1907,0.1795,0.1795,0.1795,0.1795,0.1795,0.1795,0.1795,0.1795,0.178,0.1751,0.1725,0.1695,0.1661,0.1633,0.1595,0.1536,0.1503,0.1457,0.1403,0.1373,0.138,0.1423,0.151,0.1581,0.1647,0.1709,0.1758,0.1785,0.1795,0.1795,0.1795,0.1788,0.1772,0.172,0.2056,0.2265,0.258,0.316,0.3749,0.4339,0.4931,0.5156,0.5382,0.527,0.527,0.5382,0.5382,0.5382,0.5382,0.5382,0.5363,0.5345,0.5367,0.5284,3.0384,2.7765,2.5333,2.3849,2.31,2.2013,2.1486,2.1305,2.1034,2.0822,2.0684,2.0665,2.011,1.9117,1.8412,1.7564,1.6729,1.5305,1.4311,1.3302,1.2306,1.1674,1.1639,1.1087,1.0948,1.0928,1.0795,1.0721,1.0721,1.0721,1.0721,1.069,1.0521,1.0266,1.0005,0.9503,0.8918,0.8125,0.7388,0.6426,0.533,0.4593,0.424,0.3756,0.4374,0.4474,0.395,0.3186,0.2617,0.1977,0.1926,0.187,0.1814,0.1789,0.1779,0.178,0.1789,0.1795,0.1795,0.1795,0.1795,0.1795,0.1795,0.1795,0.1795,0.1795,0.1795,0.1795,0.1795,0.1788,0.1777,0.1751,0.1714,0.1671,0.1652,0.1613,0.1539,0.1482,0.1429,0.1377,0.1354,0.1371,0.144,0.1515,0.1593,0.1654,0.1713,0.1759,0.1786,0.1795,0.1795,0.1795,0.1793,0.1781,0.1742,0.1972,0.2201,0.2406,0.2857,0.3329,0.392,0.4372,0.4597,0.5044,0.5044,0.5156,0.527,0.5382,0.5382,0.5382,0.5382,0.5382,0.5382,0.5382,0.5294,2.8508,2.5918,2.416,2.3135,2.2676,2.2123,2.177,2.1565,2.1215,2.0961,2.0798,2.0708,1.997,1.8697,1.7424,1.6296,1.5456,1.4169,1.3178,1.2606,1.1792,1.1463,1.1426,1.1209,1.109,1.106,1.0887,1.0775,1.0724,1.0721,1.0721,1.0711,1.0437,1.0243,0.989,0.9147,0.8341,0.7449,0.6503,0.5369,0.4069,0.3572,0.2932,0.2416,0.3065,0.3447,0.3182,0.271,0.2278,0.2003,0.1968,0.1918,0.186,0.1817,0.1795,0.1795,0.1795,0.1795,0.1795,0.1795,0.1795,0.1795,0.1795,0.1795,0.1795,0.1795,0.1795,0.1795,0.1795,0.1795,0.1791,0.1776,0.174,0.1688,0.1668,0.163,0.1551,0.1487,0.1429,0.1382,0.1386,0.1418,0.1474,0.1552,0.1623,0.1682,0.1734,0.1772,0.179,0.1795,0.1795,0.1795,0.1795,0.1787,0.1769,0.1887,0.1992,0.22,0.2432,0.2902,0.3363,0.3701,0.4148,0.4596,0.4931,0.5044,0.5156,0.5382,0.5382,0.5382,0.5382,0.5382,0.5382,0.5382,0.5286,2.6619,2.5051,2.3141,2.2414,2.2378,2.2011,2.1879,2.1764,2.1323,2.1106,2.0991,2.0792,1.9709,1.8266,1.6705,1.5296,1.4039,1.3182,1.2617,1.2191,1.1749,1.1599,1.1586,1.1423,1.1318,1.129,1.107,1.0863,1.0724,1.0721,1.0721,1.0694,1.0323,0.9922,0.9631,0.8464,0.7399,0.6604,0.5424,0.4331,0.3563,0.3071,0.2555,0.2289,0.2286,0.2285,0.2286,0.2225,0.2188,0.2052,0.2004,0.1948,0.1888,0.1832,0.1797,0.1799,0.1796,0.1795,0.1795,0.1795,0.1795,0.1795,0.1795,0.1795,0.1795,0.1795,0.1795,0.1795,0.1795,0.1795,0.1795,0.1792,0.1767,0.1714,0.1686,0.1646,0.158,0.1517,0.1457,0.141,0.1433,0.1502,0.1561,0.1613,0.1669,0.172,0.1758,0.178,0.1784,0.1782,0.1789,0.1791,0.1787,0.1779,0.1786,0.1793,0.1776,0.1874,0.2113,0.2467,0.2803,0.3253,0.3811,0.4258,0.4931,0.5044,0.527,0.5382,0.5382,0.5382,0.5382,0.5382,0.5382,0.5367,0.5296,2.5618,2.4327,2.285,2.2265,2.2253,2.2174,2.2042,2.1867,2.1673,2.127,2.0669,2.0256,1.9267,1.7585,1.6009,1.46,1.3472,1.247,1.1903,1.176,1.1619,1.1616,1.1589,1.1463,1.1284,1.1104,1.0999,1.087,1.0744,1.0721,1.0721,1.0575,1.0277,0.9655,0.8874,0.7826,0.6766,0.5071,0.4322,0.3571,0.2672,0.2418,0.229,0.2155,0.2155,0.2155,0.2152,0.2096,0.2066,0.2063,0.2008,0.1958,0.1915,0.1859,0.1827,0.1823,0.1806,0.1795,0.1795,0.1795,0.1795,0.1795,0.1795,0.1795,0.1795,0.1795,0.1795,0.1795,0.1795,0.1795,0.1795,0.1795,0.178,0.174,0.1727,0.1688,0.1611,0.1535,0.1459,0.1413,0.1461,0.1525,0.157,0.1626,0.1676,0.1711,0.1731,0.185,0.1756,0.1748,0.1744,0.1758,0.1761,0.1768,0.1772,0.1784,0.1786,0.1776,0.201,0.2132,0.2467,0.2803,0.3475,0.4147,0.4819,0.5156,0.5382,0.5382,0.5382,0.5382,0.5382,0.5382,0.5382,0.5347,0.5296,2.475,2.3742,2.2707,2.2265,2.2265,2.2265,2.2174,2.2011,2.1909,2.1382,2.0647,1.9838,1.8544,1.6984,1.5341,1.4034,1.3039,1.2043,1.1616,1.1616,1.1616,1.1616,1.1609,1.1528,1.1318,1.1077,1.1029,1.0921,1.0727,1.0588,1.0452,1.0455,0.9791,0.8952,0.7949,0.6887,0.5565,0.4112,0.3585,0.2935,0.2419,0.2155,0.2155,0.2155,0.2155,0.2155,0.2151,0.2106,0.2075,0.2054,0.1998,0.1952,0.1928,0.1874,0.184,0.1835,0.1814,0.1795,0.1795,0.1795,0.1795,0.1796,0.1805,0.1806,0.1801,0.1802,0.1809,0.1797,0.1806,0.1812,0.1813,0.1824,0.1819,0.1803,0.1767,0.1718,0.1643,0.1594,0.1551,0.1526,0.1547,0.1585,0.1622,0.1635,0.1675,0.1697,0.1705,0.1814,0.1724,0.1718,0.1722,0.1731,0.1745,0.1751,0.1753,0.177,0.1792,0.1792,0.1905,0.2019,0.2131,0.2467,0.3027,0.4147,0.4931,0.527,0.5382,0.5382,0.5382,0.5382,0.5382,0.5382,0.5382,0.5382,0.5337,2.4018,2.329,2.2558,2.2265,2.2265,2.2265,2.2253,2.2211,2.1864,2.1261,2.036,1.9121,1.776,1.6262,1.4512,1.346,1.2757,1.2043,1.1616,1.1616,1.1616,1.1616,1.1613,1.1599,1.143,1.1182,1.1145,1.0995,1.0731,1.0455,1.019,0.9921,0.8856,0.7786,0.6965,0.5505,0.443,0.3624,0.2958,0.2557,0.2155,0.2155,0.2155,0.2155,0.2155,0.2155,0.215,0.2117,0.2087,0.2054,0.1982,0.1942,0.1925,0.1877,0.1852,0.1852,0.1819,0.1808,0.1803,0.181,0.1808,0.1811,0.1829,0.1832,0.1816,0.1825,0.1825,0.1806,0.1823,0.1838,0.1842,0.1861,0.1874,0.1872,0.181,0.1741,0.1685,0.1688,0.1667,0.1653,0.1662,0.1667,0.1676,0.1665,0.1669,0.1678,0.1686,0.169,0.1691,0.1687,0.1694,0.1702,0.1709,0.1725,0.1725,0.1772,0.1792,0.1795,0.1907,0.1907,0.2019,0.2355,0.2915,0.4035,0.4931,0.5156,0.5382,0.5382,0.5382,0.5382,0.5382,0.5382,0.5382,0.5382,0.5371,2.3438,2.3005,2.2558,2.2265,2.2265,2.2265,2.2109,2.1804,2.1417,2.0404,1.9105,1.7925,1.6514,1.4971,1.3634,1.2753,1.2334,1.1907,1.1616,1.1616,1.1616,1.1616,1.1616,1.1613,1.146,1.1199,1.1155,1.1009,1.0738,1.0323,0.9785,0.8978,0.8051,0.6713,0.5238,0.4437,0.3499,0.2693,0.2424,0.229,0.2289,0.2155,0.2155,0.2155,0.2155,0.2155,0.215,0.2234,0.2062,0.2031,0.199,0.1964,0.1959,0.1925,0.1902,0.1898,0.1877,0.186,0.186,0.1859,0.186,0.1862,0.1867,0.187,0.1862,0.1847,0.1839,0.1829,0.1837,0.1842,0.1847,0.187,0.1885,0.188,0.1844,0.1801,0.1765,0.1744,0.1727,0.1698,0.1677,0.1662,0.1648,0.1639,0.1627,0.1621,0.1632,0.1645,0.1652,0.165,0.1653,0.1645,0.1652,0.1678,0.1709,0.1761,0.179,0.1794,0.1795,0.1795,0.2131,0.2467,0.3139,0.4036,0.4596,0.5043,0.5156,0.5156,0.527,0.5382,0.5382,0.5382,0.5382,0.5382,0.5382,2.2515,2.2221,2.208,2.1927,2.1933,2.1933,2.1632,2.1036,2.0416,1.9391,1.7829,1.6387,1.5065,1.387,1.2786,1.2191,1.1907,1.1763,1.1616,1.1616,1.1616,1.1616,1.1616,1.1613,1.146,1.1192,1.1023,1.072,1.0368,0.9791,0.8851,0.8046,0.698,0.5508,0.4303,0.3499,0.2962,0.2289,0.2155,0.2155,0.2155,0.2155,0.2155,0.2155,0.2155,0.2155,0.2147,0.2227,0.2055,0.1906,0.1501,0.1359,0.1974,0.1947,0.1932,0.193,0.1902,0.1885,0.1885,0.1885,0.1885,0.1888,0.1896,0.1896,0.1889,0.1878,0.1877,0.1862,0.187,0.1877,0.1883,0.1906,0.1922,0.1923,0.1897,0.1861,0.1819,0.1798,0.1774,0.1744,0.1706,0.1669,0.1639,0.1626,0.1603,0.1589,0.1606,0.1615,0.1622,0.1617,0.1614,0.1614,0.1641,0.1682,0.1711,0.1755,0.1789,0.1794,0.1795,0.1795,0.2019,0.2467,0.3027,0.3699,0.437,0.4706,0.4931,0.5044,0.527,0.5382,0.5382,0.5382,0.5382,0.5382,0.5382,2.148,2.148,2.148,2.148,2.1504,2.1486,2.1089,2.0172,1.9451,1.8248,1.6703,1.4945,1.3853,1.2973,1.2233,1.1616,1.1619,1.1619,1.1616,1.1616,1.1616,1.1616,1.1616,1.1616,1.1447,1.1202,1.0747,1.0305,0.9713,0.872,0.7786,0.6846,0.5508,0.4438,0.3499,0.2963,0.2559,0.2289,0.2155,0.2155,0.2155,0.2155,0.2155,0.2155,0.2155,0.2155,0.214,0.2099,0.2063,0.2064,0.0878,0.1114,0.1973,0.1949,0.1939,0.1937,0.1919,0.1903,0.1898,0.1904,0.1899,0.1906,0.1925,0.1925,0.1911,0.1915,0.1912,0.1892,0.1915,0.1924,0.1933,0.1956,0.1958,0.1949,0.1934,0.1893,0.1853,0.1838,0.1829,0.18,0.1744,0.1697,0.1665,0.1636,0.1607,0.1598,0.1611,0.1628,0.1637,0.1643,0.1626,0.1604,0.1645,0.1701,0.1727,0.1752,0.1778,0.1795,0.1795,0.1795,0.1907,0.2243,0.2803,0.3475,0.3923,0.437,0.4596,0.4933,0.5158,0.5382,0.527,0.5382,0.5382,0.5382,0.5382,2.148,2.148,2.148,2.148,2.148,2.148,2.0885,1.9704,1.867,1.7243,1.5681,1.4027,1.3073,1.2392,1.1924,1.1616,1.1616,1.1616,1.1616,1.1616,1.1616,1.1616,1.1613,1.1606,1.1447,1.1087,1.0747,1.0039,0.9035,0.7915,0.6713,0.5106,0.4437,0.3498,0.2692,0.2558,0.229,0.2155,0.2155,0.2155,0.2155,0.2155,0.2155,0.2155,0.2155,0.2154,0.2142,0.2096,0.2065,0.1922,0.176,0.1606,0.1974,0.1969,0.1964,0.1962,0.196,0.1954,0.1956,0.1952,0.1956,0.1952,0.1956,0.1964,0.1958,0.1939,0.1932,0.1922,0.1928,0.1943,0.1959,0.1949,0.1944,0.1933,0.1891,0.1844,0.1817,0.1824,0.1828,0.1808,0.1752,0.1693,0.1665,0.1638,0.1619,0.1613,0.1628,0.1648,0.1658,0.1667,0.1643,0.1615,0.1653,0.1703,0.1716,0.1744,0.178,0.1795,0.1795,0.1795,0.1907,0.2019,0.2579,0.3027,0.3475,0.3923,0.4148,0.4707,0.5043,0.5044,0.527,0.5382,0.5382,0.5382,0.5382,2.1094,2.1094,2.1094,2.11,2.1094,2.11,2.0379,1.8937,1.7632,1.6132,1.4627,1.3032,1.2265,1.191,1.1763,1.1616,1.1616,1.1616,1.1616,1.1616,1.1613,1.1579,1.1514,1.1355,1.1104,1.076,0.9841,0.9016,0.8086,0.6844,0.5508,0.4168,0.3499,0.2961,0.2289,0.2155,0.2155,0.2155,0.2155,0.2155,0.2155,0.2155,0.2155,0.2155,0.2154,0.215,0.2129,0.2089,0.2059,0.2036,0.2002,0.1977,0.1977,0.1977,0.1977,0.1977,0.1977,0.1977,0.1977,0.1977,0.1975,0.1977,0.1977,0.1977,0.1975,0.196,0.1954,0.1952,0.1954,0.196,0.1973,0.1949,0.193,0.1895,0.1829,0.1774,0.1651,0.1779,0.1791,0.1772,0.1718,0.1676,0.1647,0.1638,0.1632,0.1626,0.1662,0.1682,0.1674,0.1677,0.1659,0.1647,0.1674,0.1699,0.1707,0.1736,0.1784,0.1795,0.1795,0.1795,0.1795,0.2019,0.2132,0.2579,0.3027,0.3363,0.3701,0.4258,0.4706,0.4931,0.5156,0.527,0.5382,0.5382,0.5382,2.0665,2.0665,2.0665,2.0665,2.0671,2.0545,1.9709,1.8142,1.6564,1.5199,1.3757,1.2187,1.1777,1.1616,1.1616,1.1616,1.1616,1.1616,1.1616,1.1616,1.1429,1.1365,1.1137,1.063,1.0125,1.0012,0.896,0.7887,0.6736,0.5508,0.4437,0.3499,0.2963,0.2559,0.2289,0.2155,0.2155,0.2155,0.2155,0.2155,0.2155,0.2155,0.2155,0.2155,0.2145,0.2134,0.211,0.2076,0.2044,0.2019,0.1992,0.1979,0.1977,0.1977,0.1977,0.1977,0.1977,0.1977,0.1977,0.1977,0.1977,0.1977,0.1977,0.1977,0.1976,0.1975,0.1973,0.1973,0.1973,0.1973,0.1975,0.194,0.1907,0.1862,0.1769,0.1601,0.1585,0.1604,0.1714,0.1706,0.1682,0.1652,0.1652,0.1651,0.1645,0.1649,0.1686,0.1712,0.1705,0.1693,0.1679,0.1664,0.1684,0.1697,0.1705,0.1727,0.1774,0.1786,0.1788,0.1791,0.1793,0.1907,0.2019,0.2132,0.2467,0.2803,0.3251,0.3811,0.437,0.4707,0.5043,0.5156,0.527,0.5382,0.5382,2.0665,2.0665,2.0665,2.0527,2.011,1.982,1.8832,1.7424,1.5872,1.4457,1.3325,1.2191,1.1616,1.1616,1.1616,1.1616,1.1616,1.1616,1.1613,1.1579,1.1223,1.0985,1.062,0.9489,0.8697,0.8252,0.7667,0.6656,0.5253,0.417,0.3499,0.2692,0.2424,0.229,0.229,0.2155,0.2155,0.2155,0.2155,0.2155,0.2155,0.2155,0.2152,0.2149,0.2132,0.2114,0.2096,0.2056,0.2023,0.2016,0.1991,0.1979,0.1977,0.1977,0.1977,0.1977,0.1977,0.1977,0.1977,0.1977,0.1977,0.1977,0.1977,0.1977,0.1977,0.1977,0.1977,0.1977,0.1977,0.1977,0.1975,0.193,0.187,0.1814,0.1747,0.1568,0.1421,0.1519,0.165,0.1656,0.1642,0.1641,0.1655,0.1673,0.1684,0.1694,0.1722,0.1749,0.1756,0.1735,0.1711,0.1696,0.1685,0.1696,0.1705,0.1729,0.176,0.1769,0.1774,0.1784,0.1787,0.1793,0.1907,0.2019,0.2131,0.2355,0.2914,0.3474,0.3811,0.4147,0.4596,0.4931,0.5156,0.527,0.5382,2.0665,2.0665,2.0665,2.0382,1.9825,1.9117,1.8126,1.6579,1.5164,1.3884,1.3039,1.2043,1.1616,1.1616,1.1616,1.1616,1.1616,1.1616,1.1579,1.1501,1.1143,1.0448,0.9796,0.8531,0.7235,0.6252,0.5696,0.5281,0.4037,0.3499,0.2827,0.2424,0.2155,0.2155,0.2155,0.2155,0.2155,0.2155,0.2155,0.2155,0.2155,0.2154,0.2148,0.213,0.2115,0.2095,0.2059,0.2041,0.2011,0.1998,0.1984,0.1978,0.1977,0.1977,0.1977,0.1977,0.1977,0.1977,0.1977,0.1977,0.1977,0.1977,0.1977,0.1977,0.1977,0.1977,0.1977,0.1977,0.1977,0.1977,0.1975,0.1919,0.1862,0.1908,0.1718,0.1634,0.1475,0.1555,0.1581,0.1622,0.1641,0.1654,0.1671,0.1692,0.1719,0.1742,0.1761,0.1778,0.1793,0.1765,0.173,0.1702,0.1684,0.1686,0.1699,0.1723,0.175,0.1759,0.1765,0.1774,0.1785,0.1793,0.1795,0.1907,0.2019,0.213,0.2355,0.2915,0.3251,0.3699,0.4258,0.4707,0.4931,0.5156,0.527,2.0665,2.0665,2.0665,2.0243,1.9396,1.8552,1.7278,1.5877,1.4311,1.3317,1.2613,1.19,1.1616,1.1616,1.1616,1.1616,1.1613,1.1592,1.1358,1.1123,1.0461,0.9622,0.8676,0.7364,0.6111,0.4722,0.4042,0.35,0.3365,0.2962,0.2559,0.229,0.2155,0.2155,0.2155,0.2155,0.2155,0.2155,0.2155,0.2155,0.2154,0.2142,0.2131,0.2108,0.2098,0.2065,0.203,0.2013,0.1999,0.1986,0.1977,0.1977,0.1977,0.1977,0.1977,0.1977,0.1977,0.1977,0.1977,0.1977,0.1977,0.1977,0.1977,0.1977,0.1977,0.1977,0.1977,0.1976,0.1968,0.1965,0.1955,0.1904,0.1841,0.1885,0.1686,0.1605,0.1556,0.1539,0.1562,0.16,0.1638,0.1673,0.1698,0.1712,0.1739,0.1759,0.1778,0.1781,0.1791,0.1767,0.1735,0.17,0.1681,0.1678,0.169,0.1713,0.174,0.1761,0.1765,0.1773,0.1784,0.1794,0.1795,0.1908,0.1907,0.1907,0.2132,0.2468,0.2917,0.3363,0.3923,0.437,0.4484,0.4707,0.4931,2.0665,2.0665,2.0665,2.011,1.8982,1.7851,1.6579,1.5026,1.3603,1.2757,1.2191,1.1903,1.1616,1.1599,1.1592,1.1603,1.1422,1.119,1.0966,1.0607,0.9472,0.8407,0.7519,0.5955,0.4862,0.3767,0.3097,0.2694,0.2558,0.2424,0.229,0.2155,0.2155,0.2155,0.2155,0.2155,0.2155,0.2155,0.2155,0.2155,0.2147,0.2108,0.2097,0.2089,0.2063,0.203,0.2014,0.1997,0.1982,0.1979,0.1977,0.1977,0.1977,0.1977,0.1977,0.1977,0.1977,0.1977,0.1977,0.1977,0.1977,0.1977,0.1977,0.1977,0.1977,0.1977,0.1977,0.1975,0.1955,0.1935,0.1919,0.1856,0.1787,0.184,0.1673,0.1606,0.1554,0.1575,0.1593,0.162,0.1671,0.1707,0.1737,0.1746,0.1758,0.1777,0.1792,0.1793,0.1787,0.1765,0.1745,0.1712,0.1682,0.1677,0.1693,0.1714,0.1736,0.1761,0.1776,0.178,0.1787,0.1798,0.1797,0.191,0.1908,0.2019,0.2244,0.2468,0.2692,0.2915,0.3363,0.3699,0.4036,0.4372,0.4594,2.0533,2.0665,2.0665,1.9965,1.8552,1.7273,1.5721,1.4319,1.2757,1.2047,1.1907,1.1763,1.1575,1.1494,1.1409,1.1358,1.1204,1.0874,1.0373,0.9628,0.8534,0.7231,0.5827,0.472,0.3768,0.3096,0.2558,0.2425,0.2155,0.2155,0.2155,0.2155,0.2155,0.2155,0.2155,0.2155,0.2155,0.2155,0.2155,0.2155,0.2144,0.2114,0.2086,0.2082,0.2041,0.2014,0.1996,0.1986,0.1977,0.1977,0.1977,0.1977,0.1977,0.1977,0.1977,0.1977,0.1977,0.1977,0.1977,0.1977,0.1977,0.1977,0.1977,0.1977,0.1977,0.1977,0.1977,0.1976,0.1949,0.192,0.1879,0.1812,0.1737,0.1785,0.1651,0.1618,0.1585,0.1623,0.1647,0.1675,0.1702,0.1737,0.1768,0.178,0.1782,0.1783,0.1793,0.1794,0.1785,0.1767,0.1748,0.1729,0.17,0.1677,0.1699,0.1722,0.1742,0.1768,0.1807,0.1807,0.18,0.1802,0.1914,0.2248,0.2693,0.2692,0.258,0.2356,0.2355,0.258,0.2805,0.3141,0.3477,0.3811,0.4035,2.0095,2.0197,2.0328,1.9535,1.7986,1.6418,1.5017,1.3611,1.228,1.1562,1.1548,1.1514,1.143,1.1341,1.1233,1.1196,1.1175,1.0711,0.9805,0.878,0.75,0.6101,0.4723,0.3767,0.3096,0.2155,0.2289,0.229,0.2155,0.2155,0.2155,0.2155,0.2155,0.2155,0.2155,0.2155,0.2155,0.2154,0.2145,0.2146,0.2144,0.2105,0.208,0.2057,0.2029,0.1998,0.1981,0.1977,0.1977,0.1977,0.1977,0.1977,0.1977,0.1977,0.1977,0.1977,0.1977,0.1977,0.1977,0.1977,0.1977,0.1977,0.1977,0.1977,0.1977,0.1977,0.1977,0.1977,0.1937,0.1894,0.1843,0.1782,0.1708,0.1657,0.1622,0.1603,0.1597,0.1633,0.1675,0.171,0.1737,0.177,0.1796,0.1812,0.1812,0.1797,0.1795,0.1797,0.1789,0.1778,0.1761,0.1746,0.1728,0.1701,0.1702,0.1725,0.1746,0.1882,0.1922,0.1822,0.1919,0.1916,0.1918,0.2478,0.3365,0.347,0.3463,0.2799,0.2131,0.2468,0.2692,0.2805,0.3027,0.3253,0.3601,1.9279,1.889,1.9341,1.8664,1.7258,1.573,1.4449,1.3267,1.202,1.1409,1.1385,1.127,1.1206,1.1168,1.1141,1.1118,1.1138,1.033,0.931,0.8038,0.6772,0.5257,0.3901,0.3096,0.2693,0.2289,0.2155,0.2155,0.2155,0.2155,0.2155,0.2155,0.2155,0.2155,0.2155,0.2155,0.2155,0.215,0.2137,0.2136,0.2126,0.2091,0.205,0.205,0.2014,0.1979,0.1977,0.1977,0.1977,0.1977,0.1977,0.1977,0.1977,0.1977,0.1977,0.1977,0.1977,0.1977,0.1977,0.1977,0.1977,0.1977,0.1977,0.1977,0.1977,0.1977,0.1977,0.1971,0.1929,0.1879,0.1826,0.1763,0.1689,0.1634,0.1607,0.1608,0.1611,0.1638,0.1682,0.1734,0.1772,0.1801,0.1822,0.1838,0.1841,0.1827,0.1821,0.1823,0.1817,0.1806,0.1785,0.1768,0.1756,0.1734,0.171,0.183,0.1952,0.22,0.2243,0.2141,0.2023,0.2026,0.2029,0.3369,0.4247,0.435,0.436,0.3726,0.3175,0.2702,0.258,0.2468,0.2585,0.2815,0.3174,1.8426,1.7728,1.736,1.6736,1.6191,1.4666,1.3563,1.2583,1.1695,1.125,1.1236,1.1101,1.1029,1.1009,1.0921,1.0894,1.0752,1.0171,0.8792,0.7293,0.5919,0.457,0.3363,0.2693,0.229,0.2155,0.2155,0.2155,0.2155,0.2155,0.2155,0.2155,0.2155,0.2155,0.2155,0.2155,0.2155,0.2153,0.2144,0.2146,0.2138,0.2109,0.2071,0.2057,0.2028,0.1994,0.1981,0.1977,0.1977,0.1977,0.1977,0.1977,0.1977,0.1977,0.1977,0.1977,0.1977,0.1977,0.1977,0.1977,0.1977,0.1977,0.1977,0.1977,0.1977,0.1977,0.1977,0.1959,0.1922,0.1871,0.181,0.1746,0.168,0.1618,0.1598,0.1609,0.1629,0.1658,0.1694,0.1748,0.1791,0.1826,0.1845,0.1863,0.1862,0.1858,0.1853,0.1849,0.1842,0.1838,0.1821,0.1805,0.1793,0.1997,0.1971,0.2065,0.2266,0.2517,0.267,0.2783,0.2785,0.2017,0.2241,0.3797,0.5137,0.5594,0.5525,0.4922,0.424,0.3407,0.2593,0.2019,0.2251,0.2493,0.2746,1.7467,1.6419,1.5213,1.4887,1.4846,1.3626,1.267,1.2116,1.1393,1.1067,1.1026,1.0924,1.088,1.0846,1.0789,1.0734,1.0615,0.9937,0.8456,0.7247,0.591,0.4301,0.3095,0.2424,0.2425,0.229,0.2155,0.2155,0.2155,0.2155,0.2155,0.2155,0.2155,0.2155,0.2155,0.2155,0.2155,0.2155,0.2155,0.2155,0.2151,0.2123,0.2101,0.2074,0.2039,0.2011,0.1992,0.1984,0.1977,0.1977,0.1977,0.1977,0.1977,0.1977,0.1977,0.1977,0.1977,0.1977,0.1977,0.1977,0.1977,0.1977,0.1977,0.1977,0.1977,0.1976,0.1974,0.1956,0.1913,0.1861,0.1802,0.1748,0.1694,0.1641,0.1639,0.1649,0.1662,0.1686,0.1722,0.1763,0.1807,0.1856,0.1875,0.1892,0.1892,0.1885,0.1871,0.1868,0.1868,0.1866,0.1864,0.1849,0.1837,0.2044,0.2246,0.2646,0.2927,0.3471,0.3628,0.3853,0.364,0.299,0.3091,0.4593,0.5937,0.6821,0.6807,0.6198,0.5054,0.3778,0.2966,0.2168,0.195,0.2197,0.2325,1.6224,1.4791,1.3503,1.3307,1.3853,1.2803,1.2105,1.1646,1.1138,1.0887,1.0785,1.0748,1.0744,1.0741,1.0727,1.0721,1.0588,1.006,0.8853,0.7512,0.6443,0.4972,0.3632,0.2961,0.2559,0.229,0.2155,0.2155,0.2155,0.2155,0.2155,0.2155,0.2155,0.2155,0.2155,0.2155,0.2155,0.2155,0.2155,0.2155,0.2149,0.2129,0.2114,0.2091,0.2053,0.2024,0.2008,0.1986,0.1978,0.1977,0.1977,0.1977,0.1977,0.1977,0.1977,0.1977,0.1977,0.1977,0.1977,0.1977,0.1977,0.1977,0.1977,0.1977,0.1977,0.1975,0.1964,0.1945,0.1906,0.186,0.1811,0.1768,0.1721,0.1694,0.1693,0.1685,0.1699,0.1709,0.1742,0.1763,0.1828,0.1887,0.1907,0.1922,0.1923,0.1914,0.1894,0.1889,0.2014,0.2137,0.214,0.2359,0.2342,0.2767,0.3067,0.3323,0.3708,0.4246,0.4658,0.4868,0.4868,0.4437,0.4845,0.5783,0.6676,0.7762,0.7743,0.7478,0.6043,0.4702,0.3275,0.2457,0.2231,0.2002,0.2129,1.5559,1.4132,1.2696,1.2102,1.2067,1.1538,1.1142,1.0998,1.0816,1.0765,1.0731,1.0721,1.0721,1.0721,1.0721,1.0721,1.0588,1.0326,0.9253,0.8179,0.7245,0.5774,0.4435,0.3498,0.2962,0.2424,0.2155,0.2155,0.2155,0.2155,0.2155,0.2155,0.2155,0.2155,0.2155,0.2155,0.2155,0.2155,0.2155,0.2155,0.2153,0.2143,0.2129,0.211,0.2067,0.2038,0.2018,0.1992,0.1855,0.1977,0.1977,0.1977,0.1977,0.1977,0.1977,0.1977,0.1977,0.1977,0.1977,0.1977,0.1977,0.1977,0.1977,0.1977,0.1977,0.1977,0.196,0.1934,0.1906,0.1866,0.183,0.182,0.1788,0.1766,0.1755,0.1729,0.1728,0.1735,0.1752,0.1762,0.1806,0.1894,0.1939,0.2188,0.2189,0.2192,0.2174,0.2296,0.2304,0.255,0.2795,0.3007,0.3214,0.3513,0.3905,0.436,0.4822,0.5339,0.5792,0.602,0.5915,0.5741,0.6114,0.6792,0.774,0.8617,0.8326,0.7897,0.6839,0.5567,0.4311,0.2968,0.2253,0.2024,0.1917,1.4782,1.335,1.2037,1.1247,1.0986,1.0853,1.0721,1.0721,1.0721,1.0721,1.0721,1.0721,1.0721,1.0721,1.0721,1.0721,1.0721,1.0326,0.9921,0.8845,0.8048,0.6443,0.5106,0.4167,0.3229,0.2558,0.2155,0.2155,0.2155,0.2155,0.2155,0.2155,0.2155,0.2155,0.2155,0.2155,0.2155,0.2155,0.2155,0.2155,0.2155,0.2149,0.2138,0.211,0.2078,0.205,0.1894,0.1746,0.1606,0.1853,0.1977,0.1977,0.1977,0.1977,0.1977,0.1977,0.1977,0.1977,0.1977,0.1977,0.1977,0.1977,0.1977,0.1977,0.1977,0.1977,0.1949,0.1924,0.1905,0.1877,0.1849,0.1846,0.1847,0.1823,0.1817,0.1792,0.1772,0.1781,0.1782,0.1789,0.1814,0.1898,0.2206,0.2335,0.2582,0.2587,0.2466,0.2591,0.2837,0.3202,0.3566,0.3902,0.4344,0.4756,0.5109,0.5522,0.5978,0.6557,0.6815,0.6924,0.7154,0.7012,0.741,0.7744,0.8431,0.8902,0.8892,0.8339,0.7675,0.6834,0.5821,0.4334,0.2635,0.2166,0.2182,1.3997,1.2684,1.1247,1.0721,1.0721,1.0721,1.0721,1.0721,1.0721,1.0721,1.0721,1.0721,1.0721,1.0721,1.0721,1.0721,1.0721,1.0323,1.0054,0.9516,0.872,0.7114,0.5774,0.4702,0.3631,0.2692,0.2155,0.2155,0.2155,0.2155,0.2155,0.2155,0.2155,0.2155,0.2155,0.2155,0.2155,0.2155,0.2155,0.2151,0.2146,0.2146,0.2128,0.2099,0.2065,0.2168,0.1761,0.1119,0.1112,0.1357,0.1853,0.1977,0.1977,0.1977,0.1977,0.1977,0.1977,0.1977,0.1977,0.1977,0.1977,0.1977,0.1977,0.1977,0.1977,0.1974,0.1948,0.1924,0.1905,0.1879,0.1854,0.1871,0.1886,0.1883,0.1886,0.1864,0.1836,0.1832,0.1832,0.1842,0.1863,0.2035,0.2448,0.2715,0.3207,0.3329,0.3451,0.3819,0.394,0.4064,0.4551,0.5042,0.5479,0.6032,0.6467,0.6704,0.6843,0.7265,0.7376,0.7588,0.7975,0.8046,0.8123,0.8301,0.901,0.9295,0.9268,0.9131,0.8693,0.7831,0.6834,0.5245,0.3518,0.2803,0.2575,1.3481,1.2301,1.1247,1.0721,1.0721,1.0717,1.0721,1.0721,1.0721,1.0721,1.0721,1.0721,1.0721,1.0721,1.0721,1.0721,1.0721,1.0588,1.0588,1.0054,0.9389,0.7912,0.6573,0.5235,0.3899,0.2827,0.2155,0.2155,0.2155,0.2155,0.2155,0.2155,0.2155,0.2155,0.2155,0.2155,0.2155,0.2155,0.2155,0.2146,0.2134,0.2131,0.211,0.208,0.2164,0.2141,0.1754,0.0738,-0.0,-0.0,-0.0,0.1977,0.1977,0.1977,0.1977,0.1977,0.1977,0.1977,0.1977,0.1977,0.1977,0.1977,0.1977,0.1977,0.1977,0.197,0.1947,0.1921,0.1917,0.1901,0.1882,0.1889,0.1909,0.192,0.1921,0.1908,0.1883,0.1874,0.1872,0.1975,0.1999,0.2406,0.2827,0.3449,0.3942,0.4309,0.4553,0.492,0.504,0.5165,0.5536,0.6151,0.6738,0.7399,0.7437,0.765,0.7743,0.793,0.7922,0.8011,0.8052,0.822,0.8462,0.8774,0.9211,0.9517,0.9633,0.9451,0.9207,0.8604,0.7606,0.6018,0.4553,0.3817,0.2958,1.2742,1.1839,1.0936,1.0548,1.0544,1.0544,1.0548,1.0565,1.0666,1.0721,1.0721,1.0721,1.0721,1.0721,1.0721,1.0721,1.0721,1.0721,1.0721,1.0455,1.006,0.8179,0.6838,0.5637,0.4167,0.2961,0.2155,0.2155,0.2155,0.2155,0.2155,0.2155,0.2155,0.2155,0.2155,0.2155,0.2155,0.2155,0.2153,0.2143,0.2133,0.2123,0.2102,0.2061,0.2013,0.2124,0.1984,0.0728,-0.0,-0.0,-0.0,0.1977,0.1977,0.1977,0.1977,0.1977,0.1977,0.1977,0.1977,0.1977,0.1977,0.1977,0.1977,0.1977,0.1977,0.1973,0.1938,0.1907,0.1926,0.1934,0.1917,0.1907,0.1928,0.1949,0.1946,0.1943,0.193,0.1917,0.2015,0.2108,0.2372,0.2912,0.3439,0.418,0.4921,0.5535,0.6149,0.6514,0.651,0.6261,0.6757,0.75,0.8091,0.8648,0.8629,0.8379,0.8352,0.8278,0.8041,0.8089,0.813,0.8275,0.8503,0.8889,0.9449,0.9585,0.9795,0.969,0.9454,0.897,0.8604,0.7375,0.6025,0.4921,0.3817,1.2032,1.1288,1.0531,1.0304,1.0283,1.03,1.03,1.0307,1.0558,1.069,1.0687,1.0714,1.0721,1.0721,1.0721,1.0721,1.0721,1.0721,1.0721,1.0717,1.006,0.8448,0.6836,0.5635,0.4166,0.2826,0.2155,0.2155,0.2155,0.2155,0.2155,0.2155,0.2155,0.2155,0.2155,0.2155,0.2155,0.2155,0.2154,0.2148,0.2145,0.214,0.2123,0.1935,0.1895,0.199,0.1583,0.0844,0.0121,0.0485,0.0978,0.1728,0.1977,0.1977,0.1977,0.1977,0.1977,0.1977,0.1977,0.1977,0.1977,0.1977,0.1977,0.1977,0.1977,0.1977,0.1945,0.1914,0.1926,0.1926,0.1911,0.1931,0.1957,0.1964,0.1962,0.195,0.1933,0.1927,0.2042,0.2266,0.2891,0.344,0.4547,0.5291,0.627,0.6884,0.7497,0.8108,0.798,0.7484,0.7856,0.8482,0.8952,0.9252,0.9137,0.899,0.8853,0.8648,0.8265,0.8113,0.8113,0.8316,0.8471,0.9005,0.9549,0.9608,0.9771,0.9677,0.97,0.9579,0.9214,0.8845,0.7739,0.627,0.5042,1.1909,1.1292,1.0661,1.0407,1.0276,1.0149,1.0143,1.0283,1.0348,1.0449,1.0555,1.0653,1.0721,1.0721,1.0721,1.0721,1.0721,1.0721,1.0721,1.0449,1.005,0.8568,0.67,0.5765,0.4298,0.2826,0.2155,0.2424,0.2423,0.2424,0.2289,0.2289,0.2289,0.2423,0.2423,0.2424,0.2289,0.2155,0.2289,0.2412,0.2398,0.2116,0.1961,0.1527,0.1369,0.1102,0.0963,0.1312,0.0599,0.0482,0.0367,0.0987,0.1853,0.1977,0.1977,0.1977,0.1977,0.1977,0.1977,0.1977,0.1977,0.1977,0.1977,0.1977,0.1977,0.1977,0.1962,0.1932,0.1916,0.1913,0.1919,0.195,0.1977,0.1977,0.1977,0.1956,0.1936,0.206,0.2185,0.2807,0.3316,0.4306,0.5414,0.6519,0.7497,0.823,0.8967,0.9332,0.9207,0.8958,0.8593,0.9092,0.9332,0.96,0.9496,0.9245,0.8981,0.8615,0.8214,0.8119,0.8099,0.8357,0.8642,0.911,0.9617,0.9639,0.9741,0.9805,0.9822,0.97,0.9579,0.9211,0.8845,0.7742,0.6634,1.1685,1.1068,1.0454,1.008,1.0076,0.9948,1.0073,1.0086,1.0148,1.0222,1.0327,1.051,1.0653,1.0704,1.0721,1.0704,1.0707,1.0721,1.0663,1.0379,0.9871,0.8532,0.7208,0.6152,0.4833,0.3497,0.3229,0.3229,0.3094,0.3228,0.3228,0.3094,0.3094,0.3094,0.3094,0.2826,0.2557,0.2288,0.2692,0.2947,0.2791,0.2387,0.2098,0.1531,0.0871,0.061,0.0961,0.1428,0.1431,0.1085,0.1102,0.0617,0.1359,0.1606,0.1977,0.1977,0.1977,0.1977,0.2099,0.2099,0.2099,0.2098,0.1977,0.21,0.1954,0.195,0.1937,0.1912,0.1924,0.1924,0.1917,0.1939,0.1967,0.1977,0.21,0.2089,0.2202,0.2447,0.2939,0.368,0.4432,0.5412,0.6399,0.738,0.8358,0.8723,0.9579,0.97,0.9822,0.9819,0.97,0.9579,0.9697,0.9747,0.9568,0.9286,0.8984,0.8591,0.8187,0.8116,0.8123,0.8401,0.8726,0.9257,0.9569,0.9591,0.9686,0.9788,0.9819,0.9822,0.97,0.9457,0.9214,0.9092,0.8227,1.1285,1.0668,1.0072,0.9825,0.9822,0.9825,0.9832,0.9852,0.9961,1.0039,1.0097,1.0327,1.0514,1.0619,1.0663,1.0663,1.0643,1.0588,1.0541,1.0397,0.9926,0.8859,0.7812,0.6777,0.5743,0.4962,0.4567,0.4567,0.4567,0.4567,0.4567,0.4567,0.4567,0.4568,0.43,0.3899,0.3495,0.3495,0.3764,0.4168,0.3764,0.2958,0.2509,0.1806,0.1132,0.0738,0.1208,0.1675,0.203,0.205,0.1835,0.1601,0.1605,0.2099,0.2223,0.247,0.247,0.2465,0.2461,0.2465,0.2462,0.2339,0.2219,0.2209,0.2183,0.2041,0.2027,0.214,0.2034,0.1926,0.1919,0.1934,0.1961,0.1977,0.21,0.2223,0.259,0.2957,0.3696,0.4436,0.554,0.6519,0.738,0.836,0.8851,0.9335,0.9457,0.97,0.9819,0.9819,0.97,0.97,0.9697,0.9724,0.9574,0.9337,0.9022,0.8645,0.8289,0.817,0.815,0.8404,0.8716,0.9222,0.9494,0.9537,0.9686,0.9805,0.9819,0.9819,0.97,0.97,0.9579,0.9454,0.9576,1.1027,0.994,0.9822,0.9819,0.9819,0.9819,0.9819,0.9822,0.9852,0.9927,1.0032,1.009,1.0215,1.0361,1.0365,1.0385,1.0436,1.0415,1.0378,1.0213,0.9877,0.913,0.825,0.7486,0.6896,0.6392,0.6007,0.6025,0.5998,0.6011,0.603,0.6027,0.6032,0.6034,0.6034,0.5629,0.5359,0.522,0.5617,0.6285,0.5899,0.4809,0.3042,0.2592,0.241,0.2105,0.2186,0.2648,0.2887,0.2662,0.2445,0.2461,0.2837,0.3208,0.3455,0.3573,0.3573,0.3426,0.354,0.3542,0.3537,0.3527,0.341,0.3177,0.3016,0.2737,0.283,0.2798,0.2701,0.2143,0.2032,0.207,0.2099,0.1977,0.21,0.247,0.2838,0.3449,0.4186,0.5414,0.6639,0.7497,0.8238,0.8973,0.9335,0.97,0.97,0.9819,0.9819,0.9819,0.9819,0.9819,0.9819,0.9642,0.9473,0.9344,0.9059,0.8689,0.8394,0.8269,0.8255,0.8394,0.8828,0.9267,0.9473,0.95,0.9646,0.9819,0.9819,0.9819,0.9819,0.9822,0.9819,0.9819,0.9819]},{"header":{"parameterUnit":"m.s-1","parameterCategory":1,"la1":31.0,"la2":29.5877,"lo1":-88.7671,"lo2":-86.6584,"dy":0.0162,"dx":0.0185,"nx":115,"ny":88,"refTime":"2026-04-13T12:00:00:Z","depth":0,"parameterNumber":3,"parameterNumberName":"V-component_of_WINDS"},"data":[0.0,0.0,0.0,0.0,0.0,0.0,0.0,0.0,0.0,0.0,0.0,0.0,0.0,0.0,0.0,0.0,0.0,0.0,0.0,0.0,0.0,0.0,0.0,0.0,0.0,0.0,0.0,0.0,0.0,0.0,0.0,0.0,0.0,0.0,0.0,0.0,0.0,0.0,0.0,0.0,0.0,0.0,0.0,0.0,0.0,0.0,0.0,0.0,0.0,0.0,0.0,0.0,0.0,0.0,0.0,0.0,0.0,0.0,0.0,0.0,0.0,0.0,0.0,0.0,0.0,0.0,0.0,0.0,0.0,0.0,0.0,0.0,0.0,0.0,0.0,0.0,0.0,0.0,0.0,0.0,0.0,0.0,0.0,0.0,0.0,0.0,0.0,0.0,0.0,0.0,0.0,0.0,0.0,0.0,0.0,0.0,0.0,0.0,0.0,0.0,0.0,0.0,0.0,0.0,0.0,0.0,0.0,0.0,0.0,0.0,0.0,0.0,0.0,0.0,0.0,0.0,0.0,0.0,0.0,0.0,0.0,0.0,0.0,0.0,0.0,0.0,0.0,0.0,0.0,0.0,0.0,0.0,0.0,0.0,0.0,0.0,0.0,0.0,0.0,0.0,0.0,0.0,0.0,0.0,0.0,0.0,0.0,0.0,0.0,0.0,0.0,0.0,0.0,0.0,0.0,0.0,0.0,0.0,0.0,0.0,0.0,0.0,0.0,0.0,0.0,0.0,0.0,0.0,0.0,0.0,0.0,0.0,0.0,0.0,0.0,0.0,0.0,0.0,0.0,0.0,0.0,0.0,0.0,0.0,0.0,0.0,0.0,0.0,0.0,0.0,0.0,0.0,0.0,0.0,0.0,0.0,0.0,0.0,0.0,0.0,0.0,0.0,0.0,0.0,0.0,0.0,0.0,0.0,0.0,0.0,0.0,0.0,0.0,0.0,0.0,0.0,0.0,0.0,0.0,0.0,0.0,0.0,0.0,0.0,0.0,0.0,0.0,0.0,0.0,0.0,0.0,0.0,0.0,0.0,0.0,0.0,0.0,0.0,0.0,0.0,0.0,0.0,0.0,0.0,0.0,0.0,0.0,0.0,0.0,0.0,0.0,0.0,0.0,0.0,0.0,0.0,0.0,0.0,0.0,0.0,0.0,0.0,0.0,0.0,0.0,0.0,0.0,0.0,0.0,0.0,0.0,0.0,0.0,0.0,0.0,0.0,0.0,0.0,0.0,0.0,0.0,0.0,0.0,0.0,0.0,0.0,0.0,0.0,0.0,0.0,0.0,0.0,0.0,0.0,0.0,0.0,0.0,0.0,0.0,0.0,0.0,0.0,0.0,0.0,0.0,0.0,0.0,0.0,0.0,0.0,0.0,0.0,0.0,0.0,0.0,0.0,0.0,0.0,0.0,0.0,0.0,0.0,0.0,0.0,0.0,0.0,0.0,0.0,0.0,0.0,0.0,0.0,0.0,0.0,0.0,0.0,0.0,0.0,0.0,0.0,0.0,0.0,0.0,0.0,0.0,0.0,0.0,0.0,0.0,0.0,0.0,0.0,0.0,0.0,0.0,0.0,0.0,0.0,0.0,0.0,0.0,0.0,0.0,0.0,0.0,0.0,0.0,0.0,0.0,0.0,0.0,0.0,0.0,0.0,0.0,0.0,0.0,0.0,0.0,0.0,0.0,0.0,0.0,0.0,0.0,0.0,0.0,0.0,0.0,0.0,0.0,0.0,0.0,0.0,0.0,0.0,0.0,0.0,0.0,0.0,0.0,0.0,0.0,0.0,0.0,0.0,0.0,0.0,0.0,0.0,0.0,0.0,0.0,0.0,0.0,0.0,0.0,0.0,0.0,0.0,0.0,0.0,0.0,0.0,0.0,0.0,0.0,0.0,0.0,0.0,0.0,0.0,0.0,0.0,0.0,0.0,0.0,0.0,0.0,0.0,0.0,0.0,0.0,0.0,0.0,0.0,0.0,0.0,0.0,0.0,0.0,0.0,0.0,0.0,0.0,0.0,0.0,0.0,0.0,0.0,0.0,0.0,0.0,0.0,0.0,0.0,0.0,0.0,0.0,0.0,0.0,0.0,0.0,0.0,0.0,0.0,0.0,0.0,0.0,0.0,0.0,0.0,0.0,0.0,0.0,0.0,0.0,0.0,0.0,0.0,0.0,0.0,0.0,0.0,0.0,0.0,0.0,0.0,0.0,0.0,0.0,0.0,0.0,0.0,0.0,0.0,0.0,0.0,0.0,0.0,0.0,0.0,0.0,0.0,0.0,0.0,0.0,0.0,0.0,0.0,0.0,0.0,0.0,0.0,0.0,0.0,0.0,0.0,0.0,0.0,0.0,0.0,0.0,0.0,0.0,0.0,0.0,0.0,0.0,0.0,0.0,0.0,0.0,0.0,0.0,0.0,0.0,0.0,0.0,0.0,0.0,0.0,0.0,0.0,0.0,0.0,0.0,0.0,0.0,0.0,0.0,0.0,0.0,0.0,0.0,0.0,0.0,0.0,0.0,0.0,0.0,0.0,0.0,0.0,0.0,0.0,0.0,0.0,0.0,0.0,0.0,0.0,0.0,0.0,0.0,0.0,0.0,0.0,0.0,0.0,0.0,0.0,0.0,0.0,0.0,0.0,0.0,0.0,0.0,0.0,0.0,0.0,0.0,0.0,0.0,0.0,0.0,0.0,0.0,0.0,0.0,0.0,0.0,0.0,0.0,0.0,0.0,0.0,0.0,0.0,0.0,0.0,0.0,0.0,0.0,0.0,0.0,0.0,0.0,0.0,0.0,0.0,0.0,0.0,0.0,0.0,0.0,0.0,0.0,0.0,0.0,0.0,0.0,0.0,0.0,0.0,0.0,0.0,0.0,0.0,0.0,0.0,0.0,0.0,0.0,0.0,0.0,0.0,0.0,0.0,0.0,0.0,0.0,0.0,0.0,0.0,0.0,0.0,0.0,0.0,0.0,0.0,0.0,0.0,0.0,0.0,0.0,0.0,0.0,0.0,0.0,0.0,0.0,0.0,0.0,0.0,0.0,0.0,0.0,0.0,0.0,0.0,0.0,0.0,0.0,0.0,0.0,0.0,0.0,0.0,0.0,0.0,0.0,0.0,0.0,0.0,0.0,0.0,0.0,0.0,0.0,0.0,0.0,0.0,0.0,0.0,0.0,0.0,0.0,0.0,0.0,0.0,0.0,0.0,0.0,0.0,0.0,0.0,0.0,0.0,0.0,0.0,0.0,0.0,0.0,0.0,0.0,0.0,0.0,0.0,0.0,0.0,0.0,0.0,0.0,0.0,0.0,0.0,0.0,0.0,0.0,0.0,0.0,0.0,0.0,0.0,0.0,0.0,0.0,0.0,0.0,0.0,0.0,0.0,0.0,0.0,0.0,0.0,0.0,0.0,0.0,0.0,0.0,0.0,0.0,0.0,0.0,0.0,0.0,0.0,0.0,0.0,0.0,0.0,0.0,0.0,0.0,0.0,0.0,0.0,0.0,0.0,0.0,0.0,0.0,0.0,0.0,0.0,0.0,0.0,0.0,0.0,0.0,0.0,0.0,0.0,0.0,0.0,0.0,0.0,0.0,0.0,0.0,0.0,0.0,0.0,0.0,0.0,0.0,0.0,0.0,0.0,0.0,0.0,0.0,0.0,0.0,0.0,0.0,0.0,0.0,0.0,0.0,0.0,0.0,0.0,0.0,0.0,0.0,0.0,0.0,0.0,0.0,0.0,0.0,0.0,0.0,0.0,0.0,0.0,0.0,0.0,0.0,0.0,0.0,0.0,0.0,0.0,0.0,0.0,0.0,0.0,0.0,0.0,0.0,0.0,0.0,0.0,0.0,0.0,0.0,0.0,0.0,0.0,0.0,0.0,0.0,0.0,0.0,0.0,0.0,0.0,0.0,0.0,0.0,0.0,0.0,0.0,0.0,0.0,0.0,0.0,0.0,0.0,0.0,0.0,0.0,0.0,0.0,0.0,0.0,0.0,0.0,0.0,0.0,0.0,0.0,0.0,0.0,0.0,0.0,0.0,0.0,0.0,0.0,0.0,0.0,0.0,0.0,0.0,0.0,0.0,0.0,0.0,0.0,0.0,0.0,0.0,0.0,0.0,0.0,0.0,0.0,0.0,0.0,0.0,0.0,0.0,0.0,0.0,0.0,0.0,0.0,0.0,0.0,0.0,0.0,0.0,0.0,0.0,0.0,0.0,0.0,0.0,0.0,0.0,0.0,0.0,0.0,0.0,0.0,0.0,0.0,0.0,0.0,0.0,-2.0627,0.0,0.0,0.0,0.0,0.0,0.0,0.0,0.0,0.0,0.0,0.0,0.0,0.0,0.0,0.0,0.0,0.0,0.0,0.0,0.0,0.0,0.0,0.0,0.0,0.0,0.0,0.0,0.0,0.0,0.0,0.0,0.0,0.0,0.0,0.0,0.0,0.0,0.0,0.0,0.0,0.0,0.0,0.0,0.0,0.0,0.0,0.0,0.0,0.0,0.0,0.0,0.0,0.0,0.0,0.0,0.0,0.0,0.0,0.0,0.0,0.0,0.0,0.0,0.0,0.0,0.0,0.0,0.0,0.0,0.0,0.0,0.0,0.0,0.0,0.0,0.0,0.0,0.0,0.0,0.0,0.0,0.0,0.0,0.0,0.0,0.0,0.0,0.0,0.0,0.0,0.0,0.0,0.0,0.0,0.0,0.0,0.0,0.0,0.0,0.0,0.0,0.0,0.0,0.0,0.0,0.0,0.0,0.0,0.0,0.0,-2.2495,-2.2243,-2.1744,-2.117,-2.059,0.0,0.0,0.0,0.0,0.0,0.0,0.0,0.0,0.0,0.0,0.0,0.0,0.0,0.0,0.0,0.0,0.0,0.0,0.0,0.0,0.0,0.0,0.0,0.0,0.0,0.0,0.0,0.0,0.0,0.0,0.0,0.0,0.0,0.0,0.0,0.0,0.0,0.0,0.0,0.0,0.0,0.0,0.0,0.0,0.0,0.0,0.0,0.0,0.0,0.0,0.0,0.0,0.0,0.0,0.0,0.0,0.0,0.0,0.0,0.0,0.0,0.0,0.0,0.0,0.0,0.0,0.0,0.0,0.0,0.0,0.0,0.0,0.0,0.0,0.0,0.0,0.0,0.0,0.0,0.0,0.0,0.0,0.0,0.0,0.0,0.0,0.0,0.0,0.0,0.0,0.0,0.0,0.0,0.0,0.0,0.0,0.0,0.0,0.0,0.0,0.0,0.0,0.0,0.0,0.0,0.0,0.0,0.0,0.0,0.0,0.0,0.0,-2.1218,-2.1134,-2.0558,0.0,0.0,0.0,0.0,0.0,0.0,0.0,0.0,0.0,0.0,0.0,0.0,0.0,0.0,0.0,0.0,0.0,0.0,0.0,0.0,0.0,0.0,0.0,0.0,0.0,0.0,0.0,0.0,0.0,0.0,0.0,0.0,0.0,0.0,0.0,0.0,0.0,0.0,0.0,0.0,0.0,0.0,0.0,0.0,0.0,0.0,0.0,0.0,0.0,0.0,0.0,0.0,0.0,0.0,0.0,0.0,0.0,0.0,0.0,0.0,0.0,0.0,0.0,0.0,0.0,0.0,0.0,0.0,0.0,0.0,0.0,0.0,0.0,0.0,0.0,0.0,0.0,0.0,0.0,0.0,0.0,0.0,0.0,0.0,0.0,0.0,0.0,0.0,0.0,0.0,0.0,0.0,0.0,0.0,0.0,0.0,0.0,0.0,0.0,0.0,0.0,0.0,0.0,0.0,0.0,0.0,0.0,0.0,0.0,0.0,-1.9929,-2.0034,-2.0811,0.0,-2.0528,0.0,0.0,0.0,0.0,0.0,0.0,0.0,0.0,0.0,0.0,0.0,0.0,0.0,0.0,0.0,0.0,0.0,0.0,0.0,0.0,0.0,0.0,0.0,0.0,0.0,0.0,0.0,0.0,0.0,0.0,0.0,0.0,0.0,0.0,0.0,0.0,0.0,0.0,0.0,0.0,0.0,0.0,0.0,0.0,0.0,0.0,0.0,0.0,0.0,0.0,0.0,0.0,0.0,0.0,0.0,0.0,0.0,0.0,0.0,0.0,0.0,0.0,0.0,0.0,0.0,0.0,0.0,0.0,0.0,0.0,0.0,0.0,0.0,0.0,0.0,0.0,0.0,0.0,0.0,0.0,0.0,0.0,0.0,0.0,0.0,0.0,0.0,0.0,0.0,0.0,0.0,0.0,0.0,0.0,0.0,0.0,0.0,0.0,0.0,0.0,0.0,0.0,0.0,0.0,0.0,0.0,0.0,0.0,0.0,0.0,-1.923,-1.9785,-2.0655,-2.1103,0.0,0.0,0.0,0.0,0.0,0.0,0.0,0.0,0.0,0.0,0.0,0.0,0.0,0.0,0.0,0.0,0.0,0.0,0.0,0.0,0.0,0.0,0.0,0.0,0.0,0.0,0.0,0.0,0.0,0.0,0.0,0.0,0.0,0.0,0.0,0.0,0.0,0.0,0.0,0.0,0.0,0.0,0.0,0.0,0.0,0.0,0.0,0.0,0.0,0.0,0.0,0.0,0.0,0.0,0.0,0.0,0.0,0.0,0.0,0.0,0.0,0.0,0.0,0.0,0.0,0.0,0.0,0.0,0.0,0.0,0.0,0.0,0.0,0.0,0.0,0.0,0.0,0.0,0.0,0.0,0.0,0.0,0.0,0.0,0.0,0.0,0.0,0.0,0.0,0.0,0.0,0.0,0.0,0.0,0.0,0.0,0.0,0.0,0.0,0.0,0.0,0.0,0.0,0.0,0.0,0.0,0.0,0.0,0.0,0.0,-1.7642,0.0,-1.9632,-1.997,-2.0398,-2.0986,0.0,0.0,0.0,0.0,0.0,0.0,0.0,0.0,0.0,0.0,0.0,0.0,0.0,0.0,0.0,0.0,0.0,0.0,0.0,0.0,0.0,0.0,0.0,0.0,0.0,0.0,0.0,0.0,0.0,0.0,0.0,0.0,0.0,0.0,0.0,0.0,0.0,0.0,0.0,0.0,0.0,0.0,0.0,0.0,0.0,0.0,0.0,0.0,0.0,0.0,0.0,0.0,0.0,0.0,0.0,0.0,0.0,0.0,0.0,0.0,0.0,0.0,0.0,0.0,0.0,0.0,0.0,0.0,0.0,0.0,0.0,0.0,0.0,0.0,0.0,0.0,0.0,0.0,0.0,0.0,0.0,0.0,0.0,0.0,0.0,0.0,0.0,0.0,0.0,0.0,0.0,0.0,0.0,0.0,0.0,0.0,0.0,0.0,0.0,0.0,0.0,0.0,0.0,0.0,0.0,0.0,0.0,0.0,0.0,-1.5606,-1.6642,-1.955,-1.8391,-1.8413,0.0,0.0,0.0,0.0,0.0,0.0,0.0,0.0,0.0,0.0,0.0,0.0,0.0,0.0,0.0,0.0,0.0,0.0,0.0,0.0,0.0,0.0,0.0,0.0,0.0,0.0,0.0,0.0,0.0,0.0,0.0,0.0,0.0,0.0,0.0,0.0,0.0,0.0,0.0,0.0,0.0,0.0,0.0,0.0,0.0,0.0,0.0,0.0,0.0,0.0,0.0,0.0,0.0,0.0,0.0,0.0,0.0,0.0,0.0,0.0,0.0,0.0,0.0,0.0,0.0,0.0,0.0,0.0,0.0,0.0,0.0,0.0,0.0,0.0,0.0,0.0,0.0,0.0,0.0,0.0,0.0,0.0,0.0,0.0,0.0,0.0,0.0,0.0,0.0,0.0,0.0,0.0,0.0,0.0,0.0,0.0,0.0,0.0,0.0,0.0,0.0,0.0,0.0,0.0,0.0,0.0,0.0,0.0,0.0,-1.5483,-1.6607,-1.7766,-1.8876,-1.9371,-1.9719,0.0,0.0,0.0,0.0,0.0,0.0,0.0,0.0,0.0,0.0,0.0,0.0,0.0,0.0,0.0,0.0,0.0,0.0,0.0,0.0,0.0,0.0,0.0,0.0,0.0,0.0,0.0,0.0,0.0,0.0,0.0,0.0,0.0,0.0,0.0,0.0,0.0,0.0,0.0,0.0,0.0,0.0,0.0,0.0,0.0,0.0,0.0,0.0,0.0,0.0,0.0,0.0,0.0,0.0,0.0,0.0,0.0,0.0,0.0,0.0,0.0,0.0,0.0,0.0,0.0,0.0,0.0,0.0,0.0,0.0,0.0,0.0,0.0,0.0,0.0,0.0,0.0,0.0,0.0,0.0,0.0,0.0,0.0,0.0,0.0,0.0,0.0,0.0,0.0,0.0,0.0,0.0,0.0,0.0,0.0,0.0,0.0,0.0,0.0,0.0,0.0,0.0,0.0,0.0,0.0,0.0,0.0,0.0,0.0,-1.5815,0.0,-1.8297,0.0,-1.9606,-1.997,0.0,0.0,0.0,0.0,0.0,0.0,0.0,0.0,0.0,0.0,0.0,0.0,0.0,0.0,0.0,0.0,0.0,0.0,0.0,0.0,0.0,0.0,0.0,0.0,0.0,0.0,0.0,0.0,0.0,0.0,0.0,0.0,0.0,0.0,0.0,0.0,0.0,0.0,0.0,0.0,0.0,0.0,0.0,0.0,0.0,0.0,0.0,0.0,0.0,0.0,0.0,0.0,0.0,0.0,0.0,0.0,0.0,0.0,0.0,0.0,0.0,0.0,0.0,0.0,0.0,0.0,0.0,0.0,0.0,0.0,0.0,0.0,0.0,0.0,0.0,0.0,0.0,0.0,0.0,0.0,0.0,0.0,0.0,0.0,0.0,0.0,0.0,0.0,0.0,0.0,0.0,0.0,0.0,0.0,0.0,0.0,0.0,0.0,0.0,0.0,0.0,0.0,0.0,0.0,0.0,0.0,0.0,0.0,-1.5868,-1.7294,-1.7524,-1.8039,-1.8678,-1.8841,-1.8896,0.0,0.0,0.0,0.0,0.0,0.0,0.0,0.0,0.0,0.0,0.0,0.0,0.0,0.0,0.0,0.0,0.0,0.0,0.0,0.0,0.0,0.0,0.0,0.0,0.0,0.0,0.0,0.0,0.0,0.0,0.0,0.0,0.0,0.0,0.0,0.0,0.0,0.0,0.0,0.0,0.0,0.0,0.0,0.0,0.0,0.0,0.0,0.0,0.0,0.0,0.0,0.0,0.0,0.0,0.0,0.0,0.0,0.0,0.0,0.0,0.0,0.0,0.0,0.0,0.0,0.0,0.0,0.0,0.0,0.0,0.0,0.0,0.0,0.0,0.0,0.0,0.0,0.0,0.0,0.0,0.0,0.0,0.0,0.0,0.0,0.0,0.0,0.0,0.0,0.0,0.0,0.0,0.0,0.0,0.0,0.0,0.0,0.0,0.0,0.0,0.0,0.0,0.0,0.0,0.0,0.0,0.0,0.0,0.0,-1.7524,-1.9107,-1.961,-1.8896,-1.9489,-1.9578,0.0,0.0,0.0,0.0,0.0,0.0,0.0,0.0,0.0,0.0,0.0,0.0,0.0,0.0,0.0,0.0,0.0,0.0,0.0,0.0,0.0,0.0,0.0,0.0,0.0,0.0,0.0,0.0,0.0,0.0,0.0,0.0,0.0,0.0,0.0,0.0,0.0,0.0,0.0,0.0,0.0,0.0,0.0,0.0,0.0,0.0,0.0,0.0,0.0,0.0,0.0,0.0,0.0,0.0,0.0,0.0,0.0,0.0,0.0,0.0,0.0,0.0,0.0,0.0,0.0,0.0,0.0,0.0,0.0,0.0,0.0,0.0,0.0,0.0,0.0,0.0,0.0,0.0,0.0,0.0,0.0,0.0,0.0,0.0,0.0,0.0,0.0,0.0,0.0,0.0,0.0,0.0,0.0,0.0,0.0,0.0,0.0,0.0,0.0,0.0,0.0,0.0,0.0,0.0,0.0,0.0,0.0,0.0,0.0,-2.2291,-2.2941,-2.2787,-2.1596,-2.1388,-2.0588,-1.9186,0.0,0.0,0.0,0.0,0.0,0.0,0.0,0.0,0.0,0.0,0.0,0.0,0.0,0.0,0.0,0.0,0.0,0.0,0.0,0.0,0.0,0.0,0.0,0.0,0.0,0.0,0.0,0.0,0.0,0.0,0.0,0.0,0.0,0.0,0.0,0.0,0.0,0.0,0.0,0.0,0.0,0.0,0.0,0.0,0.0,0.0,0.0,0.0,0.0,0.0,0.0,0.0,0.0,0.0,0.0,0.0,0.0,0.0,0.0,0.0,0.0,0.0,0.0,0.0,0.0,0.0,0.0,0.0,0.0,0.0,0.0,0.0,0.0,0.0,0.0,0.0,0.0,0.0,0.0,0.0,0.0,0.0,0.0,0.0,0.0,0.0,0.0,0.0,0.0,0.0,0.0,0.0,0.0,0.0,0.0,0.0,0.0,0.0,0.0,0.0,0.0,0.0,0.0,0.0,0.0,0.0,0.0,0.0,-3.0486,-2.8841,-2.7474,-2.6339,-2.4247,-2.1917,0.0,0.0,0.0,0.0,0.0,0.0,0.0,0.0,0.0,0.0,0.0,0.0,0.0,0.0,0.0,0.0,0.0,0.0,0.0,0.0,0.0,0.0,0.0,0.0,0.0,0.0,0.0,0.0,0.0,0.0,0.0,0.0,0.0,0.0,0.0,0.0,0.0,0.0,0.0,0.0,0.0,0.0,0.0,0.0,0.0,0.0,0.0,0.0,0.0,0.0,0.0,0.0,0.0,0.0,0.0,0.0,0.0,0.0,0.0,0.0,0.0,0.0,0.0,0.0,0.0,0.0,0.0,0.0,0.0,0.0,0.0,0.0,0.0,0.0,0.0,0.0,0.0,0.0,0.0,0.0,0.0,0.0,0.0,0.0,0.0,0.0,0.0,0.0,0.0,0.0,0.0,0.0,0.0,0.0,0.0,0.0,0.0,0.0,0.0,0.0,0.0,0.0,0.0,0.0,0.0,0.0,0.0,0.0,0.0,-3.4604,-3.7113,-3.557,-2.9782,-2.6908,-2.4346,0.0,0.0,0.0,0.0,0.0,0.0,0.0,0.0,0.0,0.0,0.0,0.0,0.0,0.0,0.0,0.0,0.0,0.0,0.0,0.0,0.0,0.0,0.0,0.0,0.0,0.0,0.0,0.0,0.0,0.0,0.0,0.0,0.0,0.0,0.0,0.0,0.0,0.0,0.0,0.0,0.0,0.0,0.0,0.0,0.0,0.0,0.0,0.0,0.0,0.0,0.0,0.0,0.0,0.0,0.0,0.0,0.0,0.0,0.0,0.0,0.0,0.0,0.0,0.0,0.0,0.0,0.0,0.0,0.0,0.0,0.0,0.0,0.0,0.0,0.0,0.0,0.0,0.0,0.0,0.0,0.0,0.0,0.0,0.0,0.0,0.0,0.0,0.0,0.0,0.0,0.0,0.0,0.0,0.0,0.0,0.0,0.0,0.0,0.0,0.0,0.0,0.0,0.0,0.0,0.0,0.0,0.0,0.0,-3.4163,-3.8363,-4.1958,-4.1088,-3.528,-3.1066,-2.7086,0.0,0.0,0.0,0.0,0.0,0.0,0.0,0.0,0.0,0.0,0.0,0.0,0.0,0.0,0.0,0.0,0.0,0.0,0.0,0.0,0.0,0.0,0.0,0.0,0.0,0.0,0.0,0.0,0.0,0.0,0.0,0.0,0.0,0.0,0.0,0.0,0.0,0.0,0.0,0.0,0.0,0.0,0.0,0.0,0.0,0.0,0.0,0.0,0.0,0.0,0.0,0.0,0.0,0.0,0.0,0.0,0.0,0.0,0.0,0.0,0.0,0.0,0.0,0.0,0.0,0.0,0.0,0.0,0.0,0.0,0.0,0.0,0.0,0.0,0.0,0.0,0.0,0.0,0.0,0.0,0.0,0.0,0.0,0.0,0.0,0.0,0.0,0.0,0.0,0.0,0.0,0.0,0.0,0.0,0.0,0.0,0.0,0.0,0.0,0.0,0.0,0.0,0.0,0.0,0.0,0.0,0.0,0.0,-3.7034,-4.1528,-4.4635,-4.4724,-4.1486,-3.566,-2.9952,0.0,0.0,0.0,0.0,0.0,0.0,0.0,0.0,0.0,0.0,0.0,0.0,0.0,0.0,0.0,0.0,0.0,0.0,0.0,0.0,0.0,0.0,0.0,0.0,0.0,0.0,0.0,0.0,0.0,0.0,0.0,0.0,0.0,0.0,0.0,0.0,0.0,0.0,0.0,0.0,0.0,0.0,0.0,0.0,0.0,0.0,0.0,0.0,0.0,0.0,0.0,0.0,0.0,0.0,0.0,0.0,0.0,0.0,0.0,0.0,0.0,0.0,0.0,0.0,0.0,0.0,0.0,0.0,0.0,0.0,0.0,0.0,0.0,0.0,0.0,0.0,0.0,0.0,0.0,0.0,0.0,0.0,0.0,0.0,0.0,0.0,0.0,0.0,0.0,0.0,0.0,0.0,0.0,0.0,0.0,0.0,0.0,0.0,0.0,0.0,0.0,0.0,0.0,0.0,0.0,0.0,0.0,0.0,-4.0055,-4.3459,-4.7217,-4.7337,-4.3466,-3.7578,-3.2215,0.0,0.0,0.0,0.0,0.0,0.0,0.0,0.0,0.0,0.0,0.0,0.0,0.0,0.0,0.0,0.0,0.0,0.0,0.0,0.0,0.0,0.0,0.0,0.0,0.0,0.0,0.0,0.0,0.0,0.0,0.0,0.0,0.0,0.0,0.0,0.0,0.0,0.0,0.0,0.0,0.0,0.0,0.0,0.0,0.0,0.0,0.0,0.0,-1.7689,0.0,0.0,0.0,0.0,0.0,0.0,0.0,0.0,0.0,0.0,0.0,0.0,0.0,0.0,0.0,0.0,0.0,0.0,0.0,0.0,0.0,0.0,0.0,0.0,0.0,0.0,0.0,0.0,0.0,0.0,0.0,0.0,0.0,0.0,0.0,0.0,0.0,0.0,0.0,0.0,0.0,0.0,0.0,0.0,0.0,0.0,0.0,0.0,0.0,0.0,0.0,0.0,0.0,0.0,0.0,0.0,0.0,0.0,0.0,-4.2789,-4.5589,-4.909,-4.9177,-4.5451,-4.1051,-3.5654,0.0,0.0,0.0,0.0,0.0,0.0,0.0,0.0,0.0,0.0,0.0,0.0,0.0,0.0,0.0,0.0,0.0,0.0,0.0,0.0,0.0,0.0,0.0,0.0,0.0,0.0,0.0,0.0,0.0,0.0,0.0,0.0,0.0,0.0,0.0,0.0,0.0,0.0,0.0,0.0,0.0,0.0,0.0,0.0,0.0,0.0,0.0,0.0,0.0,0.0,0.0,0.0,0.0,0.0,0.0,0.0,0.0,0.0,0.0,0.0,0.0,0.0,0.0,0.0,0.0,0.0,0.0,0.0,0.0,0.0,0.0,0.0,0.0,0.0,0.0,0.0,0.0,0.0,0.0,0.0,0.0,0.0,0.0,0.0,0.0,0.0,0.0,0.0,0.0,0.0,0.0,0.0,0.0,0.0,0.0,0.0,0.0,0.0,0.0,0.0,0.0,0.0,0.0,0.0,0.0,0.0,0.0,-4.0693,-4.5266,-4.7684,-5.048,-5.0383,-4.7112,-4.4163,-3.8728,-3.0514,0.0,0.0,0.0,0.0,0.0,0.0,0.0,0.0,0.0,0.0,0.0,0.0,0.0,0.0,0.0,0.0,0.0,0.0,0.0,0.0,0.0,0.0,0.0,0.0,0.0,0.0,0.0,0.0,0.0,0.0,0.0,0.0,0.0,0.0,0.0,0.0,0.0,0.0,-1.3335,-1.676,0.0,0.0,0.0,0.0,0.0,0.0,0.0,0.0,-1.8037,0.0,0.0,0.0,0.0,0.0,0.0,0.0,0.0,0.0,0.0,0.0,0.0,0.0,0.0,0.0,0.0,0.0,0.0,0.0,0.0,0.0,0.0,0.0,0.0,0.0,0.0,0.0,0.0,0.0,0.0,0.0,0.0,0.0,0.0,0.0,0.0,0.0,0.0,0.0,0.0,0.0,0.0,0.0,0.0,0.0,0.0,0.0,0.0,0.0,0.0,0.0,0.0,0.0,0.0,0.0,0.0,-3.6703,-4.2742,-4.7034,-4.9418,-5.1283,-5.0634,-4.7334,-4.3442,-3.8449,-3.2256,0.0,0.0,0.0,0.0,0.0,0.0,0.0,0.0,0.0,0.0,0.0,0.0,0.0,0.0,0.0,0.0,0.0,0.0,0.0,0.0,0.0,0.0,0.0,0.0,0.0,0.0,0.0,0.0,0.0,0.0,0.0,0.0,0.0,0.0,0.0,0.0,0.0,0.0,0.0,-1.8319,-2.0465,0.0,0.0,0.0,0.0,0.0,0.0,0.0,0.0,-1.7965,0.0,0.0,0.0,0.0,0.0,0.0,0.0,0.0,0.0,0.0,0.0,0.0,0.0,0.0,0.0,0.0,0.0,0.0,0.0,0.0,0.0,0.0,0.0,0.0,0.0,0.0,0.0,0.0,0.0,0.0,0.0,0.0,0.0,0.0,0.0,0.0,0.0,0.0,0.0,0.0,0.0,0.0,0.0,0.0,0.0,0.0,0.0,0.0,0.0,0.0,0.0,0.0,0.0,0.0,0.0,-3.9307,-4.4831,-4.8841,-5.125,-5.2434,-5.1656,-4.8716,-4.4254,-3.913,0.0,0.0,0.0,0.0,0.0,0.0,0.0,0.0,0.0,0.0,0.0,0.0,0.0,0.0,0.0,0.0,0.0,0.0,0.0,0.0,0.0,0.0,0.0,0.0,0.0,0.0,0.0,0.0,0.0,0.0,0.0,0.0,0.0,0.0,0.0,0.0,0.0,0.0,0.0,0.0,-2.1968,-2.3711,-2.4147,0.0,0.0,0.0,0.0,0.0,0.0,-1.8165,-1.7995,0.0,0.0,0.0,0.0,0.0,0.0,0.0,0.0,0.0,0.0,0.0,0.0,0.0,0.0,0.0,0.0,0.0,0.0,0.0,0.0,0.0,0.0,0.0,0.0,0.0,0.0,0.0,0.0,0.0,0.0,0.0,0.0,0.0,0.0,0.0,0.0,0.0,0.0,0.0,0.0,0.0,0.0,0.0,0.0,0.0,0.0,0.0,0.0,0.0,0.0,0.0,0.0,0.0,0.0,0.0,-4.1182,-4.6468,-5.0265,-5.2512,-5.3326,-5.2436,-4.9767,-4.4924,-3.9601,0.0,0.0,0.0,0.0,0.0,0.0,0.0,0.0,0.0,0.0,0.0,0.0,0.0,0.0,0.0,0.0,0.0,0.0,0.0,0.0,0.0,0.0,0.0,0.0,0.0,0.0,0.0,0.0,0.0,0.0,0.0,0.0,0.0,0.0,0.0,0.0,0.0,0.0,0.0,0.0,0.0,-2.6862,-2.6842,-2.6015,0.0,0.0,0.0,0.0,-2.0427,-1.9716,0.0,0.0,0.0,0.0,0.0,0.0,0.0,0.0,0.0,0.0,0.0,0.0,0.0,0.0,0.0,0.0,0.0,0.0,0.0,0.0,0.0,0.0,0.0,0.0,0.0,0.0,0.0,0.0,0.0,0.0,0.0,0.0,0.0,0.0,0.0,0.0,0.0,0.0,0.0,0.0,0.0,0.0,0.0,0.0,0.0,0.0,0.0,0.0,0.0,0.0,0.0,0.0,0.0,0.0,0.0,0.0,-4.1415,-4.7129,-5.0896,-5.2531,-5.3308,-5.2176,-4.8972,-4.4073,-3.8752,0.0,0.0,0.0,0.0,0.0,0.0,0.0,0.0,0.0,0.0,0.0,0.0,0.0,0.0,0.0,0.0,0.0,0.0,0.0,0.0,0.0,0.0,0.0,0.0,0.0,0.0,0.0,0.0,0.0,0.0,0.0,0.0,0.0,0.0,0.0,0.0,0.0,0.0,0.0,0.0,0.0,-2.7749,-2.7757,-2.8856,-2.8559,0.0,0.0,-2.3706,-2.1772,-2.2528,0.0,0.0,0.0,0.0,0.0,0.0,0.0,0.0,0.0,0.0,0.0,0.0,0.0,0.0,0.0,0.0,0.0,0.0,0.0,0.0,0.0,0.0,0.0,0.0,0.0,0.0,0.0,0.0,0.0,0.0,0.0,0.0,0.0,0.0,0.0,0.0,0.0,0.0,0.0,0.0,0.0,0.0,0.0,0.0,0.0,0.0,0.0,0.0,0.0,0.0,0.0,0.0,0.0,0.0,0.0,-3.6003,-4.2173,-4.7961,-5.1658,-5.3218,-5.3549,-5.2343,-4.9564,-4.5057,-3.9773,0.0,0.0,0.0,0.0,0.0,0.0,0.0,0.0,0.0,0.0,0.0,0.0,0.0,0.0,0.0,0.0,0.0,0.0,0.0,0.0,0.0,0.0,0.0,0.0,0.0,0.0,0.0,0.0,0.0,0.0,0.0,0.0,0.0,0.0,0.0,0.0,0.0,0.0,0.0,0.0,0.0,0.0,-3.0056,-3.1075,0.0,0.0,0.0,-2.6573,-2.6006,0.0,0.0,0.0,0.0,0.0,0.0,0.0,0.0,0.0,0.0,0.0,0.0,0.0,0.0,0.0,0.0,0.0,0.0,0.0,0.0,0.0,0.0,0.0,0.0,0.0,0.0,0.0,0.0,0.0,0.0,0.0,0.0,0.0,0.0,0.0,0.0,0.0,0.0,0.0,0.0,0.0,0.0,0.0,0.0,0.0,0.0,0.0,0.0,0.0,0.0,0.0,0.0,0.0,0.0,0.0,0.0,0.0,-4.2742,-4.8667,-5.2364,-5.3738,-5.3734,-5.251,-5.0046,-4.5909,0.0,0.0,0.0,0.0,0.0,0.0,0.0,0.0,0.0,0.0,0.0,0.0,0.0,0.0,0.0,0.0,0.0,0.0,0.0,0.0,0.0,0.0,0.0,0.0,0.0,0.0,0.0,-1.2945,0.0,0.0,0.0,0.0,0.0,0.0,0.0,0.0,0.0,0.0,0.0,0.0,0.0,0.0,-3.2115,-3.2324,-3.3412,-3.3608,0.0,0.0,-2.9905,-3.0109,-3.0141,-2.9149,0.0,0.0,0.0,0.0,0.0,0.0,0.0,0.0,0.0,0.0,0.0,0.0,0.0,0.0,0.0,0.0,0.0,0.0,0.0,0.0,0.0,0.0,0.0,0.0,0.0,0.0,0.0,0.0,0.0,0.0,0.0,0.0,0.0,0.0,0.0,0.0,0.0,0.0,0.0,0.0,0.0,0.0,0.0,0.0,0.0,0.0,0.0,0.0,0.0,0.0,0.0,0.0,0.0,0.0,0.0,-4.2779,-4.9206,-5.2921,-5.3775,-5.3734,-5.2528,-5.0009,-4.5928,-4.1064,0.0,0.0,0.0,0.0,0.0,0.0,0.0,0.0,0.0,0.0,0.0,0.0,0.0,0.0,0.0,0.0,0.0,0.0,0.0,0.0,0.0,0.0,0.0,0.0,0.0,0.0,0.0,0.0,0.0,0.0,0.0,0.0,0.0,0.0,0.0,0.0,0.0,0.0,0.0,0.0,0.0,-3.3198,-3.4021,-3.6207,-3.7146,0.0,0.0,-3.4562,-3.2987,-3.2756,-3.1337,-2.72,0.0,0.0,0.0,0.0,0.0,0.0,0.0,0.0,0.0,0.0,0.0,0.0,0.0,0.0,0.0,0.0,0.0,0.0,0.0,0.0,0.0,0.0,0.0,0.0,0.0,0.0,0.0,0.0,0.0,0.0,0.0,0.0,0.0,0.0,0.0,0.0,0.0,0.0,0.0,0.0,0.0,0.0,0.0,0.0,0.0,0.0,0.0,0.0,0.0,0.0,0.0,0.0,0.0,-3.6809,-4.3466,-4.9432,-5.2622,-5.2938,-5.2917,-5.175,-4.9305,-4.6681,-4.2427,0.0,0.0,0.0,0.0,0.0,0.0,0.0,0.0,0.0,0.0,0.0,0.0,0.0,0.0,0.0,0.0,0.0,0.0,0.0,0.0,0.0,0.0,0.0,0.0,0.0,0.0,0.0,0.0,-1.3073,-1.3648,-1.2697,0.0,0.0,0.0,0.0,0.0,0.0,0.0,0.0,0.0,0.0,-3.4406,-3.5785,-3.8188,0.0,0.0,-3.886,-3.8452,-3.7198,-3.611,-3.3959,-2.9688,-2.5735,0.0,0.0,0.0,0.0,0.0,0.0,0.0,0.0,0.0,0.0,0.0,0.0,0.0,0.0,0.0,0.0,0.0,0.0,0.0,0.0,0.0,0.0,0.0,0.0,0.0,0.0,0.0,0.0,0.0,0.0,0.0,0.0,0.0,0.0,0.0,0.0,0.0,0.0,0.0,0.0,0.0,0.0,0.0,0.0,0.0,0.0,0.0,0.0,0.0,0.0,0.0,0.0,-3.6883,-4.3949,-4.9545,-5.2417,-5.2437,-5.2417,-5.1139,-4.8561,-4.6873,-4.3083,0.0,0.0,0.0,0.0,0.0,0.0,0.0,0.0,0.0,0.0,0.0,0.0,0.0,0.0,0.0,0.0,0.0,0.0,0.0,0.0,0.0,0.0,0.0,0.0,0.0,0.0,0.0,0.0,-1.3799,-1.4167,-1.4442,0.0,0.0,0.0,0.0,0.0,0.0,0.0,0.0,0.0,0.0,-3.4549,-3.6732,-3.9241,-4.0896,-4.089,-4.1116,-4.0799,-3.9355,-3.7878,-3.5444,-3.1207,0.0,0.0,0.0,0.0,0.0,0.0,0.0,0.0,0.0,0.0,0.0,0.0,0.0,0.0,0.0,0.0,0.0,0.0,0.0,0.0,0.0,0.0,0.0,0.0,0.0,0.0,0.0,-1.8159,0.0,0.0,-1.854,0.0,0.0,0.0,0.0,0.0,0.0,0.0,0.0,0.0,0.0,0.0,0.0,0.0,0.0,0.0,0.0,0.0,0.0,0.0,0.0,0.0,0.0,-3.7403,-4.3931,-4.9508,-5.2437,-5.2568,-5.2474,-5.0953,-4.7951,-4.6201,-4.2704,-3.7055,0.0,0.0,0.0,0.0,0.0,0.0,0.0,0.0,0.0,0.0,0.0,0.0,0.0,0.0,0.0,0.0,0.0,0.0,0.0,0.0,0.0,0.0,0.0,0.0,0.0,0.0,-1.5293,-1.4565,-1.4481,0.0,0.0,0.0,0.0,0.0,0.0,0.0,0.0,0.0,0.0,-2.9347,-3.3288,-3.6644,-3.9286,-4.0941,-4.0926,-4.1626,-4.1299,-3.8762,-3.7531,-3.5484,0.0,0.0,0.0,0.0,0.0,0.0,0.0,0.0,0.0,0.0,0.0,0.0,0.0,0.0,0.0,0.0,0.0,0.0,0.0,0.0,0.0,0.0,0.0,0.0,0.0,0.0,0.0,-2.2746,-2.2556,0.0,0.0,0.0,0.0,0.0,0.0,0.0,0.0,0.0,0.0,0.0,-3.6991,-3.8401,0.0,0.0,0.0,0.0,0.0,0.0,0.0,0.0,0.0,0.0,0.0,0.0,-3.6642,-4.3113,-4.8748,-5.1621,-5.1658,-5.2139,-5.1195,-4.8639,-4.6601,-4.1852,-3.4167,0.0,0.0,0.0,0.0,0.0,0.0,0.0,0.0,0.0,0.0,0.0,0.0,0.0,0.0,0.0,0.0,0.0,0.0,0.0,0.0,0.0,0.0,0.0,0.0,0.0,-1.5197,0.0,0.0,0.0,0.0,0.0,0.0,0.0,0.0,0.0,0.0,0.0,-2.2257,-2.6799,-3.0593,-3.3968,-3.6844,-3.9895,-4.1889,0.0,0.0,0.0,0.0,0.0,0.0,0.0,0.0,0.0,0.0,0.0,0.0,0.0,0.0,-2.6398,-2.3556,-2.3012,-2.2488,-2.076,0.0,0.0,0.0,0.0,0.0,0.0,0.0,0.0,0.0,0.0,0.0,0.0,0.0,0.0,-2.7747,0.0,-2.5052,0.0,0.0,0.0,0.0,0.0,0.0,0.0,0.0,-3.9058,-4.158,-4.3263,-4.4911,-4.5681,0.0,-4.5825,-4.241,0.0,0.0,0.0,0.0,0.0,0.0,0.0,0.0,-3.6912,-4.2843,-4.8475,-5.1396,-5.1469,-5.2214,-5.1542,-4.9295,-4.5904,-4.0877,-3.4046,-2.9528,-2.5944,0.0,0.0,0.0,0.0,0.0,0.0,0.0,0.0,0.0,0.0,0.0,0.0,0.0,0.0,0.0,0.0,0.0,0.0,0.0,0.0,0.0,0.0,0.0,-1.5939,0.0,0.0,0.0,0.0,0.0,0.0,0.0,0.0,0.0,-1.9441,-2.1608,-2.4594,-2.8264,-3.1426,-3.4354,-3.6931,0.0,0.0,0.0,0.0,0.0,0.0,0.0,-3.6851,-3.6001,-3.6075,-3.5939,-3.4865,-3.3725,-3.2389,-3.0637,0.0,0.0,-2.6708,-2.6061,-2.5556,-2.3834,-2.3736,-2.3581,-2.2488,-2.274,-2.3226,0.0,0.0,0.0,0.0,0.0,0.0,0.0,0.0,-3.4542,-3.3214,0.0,-2.9562,0.0,0.0,0.0,0.0,0.0,-3.1458,0.0,0.0,-4.4654,-4.8122,-4.9719,-5.1261,-5.205,-5.2128,-5.2183,-5.0175,-4.6057,-3.9238,0.0,0.0,0.0,0.0,0.0,0.0,-3.8178,-4.31,-4.8796,-5.179,-5.1968,-5.269,-5.1987,-4.9702,-4.4455,-4.0043,-3.6714,-3.3264,-2.9508,-2.5386,-2.4208,0.0,0.0,0.0,0.0,0.0,0.0,0.0,0.0,0.0,0.0,0.0,0.0,0.0,0.0,0.0,0.0,0.0,0.0,0.0,0.0,-1.6895,0.0,0.0,0.0,0.0,0.0,0.0,0.0,0.0,0.0,0.0,-2.2387,-2.4399,-2.6859,-2.9457,0.0,0.0,0.0,0.0,-4.1557,-4.2396,-4.3196,-4.315,-4.1501,-4.0442,-3.9551,-3.8765,0.0,0.0,-3.9867,-3.8512,-3.6779,-3.4936,-3.3324,-3.1603,-2.9777,-2.9331,-2.8787,-2.7252,-2.7466,-2.7557,-2.6281,-2.6799,-2.7621,-4.246,0.0,0.0,0.0,0.0,-3.9577,-4.1561,-4.3026,-4.1202,-3.9822,-3.8695,-3.5832,0.0,0.0,0.0,0.0,0.0,0.0,-4.0855,-4.4856,-4.8765,-5.1463,-5.3041,-5.4087,-5.4589,-5.4675,-5.423,-5.2874,-5.0509,-4.6839,-4.1219,-3.3794,0.0,0.0,0.0,0.0,-3.8898,-4.346,-4.9136,-5.2443,-5.3135,-5.3879,-5.2929,-5.0127,-4.6882,-4.3331,-3.9484,-3.5484,-3.1919,-2.8823,-2.5588,0.0,0.0,0.0,0.0,0.0,0.0,0.0,0.0,0.0,0.0,0.0,0.0,0.0,0.0,0.0,0.0,0.0,0.0,0.0,-1.7021,-1.7594,-1.8508,0.0,0.0,0.0,0.0,0.0,0.0,0.0,0.0,0.0,-2.9045,-2.9786,-3.0997,0.0,0.0,-3.8453,-3.9839,-4.222,-4.3977,-4.4231,-4.4465,0.0,-4.3909,-4.3072,-4.261,-4.2984,-4.37,-4.4236,-4.4258,-4.2833,-4.0749,-3.7838,-3.6373,-3.473,-3.1895,-3.0729,-2.9972,-2.902,-2.9369,-2.9816,-2.9389,-2.9195,-2.9156,-5.0159,-4.4547,-4.4184,-4.3699,-4.3544,-4.5786,-4.7786,-4.9338,-4.7729,-4.6673,-4.5824,-4.2926,-4.0778,-3.9299,-3.7717,0.0,0.0,0.0,-4.6305,-4.9646,-5.2606,-5.4504,-5.5459,-5.6312,-5.6577,-5.6332,-5.5918,-5.4911,-5.3399,-5.1974,-4.7977,-4.139,0.0,0.0,-3.4617,-3.7675,-4.1022,-4.4711,-4.9822,-5.2916,-5.3772,-5.3944,-5.2851,-5.0367,-4.768,-4.4574,-4.1123,-3.7228,-3.3786,-3.0887,-2.7355,-2.3877,0.0,0.0,0.0,0.0,0.0,0.0,0.0,0.0,0.0,0.0,0.0,-1.4354,0.0,0.0,0.0,0.0,-1.5845,-1.7219,-1.8323,-1.871,0.0,0.0,0.0,0.0,0.0,0.0,0.0,-2.7852,-3.0431,-3.2773,-3.4471,-3.5857,-3.6696,-3.6735,-3.939,-4.1654,-4.2513,0.0,-4.5636,-4.5987,-4.6046,-4.6,-4.5938,-4.5481,-4.5436,-4.6263,-4.6508,-4.6644,-4.6567,-4.4926,-4.2732,-4.0412,-3.8382,-3.644,-3.44,-3.306,-3.1681,-3.0282,-3.0884,-3.1681,-3.172,-3.1312,-3.1118,-5.5781,-5.4353,-5.1679,-5.0034,-4.9493,-5.1597,-5.3684,-5.5559,-5.3766,-5.3217,-5.3185,-5.004,-4.7561,-4.563,-4.3797,0.0,-4.7572,-4.915,-5.1114,-5.3463,-5.5889,-5.7037,-5.7129,-5.7998,-5.7968,-5.7235,-5.7098,-5.6251,-5.4846,-5.4816,-5.3348,-5.0328,-4.383,-4.0046,-3.9199,-4.1623,-4.417,-4.6714,-5.0837,-5.3369,-5.4211,-5.3456,-5.2238,-5.0558,-4.7376,-4.4495,-4.1873,-3.8631,-3.5331,-3.1975,-2.9378,-2.645,-2.3112,0.0,0.0,0.0,0.0,0.0,0.0,0.0,0.0,0.0,0.0,0.0,0.0,0.0,0.0,0.0,-1.7777,0.0,-1.9597,-2.0341,0.0,0.0,0.0,-2.3405,-2.6659,-2.8589,-3.0684,-3.3202,0.0,0.0,-3.8668,-4.181,-4.3079,-4.0815,-4.265,-4.4504,-4.5304,-4.6202,-4.7002,-4.7842,-4.7939,-4.7893,-4.7908,-4.7833,-4.8022,-4.8694,-4.8246,-4.7739,-4.7531,-4.5685,-4.3741,-4.2393,-3.9664,-3.7353,-3.7159,-3.5605,-3.3992,-3.1778,-3.2477,-3.3487,-3.3487,-3.3351,-3.3235,-5.982,-5.9494,-5.8841,-5.6446,-5.327,-5.4482,-5.5715,-5.6808,-5.6202,-5.5769,-5.5489,-5.3225,-5.1176,-4.9314,-4.8925,-4.9536,-5.0875,-5.1903,-5.3359,-5.519,-5.6448,-5.7376,-5.8072,-5.8301,-5.8055,-5.7334,-5.5577,-5.4596,-5.4335,-5.3807,-5.263,-5.0866,-5.0382,-4.8264,-4.4559,-4.5862,-4.7561,-4.9501,-5.254,-5.4482,-5.5273,-5.4543,-5.3006,-5.0701,-4.8606,-4.5703,-4.195,-3.9815,-3.7123,-3.3724,-3.1155,-2.8253,-2.4851,-2.3111,0.0,0.0,0.0,0.0,0.0,0.0,0.0,0.0,0.0,-1.6303,-1.6571,0.0,-1.7188,0.0,-1.8997,-2.099,-2.298,-2.3355,0.0,0.0,-2.4768,-2.5612,-2.7744,-2.9467,-3.1521,-3.4081,-3.5916,-3.8141,-4.1127,-4.3938,-4.5929,-4.6554,-4.7744,-4.8662,-4.8896,-4.9618,-5.0243,-5.0399,-5.0379,-5.0492,-5.0382,-5.0433,-5.0387,-5.0638,-4.994,-4.9378,-4.9294,-4.7767,-4.5804,-4.3676,-4.2053,-4.0092,-3.7683,-3.6731,-3.6362,-3.5682,-3.541,-3.5216,-3.5216,-3.4692,-3.4225,-6.1303,-6.1323,-6.1306,-5.9823,-5.7564,-5.8245,-5.8907,-5.9494,-5.9337,-5.9287,-5.9276,-5.7365,-5.5806,-5.4459,-5.4204,-5.4338,-5.4779,-5.5282,-5.6068,-5.6959,-5.7445,-5.7931,-5.8443,-5.8523,-5.8021,-5.6997,-5.4969,-5.4144,-5.4315,-5.3997,-5.3648,-5.3337,-5.5104,-5.4493,-5.1591,-5.0259,-5.0291,-5.1659,-5.3893,-5.5241,-5.5645,-5.453,-5.2702,-5.0183,-4.7702,-4.4605,-4.0835,-3.9046,-3.6911,-3.4295,-3.2141,-2.9602,-2.6621,-2.4505,-2.2013,0.0,0.0,0.0,0.0,0.0,0.0,0.0,0.0,0.0,0.0,0.0,-2.041,-2.1221,-2.289,-2.4689,-2.6493,-2.7017,-2.7454,-2.7923,-2.8313,-2.9074,-3.0426,-3.2087,-3.4117,-3.6657,-3.8843,-4.1166,-4.3821,-4.6378,-4.831,-4.9267,-5.0126,-5.0672,-5.0711,-5.1121,-5.1394,-5.1394,-5.1394,-5.139,-5.1391,-5.1343,-5.1296,-5.1203,-5.026,-4.9445,-4.9313,-4.7621,-4.5755,-4.4336,-4.3044,-4.1801,-4.0228,-3.9276,-3.8907,-3.9179,-3.8674,-3.7877,-3.71,-3.6284,-3.5663,-6.1656,-6.1599,-6.1599,-6.1582,-6.1599,-6.211,-6.2278,-6.2345,-6.2258,-6.2489,-6.2749,-6.1249,-6.0015,-5.9024,-5.8483,-5.8013,-5.7781,-5.7888,-5.7931,-5.7975,-5.8135,-5.8251,-5.8386,-5.8642,-5.7987,-5.6538,-5.487,-5.4217,-5.439,-5.4546,-5.516,-5.6245,-5.808,-5.8712,-5.7982,-5.4476,-5.2944,-5.362,-5.4989,-5.5684,-5.5665,-5.4049,-5.1991,-4.9413,-4.6086,-4.2604,-3.9104,-3.7411,-3.5718,-3.3949,-3.2487,-3.0602,-2.8159,-2.5842,-2.3764,0.0,-2.2139,0.0,0.0,0.0,0.0,0.0,0.0,0.0,0.0,-2.3205,-2.4313,-2.6106,-2.7749,-2.9094,-3.0056,-3.095,-3.1465,-3.1485,-3.2246,-3.3066,-3.3844,-3.5349,-3.7262,-3.9683,-4.2162,-4.4367,-4.6202,-4.8603,-5.0106,-5.0282,-5.0848,-5.1297,-5.1375,-5.1375,-5.1394,-5.1394,-5.1394,-5.1386,-5.14,-5.1349,-5.1308,-5.1145,-4.9929,-4.8811,-4.8749,-4.6716,-4.5006,-4.4822,-4.3802,-4.3025,-4.3704,-4.252,-4.1917,-4.2656,-4.2151,-4.0966,-3.9179,-3.8033,-3.7469,-6.2901,-6.3169,-6.3169,-6.3169,-6.3242,-6.3851,-6.3615,-6.2758,-6.2659,-6.2293,-6.1733,-6.1477,-6.0265,-5.8428,-5.8271,-5.7173,-5.5378,-5.5378,-5.5461,-5.5581,-5.627,-5.6982,-5.7776,-5.8548,-5.8202,-5.681,-5.4692,-5.3724,-5.3945,-5.412,-5.467,-5.5626,-5.8036,-5.8897,-5.8184,0.0,0.0,0.0,-5.5895,-5.5684,-5.5626,-5.4068,-5.1991,-4.9433,-4.6086,0.0,-3.7469,-3.6224,-3.4622,-3.2333,-3.1872,0.0,0.0,0.0,0.0,0.0,0.0,0.0,0.0,0.0,0.0,0.0,-3.3373,-3.1576,-2.8182,-2.7471,-2.7926,-2.9663,-3.0767,-3.2007,-3.3558,-3.4505,-3.5018,-3.5057,-3.5779,-3.6384,-3.6579,-3.7477,-3.8843,-4.0639,-4.2533,-4.4641,-4.7042,-4.8974,-5.036,-5.1004,-5.1297,-5.1394,-5.1394,-5.1394,-5.1394,-5.1394,-5.1386,-5.1396,-5.14,-5.1336,-5.1296,-5.1094,-4.9843,-4.8833,-4.8574,-4.7193,-4.5862,-4.5793,-4.5491,-4.5278,-4.5491,-4.5239,-4.5181,-4.6152,-4.5608,-4.4093,-4.1102,-3.9781,-3.9198,-6.3302,0.0,-6.3673,-6.382,0.0,-6.4722,-6.4587,-6.3895,-6.3608,-6.3003,-6.2181,-6.1923,-6.0729,-5.8821,-5.7666,-5.6048,-5.4134,-5.3415,-5.3306,-5.3829,-5.5016,-5.6118,-5.7133,-5.8464,-5.8425,-5.7116,-5.5226,-5.4444,-5.4619,-5.4805,-5.5547,-5.6836,-5.8568,-5.9418,-5.9465,-5.9085,-5.8261,-5.7011,-5.6549,-5.6126,-5.5665,-5.4491,-5.2626,-5.0067,-4.7144,0.0,0.0,0.0,0.0,0.0,0.0,0.0,0.0,0.0,0.0,-2.7948,-2.9429,-3.091,-3.2237,-3.5111,-3.7571,-3.9262,-3.9915,-3.8059,-3.2959,-3.224,-3.2771,-3.4495,-3.5064,-3.6004,-3.7666,-3.8255,-3.8531,-3.8551,-3.8921,-3.9019,-3.8707,-3.9312,-4.0307,-4.1674,-4.3665,-4.5812,-4.7939,-4.9677,-5.0828,-5.1316,-5.1394,-5.1394,-5.1394,-5.1394,-5.1394,-5.1394,-5.1396,-5.1386,-5.1394,-5.1349,-5.1308,-5.1137,-5.0205,-4.9253,-4.8711,-4.7602,-4.6707,-4.6668,-4.6638,-4.6754,-4.7201,-4.7279,-4.7434,-4.7803,-4.7589,-4.6676,-4.4443,-4.3102,-4.1937,-6.3452,-6.36,-6.382,-6.4074,-6.4288,-6.4999,-6.5117,-6.4816,0.0,0.0,0.0,-6.2446,-6.1237,-5.949,-5.7302,-5.5269,-5.3343,-5.1862,-5.1602,-5.2494,-5.4092,-5.551,-5.6724,-5.8464,-5.8729,-5.7559,-5.6309,-5.5766,-5.5969,-5.6102,-5.6953,-5.8454,-5.9165,-5.9877,-6.0473,-5.9858,-5.8742,-5.73,-5.7069,-5.6646,-5.5934,-5.5011,-5.3414,-5.1183,-4.8529,-4.4874,-4.0162,-3.8988,-3.7603,-3.5801,-3.5026,-3.4564,-3.4372,-3.2583,-3.1821,-3.2564,-3.3776,-3.5526,-3.7911,-4.0391,-4.2524,-4.4133,-4.5075,-4.3163,-3.7472,-3.7097,-3.7653,-3.8944,-3.9175,-3.9839,-4.1205,-4.1479,-4.1557,-4.1557,-4.142,-4.1069,-4.06,-4.0932,-4.1693,-4.2864,-4.4855,-4.6866,-4.833,-5.0028,-5.116,-5.118,-5.1277,-5.1394,-5.1394,-5.1394,-5.1394,-5.1394,-5.1396,-5.14,-5.1388,-5.1342,-5.1292,-5.1248,-5.0538,-4.9722,-4.8963,-4.8146,-4.7708,-4.7842,-4.7764,-4.8133,-4.8852,-4.9046,-4.9066,-4.9066,-4.893,-4.8619,-4.7842,-4.6404,-4.4676,-6.36,-6.36,-6.3913,-6.4288,-6.47,-6.4803,-6.4581,-6.4158,-6.4185,-6.3818,-6.3147,-6.3102,-6.1782,-5.9597,-5.7899,-5.5513,-5.2679,-5.1045,-5.0765,-5.1728,-5.344,-5.5171,-5.6993,-5.8868,-5.9381,-5.873,-5.7985,-5.767,-5.7843,-5.7889,-5.8415,-5.9242,-5.9454,-5.955,-5.9665,-5.9569,-5.905,-5.8127,-5.7376,-5.6934,-5.678,-5.5299,-5.3991,-5.2799,-4.9683,-4.6278,-4.272,-4.1027,-3.9027,-3.668,-3.6406,-3.604,-3.5372,-3.5628,-3.5878,-3.6161,-3.8873,-4.1354,-4.3104,-4.5035,-4.6626,-4.7709,-4.81,-4.6312,-4.1991,-4.1491,-4.1283,-4.0893,-4.1518,-4.1947,-4.224,-4.2942,-4.3372,-4.3274,-4.2689,-4.2435,-4.2962,-4.2591,-4.2806,-4.427,-4.5558,-4.6593,-4.7608,-4.9169,-5.0204,-5.036,-5.0789,-5.1355,-5.1394,-5.1394,-5.1394,-5.1394,-5.1386,-5.1391,-5.1297,-5.1349,-5.1253,-5.122,-5.05,-4.9955,-4.9671,-4.896,-4.8669,-4.9337,-4.9337,-4.9726,-5.0522,-5.0833,-5.0697,-5.06,-5.0153,-4.9648,-4.9337,-4.7978,-4.6327,-6.36,-6.3656,-6.4057,-6.4286,-6.4427,-6.432,-6.4292,-6.4297,-6.3952,-6.3611,-6.3326,-6.3354,-6.2353,-6.0432,-5.8781,-5.6818,-5.4518,-5.2419,-5.1954,-5.2972,-5.4292,-5.5717,-5.7295,-5.919,-6.0008,-5.986,-5.9632,-5.9538,-5.96,-5.9642,-5.9838,-6.0165,-5.9742,-5.905,-5.8223,-5.8627,-5.8665,-5.83,-5.7915,-5.7242,-5.6299,-5.553,-5.4741,-5.3914,-5.1895,-4.9316,-4.6003,-4.4229,-4.2375,-4.0314,-3.9364,-3.8709,-3.8367,-3.8667,-3.9052,-3.9548,-4.1874,-4.4206,-4.6345,-4.8174,-4.947,-5.0012,-5.0146,-4.9228,-4.68,-4.575,-4.5226,-4.5265,-4.5285,-4.5226,-4.5226,-4.5578,-4.5617,-4.5148,-4.4738,-4.4484,-4.4367,-4.4094,-4.3938,-4.4328,-4.5051,-4.5753,-4.6124,-4.7686,-4.872,-4.8837,-4.9833,-5.0828,-5.1336,-5.1394,-5.1394,-5.1394,-5.1386,-5.1182,-5.084,-5.107,-5.1047,-5.0655,-5.0588,-5.0383,-5.0048,-4.9504,-4.9512,-4.9784,-4.9912,-5.025,-5.1047,-5.1202,-5.1202,-5.1163,-5.095,-5.0503,-4.9901,-4.8522,-4.6657,-6.36,-6.3673,-6.4199,-6.4411,-6.4222,-6.4182,-6.4272,-6.429,-6.3725,-6.3447,-6.3447,-6.3575,-6.2822,-6.1391,-5.972,-5.8196,-5.6713,-5.4558,-5.4074,-5.5076,-5.5905,-5.6889,-5.8076,-5.9664,-6.046,-6.0629,-6.0734,-6.08,-6.08,-6.08,-6.0685,-6.0435,-5.9665,-5.8492,-5.703,-5.7665,-5.7915,-5.7761,-5.7915,-5.7434,-5.6338,-5.6107,-5.578,-5.5338,-5.438,-5.2531,-4.9789,-4.7854,-4.609,-4.4471,-4.2806,-4.173,-4.1345,-4.1493,-4.1957,-4.2833,-4.4438,-4.6409,-4.874,-5.0266,-5.1171,-5.1281,-5.1366,-5.1102,-5.0399,-4.9228,-4.8525,-4.8701,-4.8076,-4.7725,-4.7471,-4.751,-4.7237,-4.6417,-4.6105,-4.5597,-4.5109,-4.4855,-4.4465,-4.3899,-4.4309,-4.4719,-4.4972,-4.6046,-4.7256,-4.8037,-4.9169,-5.0379,-5.118,-5.1394,-5.1394,-5.1355,-5.1249,-5.0874,-5.0225,-5.036,-5.0446,-4.9991,-5.047,-5.0568,-5.0273,-5.0212,-5.0192,-5.025,-5.0231,-5.0503,-5.1066,-5.1202,-5.1202,-5.1202,-5.1144,-5.0872,-5.0017,-4.8988,-4.7026,-6.36,-6.3729,-6.4358,-6.4632,-6.4676,-6.4685,-6.4327,-6.3761,-6.3594,-6.3575,-6.3575,-6.362,-6.3137,-6.2134,-6.0574,-5.9446,-5.8639,-5.6985,-5.6874,-5.7874,-5.8183,-5.8893,-5.9855,-6.0384,-6.0629,-6.0704,-6.0757,-6.08,-6.08,-6.08,-6.0396,-5.9608,-5.8819,-5.7953,-5.7088,-5.7049,-5.6722,-5.5972,-5.6766,-5.7497,-5.7973,-5.73,-5.7223,-5.7934,-5.6382,-5.5152,-5.3887,-5.1749,-4.9653,-4.8083,-4.6369,-4.4775,-4.3441,-4.3879,-4.4676,-4.549,-4.7159,-4.8938,-5.0603,-5.1035,-5.1222,-5.1291,-5.1352,-5.1355,-5.1238,-5.1102,-5.034,-4.9286,-4.8779,-4.8466,-4.7725,-4.7647,-4.7295,-4.6378,-4.5695,-4.507,-4.4953,-4.4309,-4.3762,-4.3723,-4.3645,-4.3801,-4.3684,-4.4524,-4.6105,-4.8057,-4.9228,-5.0321,-5.1219,-5.1394,-5.1394,-5.1258,-5.0785,-5.0278,-5.0,-4.944,-4.9601,-4.9917,-5.009,-5.0413,-5.0759,-5.0969,-5.1066,-5.0833,-5.0969,-5.1047,-5.1105,-5.1202,-5.1202,-5.1202,-5.1163,-5.095,-5.0173,-4.9648,-4.825,-6.3802,-6.4002,-6.4808,-6.5366,-6.5585,-6.5064,-6.4642,-6.4308,-6.3806,-6.3602,-6.3602,-6.3602,-6.3416,-6.3082,-6.2376,-6.198,-6.1782,-6.0767,-6.0736,-6.1303,-6.0684,-6.0619,-6.1092,-6.0827,-6.0729,-6.0777,-6.08,-6.08,-6.08,-6.08,-6.0358,-5.9492,-5.8704,-5.7607,-5.6319,-5.5742,-5.5338,-5.5011,-5.5362,-5.6482,-5.8085,-5.7563,-5.7522,-5.8119,-5.7255,-5.6341,-5.5436,-5.3604,-5.1797,-5.0189,-4.8953,-4.7543,-4.587,-4.6555,-4.7159,-4.7573,-4.9138,-5.0422,-5.1161,-5.1242,-5.1291,-5.1361,-5.1381,-5.1394,-5.1394,-5.1394,-5.1063,-5.0516,-5.0321,-4.9813,-4.8545,-4.831,-4.7783,-4.6573,-4.5968,-4.5578,-4.5051,-4.4231,-4.3372,-4.2396,-4.2162,-4.1752,-4.1205,-4.2318,-4.4445,-4.6866,-4.8466,-4.9872,-5.1102,-5.1394,-5.1394,-5.1297,-5.0672,-4.9911,-4.9536,-5.0045,-4.9926,-4.9646,-5.0155,-5.0967,-5.1072,-5.1214,-5.1202,-5.1202,-5.1202,-5.1202,-5.1183,-5.1202,-5.1202,-5.1202,-5.1163,-5.093,-5.0056,-4.9912,-4.8774,-6.4057,-6.4376,-6.5237,-6.5931,-6.6326,-6.526,-6.4809,-6.4698,-6.3955,-6.3602,-6.3602,-6.3602,-6.3647,-6.3691,-6.3673,-6.3786,-6.3971,-6.3612,-6.3632,-6.3888,-6.2833,-6.2383,-6.2432,-6.156,-6.1146,-6.1108,-6.0916,-6.08,-6.08,-6.08,-6.0454,-5.98,-5.88,-5.7434,-5.5818,-5.5109,-5.4608,-5.4282,-5.4824,-5.6327,-5.8194,-5.8176,-5.8372,-5.9029,-5.8438,-5.778,-5.721,-5.5419,-5.3906,-5.2742,-5.1427,-4.9907,-4.8288,-4.8691,-4.9003,-4.9138,-5.0416,-5.1281,-5.133,-5.1323,-5.1341,-5.1381,-5.139,-5.1394,-5.1394,-5.1394,-5.1394,-5.1336,-5.1394,-5.0692,-4.9462,-4.8935,-4.8154,-4.6846,-4.6475,-4.589,-4.4758,-4.3879,-4.265,-4.1069,-4.0581,-4.0229,-3.9858,-4.1654,-4.427,-4.6475,-4.8193,-4.9638,-5.0984,-5.1394,-5.1394,-5.1375,-5.0828,-5.0048,-4.9169,-4.9582,-4.9892,-4.9679,-4.9983,-5.0858,-5.1113,-5.1217,-5.1202,-5.1202,-5.1202,-5.1202,-5.1202,-5.1202,-5.1202,-5.1202,-5.1183,-5.1008,-5.0503,-5.0289,-4.9532,-6.4341,-6.488,-6.5623,-6.6261,-6.65,-6.5382,-6.4846,-6.4846,-6.3992,-6.362,-6.362,-6.3602,-6.3717,-6.3915,-6.3897,-6.4065,-6.4386,-6.4538,-6.4765,-6.5004,-6.4441,-6.4274,-6.4257,-6.2815,-6.2012,-6.1858,-6.1127,-6.08,-6.08,-6.08,-6.0781,-6.0627,-5.9146,-5.7473,-5.5992,-5.5708,-5.4958,-5.4015,-5.5764,-5.7586,-5.8599,-5.9477,-6.0203,-6.0798,-6.03,-5.9838,-5.963,-5.7572,-5.6225,-5.6285,-5.3865,-5.1776,-5.0215,-5.002,-5.002,-5.0137,-5.0879,-5.1367,-5.1386,-5.139,-5.139,-5.1394,-5.1394,-5.1394,-5.1394,-5.1394,-5.1394,-5.1394,-5.1394,-5.0965,-5.0145,-4.9384,-4.8525,-4.7569,-4.6768,-4.5675,-4.3997,-4.304,-4.1732,-4.019,-3.9331,-3.9507,-4.0737,-4.3255,-4.5285,-4.7178,-4.8935,-5.034,-5.1102,-5.1394,-5.1394,-5.1394,-5.1199,-5.075,-4.9267,-4.9567,-4.9401,-4.9229,-4.988,-5.0447,-5.087,-5.1208,-5.1206,-5.1202,-5.1214,-5.1214,-5.1202,-5.1202,-5.1202,-5.1202,-5.1202,-5.1027,-5.0853,-5.1066,-5.027,-6.5158,-6.6211,-6.6866,-6.7347,-6.7566,-6.6757,-6.6128,-6.5571,-6.4735,-6.4085,-6.3657,-6.3602,-6.378,-6.4023,-6.4209,-6.4426,-6.4688,-6.5,-6.5226,-6.5379,-6.4819,-6.4558,-6.4366,-6.2878,-6.2089,-6.1973,-6.1223,-6.08,-6.08,-6.08,-6.08,-6.0627,-5.9665,-5.8223,-5.6742,-5.6036,-5.5519,-5.5186,-5.6117,-5.7513,-5.9429,-6.0039,-6.0633,-6.1409,-6.0643,-6.0205,-6.0261,-5.835,-5.7088,-5.6606,-5.5142,-5.3561,-5.1941,-5.1219,-5.0945,-5.0965,-5.1219,-5.1394,-5.1394,-5.1394,-5.1394,-5.1394,-5.1394,-5.1394,-5.1394,-5.1394,-5.1394,-5.1394,-5.1394,-5.1199,-5.0887,-5.0145,-4.9091,-4.7842,-4.7295,-4.6202,-4.4075,-4.2435,-4.0912,-3.9429,-3.8765,-3.9273,-4.1225,-4.3391,-4.5617,-4.7373,-4.9052,-5.036,-5.1141,-5.1394,-5.1394,-5.1394,-5.1355,-5.1004,-4.9891,-5.0196,-5.0421,-5.0098,-5.0309,-5.0789,-5.1237,-5.1259,-5.1259,-5.1217,-5.1217,-5.1206,-5.1214,-5.1202,-5.1202,-5.1202,-5.1202,-5.1202,-5.1202,-5.1202,-5.0367,-6.5958,-6.7081,-6.7755,-6.8153,-6.8266,-6.7584,-6.7001,-6.6369,-6.5292,-6.4512,-6.401,-6.3732,-6.3823,-6.4147,-6.4464,-6.4758,-6.5004,-6.5257,-6.5504,-6.5616,-6.5212,-6.5013,-6.4801,-6.357,-6.2897,-6.2724,-6.1743,-6.1108,-6.0819,-6.08,-6.08,-6.0742,-5.9958,-5.8842,-5.7555,-5.6946,-5.6655,-5.6582,-5.7072,-5.8426,-6.0077,-6.0578,-6.1043,-6.1495,-6.1036,-6.0703,-6.0717,-5.9117,-5.7982,-5.7367,-5.6352,-5.4927,-5.3268,-5.2019,-5.1394,-5.1394,-5.1394,-5.1394,-5.1394,-5.1394,-5.1394,-5.1394,-5.1394,-5.1394,-5.1394,-5.1394,-5.1394,-5.1394,-5.1394,-5.1394,-5.1297,-5.0867,-4.9833,-4.833,-4.7764,-4.6671,-4.4426,-4.2591,-4.0912,-3.9585,-3.9683,-4.062,-4.222,-4.4445,-4.6475,-4.8174,-4.9657,-5.075,-5.1258,-5.1394,-5.1394,-5.1394,-5.1394,-5.118,-5.0653,-5.0844,-5.0703,-5.0382,-5.0625,-5.1109,-5.1316,-5.1312,-5.1278,-5.124,-5.1208,-5.1217,-5.1206,-5.1202,-5.1202,-5.1202,-5.1202,-5.1202,-5.1202,-5.1202,-5.0289,-6.6722,-6.7451,-6.8171,-6.8475,-6.8364,-6.7744,-6.7335,-6.6982,-6.5626,-6.4958,-6.4605,-6.3992,-6.3966,-6.423,-6.4593,-6.4962,-6.5345,-6.5523,-6.5674,-6.5774,-6.5795,-6.5782,-6.5705,-6.4782,-6.4185,-6.4032,-6.2781,-6.1608,-6.0819,-6.08,-6.08,-6.0646,-6.0076,-5.9293,-5.8331,-5.8374,-5.8164,-5.7965,-5.9029,-6.0059,-6.0422,-6.1153,-6.1607,-6.1696,-6.1618,-6.1579,-6.1598,-5.9959,-5.8963,-5.8753,-5.7387,-5.5786,-5.4068,-5.2448,-5.1453,-5.1511,-5.1433,-5.1394,-5.1394,-5.1394,-5.1394,-5.1394,-5.1394,-5.1394,-5.1394,-5.1394,-5.1394,-5.1394,-5.1394,-5.1394,-5.1394,-5.1316,-5.0614,-4.9091,-4.8291,-4.7139,-4.5246,-4.343,-4.1713,-4.0385,-4.103,-4.3001,-4.4699,-4.6183,-4.7803,-4.9267,-5.034,-5.0965,-5.1082,-5.1043,-5.1219,-5.1297,-5.118,-5.0945,-5.1141,-5.1336,-5.0848,-5.0492,-5.0952,-5.1366,-5.1349,-5.1342,-5.1284,-5.1249,-5.1208,-5.1217,-5.1214,-5.1202,-5.1202,-5.1202,-5.1202,-5.1202,-5.1202,-5.1066,-5.0386,-6.7175,-6.7757,-6.829,-6.8524,-6.8487,-6.8246,-6.7837,-6.7298,-6.6704,-6.5952,-6.5057,-6.4737,-6.4528,-6.4501,-6.481,-6.5182,-6.5484,-6.5682,-6.5827,-6.5853,-6.5897,-6.5878,-6.5724,-6.5013,-6.3993,-6.2974,-6.2377,-6.1647,-6.0935,-6.08,-6.08,-6.0746,-6.0599,-6.0108,-5.9379,-5.9448,-5.9381,-5.9452,-5.9922,-6.0559,-6.1192,-6.1554,-6.1715,-6.1701,-6.1701,-6.1701,-6.1622,-6.0022,-5.9163,-5.9085,-5.7504,-5.6079,-5.483,-5.3249,-5.2331,-5.2214,-5.1707,-5.1394,-5.1394,-5.1394,-5.1394,-5.1394,-5.1394,-5.1394,-5.1394,-5.1414,-5.1414,-5.1414,-5.1394,-5.1394,-5.1394,-5.1394,-5.0965,-4.9833,-4.9442,-4.833,-4.6124,-4.3957,-4.1771,-4.0464,-4.1849,-4.3665,-4.4972,-4.6573,-4.7998,-4.8993,-4.956,-4.9848,-5.0282,-5.0067,-4.995,-5.034,-5.0418,-5.0633,-5.075,-5.1082,-5.1141,-5.0867,-5.1152,-5.1401,-5.1366,-5.1349,-5.1308,-5.1258,-5.1219,-5.1206,-5.1202,-5.1202,-5.1202,-5.1202,-5.1202,-5.1202,-5.1202,-5.0872,-5.0386,-6.7541,-6.7985,-6.8358,-6.8524,-6.8524,-6.8524,-6.8246,-6.7744,-6.7428,-6.6798,-6.5986,-6.5397,-6.5207,-6.5086,-6.5152,-6.5326,-6.5552,-6.5781,-6.5878,-6.5878,-6.5878,-6.5878,-6.584,-6.5378,-6.4185,-6.282,-6.2551,-6.1935,-6.0839,-6.0823,-6.0827,-6.0846,-6.0957,-6.0809,-6.0377,-6.0449,-6.0565,-6.0701,-6.0793,-6.1101,-6.1573,-6.1701,-6.1701,-6.1701,-6.1701,-6.1701,-6.1583,-6.0315,-5.9417,-5.8831,-5.7211,-5.5884,-5.522,-5.3678,-5.2702,-5.2546,-5.1941,-5.1394,-5.1394,-5.1394,-5.1394,-5.1433,-5.1687,-5.1707,-5.157,-5.1609,-5.1804,-5.1453,-5.1726,-5.1882,-5.1921,-5.2234,-5.2078,-5.1629,-5.0614,-4.9189,-4.7042,-4.5656,-4.4426,-4.3704,-4.4309,-4.5382,-4.6456,-4.6827,-4.7959,-4.8584,-4.8818,-4.8892,-4.9364,-4.9189,-4.9306,-4.9579,-4.9969,-5.0145,-5.0204,-5.0692,-5.1316,-5.1316,-5.1332,-5.1386,-5.1381,-5.1366,-5.1336,-5.1258,-5.1208,-5.1214,-5.1202,-5.1202,-5.1202,-5.1202,-5.1202,-5.1202,-5.1202,-5.1202,-5.0775,-6.7826,-6.8121,-6.8408,-6.8524,-6.8524,-6.8524,-6.8487,-6.8357,-6.7792,-6.7431,-6.7117,-6.6139,-6.5708,-6.5834,-6.5461,-6.5427,-6.5627,-6.5781,-6.5878,-6.5878,-6.5878,-6.5878,-6.5859,-6.5782,-6.482,-6.3416,-6.3205,-6.2358,-6.0858,-6.0846,-6.0891,-6.0916,-6.108,-6.1206,-6.1128,-6.1375,-6.1422,-6.1456,-6.1589,-6.1646,-6.1701,-6.1701,-6.1701,-6.1701,-6.1701,-6.1701,-6.1564,-6.0627,-5.9768,-5.8831,-5.6762,-5.5611,-5.5123,-5.3756,-5.3034,-5.3034,-5.2097,-5.1785,-5.1629,-5.1843,-5.1785,-5.1863,-5.237,-5.2448,-5.1999,-5.2253,-5.2273,-5.1726,-5.2195,-5.2624,-5.2741,-5.3288,-5.3678,-5.362,-5.1824,-4.9852,-4.8252,-4.833,-4.7744,-4.7334,-4.7608,-4.7725,-4.7998,-4.7666,-4.7783,-4.8057,-4.8291,-4.8408,-4.8427,-4.831,-4.8505,-4.874,-4.8935,-4.9384,-4.9384,-5.0731,-5.1316,-5.1394,-5.139,-5.139,-5.1386,-5.1372,-5.1343,-5.1267,-5.1208,-5.1206,-5.1202,-5.1202,-5.1202,-5.1202,-5.1202,-5.1202,-5.1202,-5.1202,-5.1105,-6.807,-6.8259,-6.8408,-6.8524,-6.8524,-6.8524,-6.8554,-6.8631,-6.8446,-6.7797,-6.718,-6.6898,-6.6234,-6.5498,-6.555,-6.5608,-6.5747,-6.5846,-6.5878,-6.5878,-6.5878,-6.5878,-6.5878,-6.5859,-6.4993,-6.3512,-6.3262,-6.2435,-6.0896,-6.0869,-6.0918,-6.0983,-6.1152,-6.1294,-6.1417,-6.152,-6.1619,-6.1679,-6.1691,-6.1715,-6.1696,-6.1701,-6.1701,-6.1701,-6.1701,-6.1701,-6.1564,-6.0212,-5.9046,-5.8168,-5.6996,-5.6255,-5.6098,-5.5123,-5.4459,-5.4342,-5.3756,-5.3268,-5.3268,-5.3249,-5.3268,-5.3327,-5.3463,-5.3561,-5.3327,-5.2897,-5.2663,-5.239,-5.2605,-5.2761,-5.2878,-5.3561,-5.399,-5.3834,-5.2819,-5.157,-5.0535,-4.995,-4.9442,-4.8623,-4.8037,-4.7608,-4.7198,-4.6924,-4.6593,-4.6417,-4.6729,-4.712,-4.7295,-4.7237,-4.7334,-4.71,-4.7295,-4.8057,-4.8935,-5.0418,-5.1258,-5.1375,-5.1394,-5.1394,-5.1381,-5.1366,-5.133,-5.1287,-5.124,-5.1197,-5.1206,-5.1206,-5.1214,-5.1202,-5.1202,-5.1202,-5.1202,-5.1202,-5.1202,-6.729,-6.7388,-6.7455,-6.7484,-6.7503,-6.7503,-6.7579,-6.7747,-6.7834,-6.7626,-6.7125,-6.6969,-6.6578,-6.596,-6.578,-6.5774,-6.5846,-6.5872,-6.5878,-6.5878,-6.5878,-6.5878,-6.5878,-6.5859,-6.4993,-6.3474,-6.3325,-6.2386,-6.1139,-6.0957,-6.1041,-6.1113,-6.1264,-6.1414,-6.1529,-6.1619,-6.1667,-6.1696,-6.1701,-6.1701,-6.1701,-6.1701,-6.1701,-6.1701,-6.1701,-6.1701,-6.1486,-6.0017,-5.8851,-5.823,-5.7304,-5.6605,-5.6528,-5.5767,-5.5318,-5.5259,-5.4478,-5.3971,-5.399,-5.399,-5.399,-5.4068,-5.4283,-5.4303,-5.4088,-5.3776,-5.3737,-5.3307,-5.3561,-5.3756,-5.3932,-5.4576,-5.5025,-5.5064,-5.4322,-5.3288,-5.2097,-5.1492,-5.0809,-4.993,-4.8857,-4.7803,-4.6944,-4.6573,-4.5909,-4.55,-4.5987,-4.6261,-4.6436,-4.63,-4.6222,-4.6222,-4.6983,-4.8154,-4.8993,-5.0262,-5.1238,-5.1375,-5.1394,-5.1394,-5.1386,-5.1366,-5.1336,-5.1292,-5.124,-5.121,-5.1208,-5.1217,-5.1214,-5.1202,-5.1202,-5.1202,-5.1202,-5.1202,-5.1202,-6.6109,-6.6109,-6.6109,-6.6109,-6.6184,-6.6128,-6.6379,-6.65,-6.6735,-6.6932,-6.6992,-6.6725,-6.6602,-6.6739,-6.6005,-6.5878,-6.5897,-6.5897,-6.5878,-6.5878,-6.5878,-6.5878,-6.5878,-6.5878,-6.4916,-6.3531,-6.3372,-6.2417,-6.1325,-6.108,-6.1206,-6.1279,-6.1414,-6.1539,-6.1619,-6.1687,-6.1705,-6.1696,-6.1701,-6.1701,-6.1701,-6.1701,-6.1701,-6.1701,-6.1701,-6.1701,-6.1291,-6.0119,-5.9065,-5.9104,-5.7493,-5.6708,-5.6508,-5.5806,-5.5532,-5.5454,-5.4947,-5.4498,-5.4361,-5.4517,-5.4381,-5.4576,-5.5123,-5.5123,-5.4713,-5.483,-5.4752,-5.4166,-5.4849,-5.5083,-5.5357,-5.602,-5.6059,-5.5825,-5.5376,-5.4205,-5.3053,-5.2644,-5.239,-5.1531,-4.995,-4.8603,-4.7686,-4.6846,-4.6007,-4.5753,-4.6124,-4.6612,-4.6866,-4.7042,-4.6573,-4.5929,-4.712,-4.872,-4.9442,-5.0165,-5.0906,-5.1394,-5.1394,-5.1394,-5.139,-5.1377,-5.1349,-5.1308,-5.1276,-5.124,-5.124,-5.1228,-5.1225,-5.1202,-5.1214,-5.1202,-5.1202,-5.1202,-5.1202,-6.6109,-6.6109,-6.6109,-6.6109,-6.6109,-6.6109,-6.6238,-6.6518,-6.6755,-6.6673,-6.6596,-6.6705,-6.6481,-6.6055,-6.5942,-6.5878,-6.5878,-6.5878,-6.5878,-6.5878,-6.5878,-6.5878,-6.5859,-6.582,-6.4916,-6.369,-6.3372,-6.25,-6.137,-6.115,-6.1294,-6.1448,-6.152,-6.16,-6.166,-6.1685,-6.1715,-6.1701,-6.1701,-6.1701,-6.1701,-6.1701,-6.1701,-6.1701,-6.1701,-6.1681,-6.1349,-6.0022,-5.9143,-5.8699,-5.759,-5.6618,-5.6528,-5.6391,-5.6235,-5.6177,-5.6118,-5.5962,-5.602,-5.5903,-5.602,-5.5903,-5.602,-5.6235,-5.6059,-5.5513,-5.5318,-5.5025,-5.522,-5.565,-5.6098,-5.5806,-5.5669,-5.5357,-5.4147,-5.28,-5.2038,-5.2234,-5.2351,-5.1785,-5.0165,-4.8486,-4.7686,-4.6905,-4.6358,-4.6183,-4.6612,-4.7198,-4.749,-4.7725,-4.7061,-4.6241,-4.7334,-4.8779,-4.915,-4.995,-5.0965,-5.1394,-5.1394,-5.1394,-5.139,-5.1386,-5.1361,-5.1336,-5.1308,-5.1276,-5.1278,-5.1229,-5.1197,-5.1217,-5.1214,-5.1202,-5.1202,-5.1202,-5.1202,-6.4921,-6.4921,-6.4921,-6.4939,-6.4921,-6.4939,-6.5128,-6.5501,-6.5804,-6.5926,-6.5976,-6.627,-6.6178,-6.5865,-6.5872,-6.5878,-6.5878,-6.5878,-6.5878,-6.5878,-6.5859,-6.5667,-6.5301,-6.523,-6.4619,-6.3449,-6.3025,-6.2182,-6.1423,-6.1259,-6.1414,-6.1539,-6.1619,-6.1648,-6.1696,-6.1701,-6.1701,-6.1701,-6.1701,-6.1701,-6.1701,-6.1701,-6.1701,-6.1701,-6.1681,-6.1564,-6.0978,-5.9827,-5.8968,-5.8304,-5.7328,-5.6606,-5.6606,-5.6606,-5.6606,-5.6606,-5.6606,-5.6606,-5.6606,-5.6606,-5.6567,-5.6606,-5.6606,-5.6606,-5.6567,-5.6138,-5.5962,-5.5903,-5.5942,-5.6138,-5.6489,-5.5806,-5.5259,-5.4264,-5.239,-5.0789,-5.0442,-5.0945,-5.1277,-5.0731,-4.9208,-4.7998,-4.7159,-4.6905,-4.6729,-4.6573,-4.7588,-4.8154,-4.7939,-4.8037,-4.751,-4.7178,-4.7939,-4.8642,-4.8876,-4.9716,-5.1082,-5.1394,-5.1394,-5.1394,-5.1394,-5.1386,-5.1401,-5.1361,-5.1336,-5.1316,-5.1312,-5.1249,-5.121,-5.1208,-5.1206,-5.1214,-5.1202,-5.1202,-5.1202,-6.3602,-6.3602,-6.3602,-6.3602,-6.362,-6.3702,-6.3966,-6.4326,-6.463,-6.5185,-6.5425,-6.5755,-6.5949,-6.5878,-6.5878,-6.5878,-6.5878,-6.5878,-6.5878,-6.5878,-6.5653,-6.5288,-6.4812,-6.4382,-6.393,-6.3216,-6.2762,-6.2,-6.1507,-6.1414,-6.152,-6.1619,-6.1687,-6.1705,-6.1696,-6.1701,-6.1701,-6.1701,-6.1701,-6.1701,-6.1701,-6.1701,-6.1701,-6.1701,-6.1427,-6.1115,-6.0432,-5.9436,-5.8538,-5.7816,-5.7035,-5.6684,-5.6606,-5.6606,-5.6606,-5.6606,-5.6606,-5.6606,-5.6606,-5.6606,-5.6606,-5.6606,-5.6606,-5.6606,-5.6586,-5.6547,-5.6489,-5.6508,-5.6508,-5.6508,-5.6547,-5.5552,-5.4596,-5.3307,-5.0653,-4.8919,-4.8431,-4.8997,-4.9072,-4.8857,-4.8174,-4.7295,-4.7295,-4.7276,-4.712,-4.7217,-4.8291,-4.9013,-4.8837,-4.8486,-4.8076,-4.7647,-4.8213,-4.8603,-4.8837,-4.9442,-5.0809,-5.1141,-5.1199,-5.1297,-5.1336,-5.139,-5.1386,-5.1401,-5.1366,-5.1349,-5.1323,-5.1284,-5.124,-5.1229,-5.1197,-5.1206,-5.1214,-5.1202,-5.1202,-6.3602,-6.3602,-6.3602,-6.3647,-6.378,-6.383,-6.4087,-6.4464,-6.4863,-6.5213,-6.5494,-6.5774,-6.5878,-6.5878,-6.5878,-6.5878,-6.5878,-6.5878,-6.5859,-6.5667,-6.5312,-6.4778,-6.4324,-6.3494,-6.2878,-6.2682,-6.2441,-6.2027,-6.1593,-6.1558,-6.1619,-6.166,-6.1691,-6.1715,-6.1715,-6.1701,-6.1701,-6.1701,-6.1701,-6.1701,-6.1701,-6.1701,-6.1622,-6.1544,-6.1056,-6.0549,-6.0022,-5.887,-5.7933,-5.7719,-5.7016,-5.6684,-5.6606,-5.6606,-5.6606,-5.6606,-5.6606,-5.6606,-5.6606,-5.6606,-5.6606,-5.6606,-5.6606,-5.6606,-5.6606,-5.6606,-5.6606,-5.6606,-5.6606,-5.6606,-5.6567,-5.5279,-5.3561,-5.1941,-5.0028,-4.7884,-4.6502,-4.6401,-4.7237,-4.7432,-4.7022,-4.6983,-4.7393,-4.792,-4.8232,-4.8505,-4.9325,-5.0087,-5.0282,-4.9677,-4.8993,-4.8564,-4.8252,-4.8564,-4.8818,-4.952,-5.0399,-5.0653,-5.0809,-5.1082,-5.116,-5.1336,-5.139,-5.1386,-5.1381,-5.1372,-5.1323,-5.1289,-5.1284,-5.1258,-5.124,-5.1208,-5.1206,-5.1214,-5.1202,-6.3602,-6.3602,-6.3602,-6.3673,-6.3848,-6.4023,-6.427,-6.4687,-6.5033,-6.5318,-6.5552,-6.5781,-6.5878,-6.5878,-6.5878,-6.5878,-6.5878,-6.5878,-6.5667,-6.5224,-6.485,-6.4155,-6.3645,-6.2684,-6.2296,-6.2088,-6.1985,-6.1923,-6.1586,-6.1619,-6.1654,-6.1691,-6.1701,-6.1701,-6.1701,-6.1701,-6.1701,-6.1701,-6.1701,-6.1701,-6.1701,-6.1681,-6.1505,-6.0998,-6.0568,-5.9983,-5.8968,-5.8441,-5.7601,-5.7211,-5.6801,-5.6645,-5.6606,-5.6606,-5.6606,-5.6606,-5.6606,-5.6606,-5.6606,-5.6606,-5.6606,-5.6606,-5.6606,-5.6606,-5.6606,-5.6606,-5.6606,-5.6606,-5.6606,-5.6606,-5.6567,-5.4947,-5.3307,-5.141,-4.9189,-4.6788,-4.5054,-4.4524,-4.5285,-4.6456,-4.6983,-4.7354,-4.7842,-4.8447,-4.9228,-4.9872,-5.0438,-5.0906,-5.1355,-5.0555,-4.954,-4.874,-4.8232,-4.8291,-4.8642,-4.9345,-5.0106,-5.036,-5.0535,-5.0809,-5.1102,-5.1336,-5.1394,-5.139,-5.1386,-5.1362,-5.1372,-5.1343,-5.1323,-5.1292,-5.1249,-5.1229,-5.1208,-5.1206,-5.1214,-6.3602,-6.3602,-6.3602,-6.3717,-6.3939,-6.4169,-6.4483,-6.4882,-6.5226,-6.5456,-6.5655,-6.5808,-6.5878,-6.5878,-6.5878,-6.5878,-6.5859,-6.5743,-6.5249,-6.4735,-6.4232,-6.3434,-6.2723,-6.2222,-6.2043,-6.1714,-6.1664,-6.1639,-6.1627,-6.1667,-6.1705,-6.1715,-6.1701,-6.1701,-6.1701,-6.1701,-6.1701,-6.1701,-6.1701,-6.1701,-6.1681,-6.133,-6.1017,-6.0354,-6.008,-5.9143,-5.8128,-5.7641,-5.7231,-5.686,-5.6626,-5.6606,-5.6606,-5.6606,-5.6606,-5.6606,-5.6606,-5.6606,-5.6606,-5.6606,-5.6606,-5.6606,-5.6606,-5.6606,-5.6606,-5.6606,-5.6606,-5.6586,-5.6352,-5.6274,-5.5981,-5.4537,-5.2722,-5.0805,-4.8291,-4.5968,-4.4563,-4.4075,-4.4738,-4.5831,-4.6905,-4.792,-4.8623,-4.9013,-4.9794,-5.036,-5.0926,-5.1004,-5.1297,-5.0614,-4.9677,-4.8681,-4.8135,-4.8057,-4.8408,-4.9052,-4.9813,-5.0418,-5.0555,-5.077,-5.1082,-5.1375,-5.1414,-5.1429,-5.139,-5.139,-5.1401,-5.1386,-5.1362,-5.1316,-5.1276,-5.124,-5.1249,-5.1229,-5.1208,-6.3602,-6.3602,-6.3602,-6.378,-6.4083,-6.4367,-6.4687,-6.5085,-6.5397,-6.5627,-6.5774,-6.5827,-6.5878,-6.5782,-6.5743,-6.5801,-6.5615,-6.512,-6.4663,-6.4247,-6.3378,-6.2799,-6.2361,-6.1843,-6.1781,-6.1584,-6.166,-6.1699,-6.1685,-6.1691,-6.1715,-6.1701,-6.1701,-6.1701,-6.1701,-6.1701,-6.1701,-6.1701,-6.1701,-6.1701,-6.1486,-6.0354,-6.0041,-5.9827,-5.9085,-5.8128,-5.766,-5.7192,-5.6762,-5.6684,-5.6606,-5.6606,-5.6606,-5.6606,-5.6606,-5.6606,-5.6606,-5.6606,-5.6606,-5.6606,-5.6606,-5.6606,-5.6606,-5.6606,-5.6606,-5.6606,-5.6606,-5.6567,-5.5981,-5.5415,-5.4947,-5.3151,-5.116,-4.9595,-4.792,-4.5987,-4.4504,-4.509,-4.5617,-4.6397,-4.7861,-4.8876,-4.9735,-4.9989,-5.034,-5.0887,-5.1316,-5.1355,-5.118,-5.0535,-4.9969,-4.9032,-4.8174,-4.8037,-4.8486,-4.9072,-4.9716,-5.0438,-5.0867,-5.0965,-5.118,-5.1492,-5.1472,-5.1468,-5.1429,-5.1386,-5.1396,-5.1386,-5.1375,-5.1343,-5.1316,-5.1292,-5.1287,-5.1259,-5.122,-6.3193,-6.3602,-6.3602,-6.3805,-6.4169,-6.4464,-6.486,-6.5264,-6.5627,-6.5801,-6.5846,-6.5872,-6.5647,-6.5186,-6.4705,-6.4416,-6.4364,-6.4123,-6.3692,-6.3473,-6.2703,-6.2257,-6.1933,-6.1695,-6.1603,-6.1641,-6.1685,-6.171,-6.1701,-6.1701,-6.1701,-6.1701,-6.1701,-6.1701,-6.1701,-6.1701,-6.1701,-6.1701,-6.1701,-6.1701,-6.1388,-6.0529,-5.9749,-5.9612,-5.8441,-5.768,-5.7153,-5.686,-5.6606,-5.6606,-5.6606,-5.6606,-5.6606,-5.6606,-5.6606,-5.6606,-5.6606,-5.6606,-5.6606,-5.6606,-5.6606,-5.6606,-5.6606,-5.6606,-5.6606,-5.6606,-5.6606,-5.6586,-5.5806,-5.4986,-5.3815,-5.1902,-4.9755,-4.8111,-4.7276,-4.6319,-4.5402,-4.6475,-4.7159,-4.7959,-4.874,-4.9735,-5.0633,-5.0984,-5.1043,-5.1063,-5.1355,-5.1375,-5.1121,-5.0594,-5.0048,-4.9501,-4.8681,-4.8037,-4.8662,-4.9306,-4.9872,-5.0633,-5.1746,-5.1746,-5.1531,-5.159,-5.1585,-5.1494,-5.1394,-5.1375,-5.138,-5.1391,-5.1372,-5.138,-5.1369,-5.1349,-5.1328,-5.1284,-5.1267,-6.2308,-6.3096,-6.3505,-6.3897,-6.4309,-6.4647,-6.5047,-6.5435,-6.546,-6.557,-6.5493,-6.5301,-6.482,-6.432,-6.3705,-6.3493,-6.3378,-6.3161,-6.2794,-6.2472,-6.2206,-6.1946,-6.1734,-6.1584,-6.1641,-6.1701,-6.1696,-6.1715,-6.1701,-6.1701,-6.1701,-6.1701,-6.1701,-6.1701,-6.1701,-6.1701,-6.1701,-6.1681,-6.1427,-6.1447,-6.1388,-6.0276,-5.9553,-5.8909,-5.8109,-5.7211,-5.6723,-5.6606,-5.6606,-5.6606,-5.6606,-5.6606,-5.6606,-5.6606,-5.6606,-5.6606,-5.6606,-5.6606,-5.6606,-5.6606,-5.6606,-5.6606,-5.6606,-5.6606,-5.6606,-5.6606,-5.6606,-5.6606,-5.5454,-5.4244,-5.278,-5.1043,-4.8915,-4.7451,-4.6436,-4.589,-4.5734,-4.6749,-4.7959,-4.8974,-4.9755,-5.0672,-5.1433,-5.1902,-5.1882,-5.1472,-5.1394,-5.1453,-5.1219,-5.0906,-5.0418,-5.0008,-4.9481,-4.872,-4.874,-4.9403,-5.0008,-5.0707,-5.18,-5.2175,-5.1722,-5.1644,-5.1703,-5.1581,-5.1335,-5.123,-5.1133,-5.1271,-5.1381,-5.1386,-5.1375,-5.1369,-5.1336,-5.1342,-5.1495,-6.0683,-6.1786,-6.3262,-6.4034,-6.4407,-6.4898,-6.5175,-6.5207,-6.4852,-6.4705,-6.457,-6.3916,-6.3551,-6.3339,-6.3185,-6.3051,-6.3166,-6.2571,-6.2296,-6.2099,-6.1837,-6.1632,-6.1576,-6.1641,-6.1679,-6.1696,-6.1701,-6.1701,-6.1701,-6.1701,-6.1701,-6.1701,-6.1701,-6.1701,-6.1701,-6.1701,-6.1701,-6.1564,-6.1193,-6.1174,-6.0881,-5.9885,-5.8714,-5.8714,-5.768,-5.6665,-5.6606,-5.6606,-5.6606,-5.6606,-5.6606,-5.6606,-5.6606,-5.6606,-5.6606,-5.6606,-5.6606,-5.6606,-5.6606,-5.6606,-5.6606,-5.6606,-5.6606,-5.6606,-5.6606,-5.6606,-5.6606,-5.643,-5.524,-5.3815,-5.2292,-5.0496,-4.8369,-4.6788,-4.6007,-4.6046,-4.6124,-4.6905,-4.8154,-4.9657,-5.0731,-5.157,-5.2175,-5.2644,-5.2722,-5.2331,-5.2156,-5.2214,-5.2038,-5.1707,-5.1102,-5.0633,-5.0282,-4.9657,-4.8974,-4.9321,-4.9688,-5.0382,-5.1377,-5.1616,-5.1484,-5.1562,-5.164,-5.1394,-5.1113,-5.1006,-5.1123,-5.1663,-5.1915,-5.155,-5.138,-5.1386,-5.1478,-5.1564,-5.1895,-6.0743,-6.1825,-6.2598,-6.301,-6.3173,-6.3524,-6.3809,-6.3989,-6.3879,-6.3801,-6.3724,-6.2954,-6.2551,-6.2435,-6.1935,-6.1781,-6.1766,-6.1607,-6.1582,-6.1621,-6.1473,-6.149,-6.1607,-6.1679,-6.1715,-6.1701,-6.1701,-6.1701,-6.1701,-6.1701,-6.1701,-6.1701,-6.1701,-6.1701,-6.1701,-6.1701,-6.1701,-6.1642,-6.1408,-6.1447,-6.1232,-6.0393,-5.9319,-5.8909,-5.807,-5.7094,-5.6723,-5.6626,-5.6606,-5.6606,-5.6606,-5.6606,-5.6606,-5.6606,-5.6606,-5.6606,-5.6606,-5.6606,-5.6606,-5.6606,-5.6606,-5.6606,-5.6606,-5.6606,-5.6606,-5.6606,-5.6606,-5.6098,-5.5025,-5.358,-5.1824,-5.0008,-4.8096,-4.6339,-4.5753,-4.6085,-4.6651,-4.7471,-4.8505,-5.0067,-5.1277,-5.2292,-5.2839,-5.3346,-5.3327,-5.321,-5.3073,-5.2936,-5.2761,-5.2644,-5.2136,-5.1687,-5.1355,-5.082,-5.0156,-4.9781,-4.9421,-5.0113,-5.0946,-5.0979,-5.1018,-5.1327,-5.1338,-5.1089,-5.1011,-5.1081,-5.1482,-5.2308,-5.2407,-5.1978,-5.1634,-5.1386,-5.1552,-5.1893,-5.2389,-6.0416,-6.1276,-6.1586,-6.2007,-6.2439,-6.2756,-6.2976,-6.3065,-6.3002,-6.2762,-6.2531,-6.1954,-6.1704,-6.1512,-6.1185,-6.0877,-6.0977,-6.1012,-6.1137,-6.1233,-6.1376,-6.151,-6.1621,-6.1691,-6.171,-6.1715,-6.1701,-6.1701,-6.1701,-6.1701,-6.1701,-6.1701,-6.1701,-6.1701,-6.1701,-6.1701,-6.1701,-6.1701,-6.1701,-6.1701,-6.1583,-6.0803,-6.0159,-5.9378,-5.8382,-5.7601,-5.7055,-5.6821,-5.6606,-5.6606,-5.6606,-5.6606,-5.6606,-5.6606,-5.6606,-5.6606,-5.6606,-5.6606,-5.6606,-5.6606,-5.6606,-5.6606,-5.6606,-5.6606,-5.6606,-5.6586,-5.6528,-5.6001,-5.4771,-5.3288,-5.1609,-5.0048,-4.8505,-4.6983,-4.6924,-4.7217,-4.7608,-4.8291,-4.9306,-5.0496,-5.1746,-5.3151,-5.3698,-5.4186,-5.4186,-5.399,-5.358,-5.3502,-5.3502,-5.3444,-5.3385,-5.2956,-5.2605,-5.203,-5.1435,-5.0497,-4.964,-4.9644,-5.0299,-5.0361,-5.0474,-5.0693,-5.053,-4.9985,-5.0158,-5.0952,-5.1702,-5.2369,-5.2491,-5.2383,-5.224,-5.2279,-5.2542,-5.2962,-5.325,-5.9508,-5.988,-6.0284,-6.1287,-6.2487,-6.2929,-6.3008,-6.2836,-6.2373,-6.1743,-6.1166,-6.0954,-6.0935,-6.0916,-6.0839,-6.08,-6.0823,-6.0933,-6.1061,-6.1181,-6.1303,-6.1459,-6.1592,-6.1648,-6.1705,-6.1715,-6.1701,-6.1701,-6.1701,-6.1701,-6.1701,-6.1701,-6.1701,-6.1701,-6.1701,-6.1701,-6.1701,-6.1701,-6.1701,-6.1701,-6.1544,-6.0959,-6.0549,-5.9885,-5.8792,-5.7953,-5.7504,-5.6879,-5.6645,-5.6606,-5.6606,-5.6606,-5.6606,-5.6606,-5.6606,-5.6606,-5.6606,-5.6606,-5.6606,-5.6606,-5.6606,-5.6606,-5.6606,-5.6606,-5.6606,-5.6547,-5.6255,-5.5689,-5.4576,-5.3268,-5.1863,-5.0633,-4.9286,-4.8505,-4.8486,-4.8252,-4.8642,-4.8935,-4.9891,-5.0496,-5.2351,-5.4049,-5.4615,-5.5044,-5.5064,-5.481,-5.4225,-5.4088,-5.4279,-5.4391,-5.447,-5.403,-5.364,-5.2799,-5.1999,-5.0692,-4.9901,-4.978,-4.9508,-4.9429,-4.9429,-4.9469,-4.9195,-4.8858,-4.9868,-5.1172,-5.1807,-5.2379,-5.3036,-5.374,-5.3552,-5.3596,-5.3801,-5.3947,-5.4177,-5.9624,-6.0019,-6.0379,-6.0839,-6.1364,-6.1505,-6.1618,-6.1584,-6.1339,-6.105,-6.0858,-6.08,-6.08,-6.08,-6.08,-6.08,-6.0823,-6.0888,-6.1001,-6.1095,-6.1213,-6.1369,-6.15,-6.16,-6.1667,-6.1691,-6.1701,-6.1701,-6.1701,-6.1701,-6.1701,-6.1701,-6.1701,-6.1701,-6.1701,-6.1701,-6.1701,-6.1701,-6.1701,-6.1701,-6.1661,-6.1369,-6.0959,-6.0412,-5.9202,-5.8363,-5.7797,-5.7035,-5.6649,-5.6606,-5.6606,-5.6606,-5.6606,-5.6606,-5.6606,-5.6606,-5.6606,-5.6606,-5.6606,-5.6606,-5.6606,-5.6606,-5.6606,-5.6606,-5.6606,-5.6606,-5.6118,-5.5396,-5.4576,-5.3444,-5.2409,-5.2117,-5.1199,-5.0575,-5.0243,-4.9501,-4.9481,-4.9696,-5.0184,-5.0457,-5.1707,-5.4225,-5.5513,-5.568,-5.5719,-5.5797,-5.5328,-5.5362,-5.5558,-5.5625,-5.5652,-5.5074,-5.4495,-5.3596,-5.255,-5.1123,-5.0081,-4.9753,-4.8936,-4.816,-4.8173,-4.8509,-4.8916,-4.9103,-5.0287,-5.1491,-5.2567,-5.364,-5.4711,-5.5287,-5.4772,-5.4372,-5.4328,-5.4552,-5.4888,-5.9842,-6.0217,-6.0514,-6.0685,-6.0753,-6.0777,-6.08,-6.08,-6.08,-6.08,-6.08,-6.08,-6.08,-6.08,-6.08,-6.08,-6.08,-6.0888,-6.0916,-6.1003,-6.1133,-6.1303,-6.1448,-6.1519,-6.1615,-6.1666,-6.1701,-6.1701,-6.1701,-6.1701,-6.1701,-6.1701,-6.1701,-6.1701,-6.1701,-6.1701,-6.1701,-6.1701,-6.1701,-6.1701,-6.1701,-6.1544,-6.1213,-6.0412,-5.9495,-5.8695,-5.7859,-5.7161,-5.6598,-5.6591,-5.6606,-5.6606,-5.6606,-5.6606,-5.6606,-5.6606,-5.6606,-5.6606,-5.6606,-5.6606,-5.6606,-5.6606,-5.6606,-5.6606,-5.6606,-5.6606,-5.5825,-5.5103,-5.4556,-5.3756,-5.2956,-5.2858,-5.2897,-5.2214,-5.2038,-5.1316,-5.075,-5.1004,-5.1043,-5.1238,-5.1941,-5.4342,-5.6148,-5.6299,-5.6327,-5.6425,-5.647,-5.6523,-5.6491,-5.6393,-5.6293,-5.5801,-5.52,-5.4363,-5.3055,-5.1462,-5.0507,-4.9804,-4.8488,-4.7032,-4.7867,-4.8361,-4.8855,-4.9594,-5.1066,-5.2493,-5.3861,-5.4977,-5.5487,-5.5656,-5.5378,-5.5064,-5.4858,-5.5133,-5.5543,-6.003,-6.0321,-6.0685,-6.08,-6.08,-6.08,-6.08,-6.08,-6.08,-6.08,-6.08,-6.08,-6.08,-6.08,-6.08,-6.08,-6.08,-6.0869,-6.0894,-6.0941,-6.108,-6.1248,-6.1369,-6.1461,-6.1573,-6.166,-6.1701,-6.1701,-6.1701,-6.1701,-6.1701,-6.1701,-6.1701,-6.1701,-6.1701,-6.1701,-6.1701,-6.1701,-6.1701,-6.1603,-6.1466,-6.1466,-6.0939,-6.01,-5.9143,-5.8417,-5.7649,-5.6962,-5.661,-5.6546,-5.661,-5.6606,-5.6606,-5.6606,-5.6606,-5.6606,-5.6606,-5.6606,-5.6606,-5.6606,-5.6606,-5.6606,-5.6606,-5.6606,-5.6606,-5.6528,-5.5786,-5.5103,-5.4556,-5.3795,-5.3093,-5.358,-5.401,-5.3912,-5.401,-5.3366,-5.2585,-5.2448,-5.2448,-5.2741,-5.3346,-5.4845,-5.6079,-5.6517,-5.6471,-5.6445,-5.6418,-5.6375,-5.6347,-5.6357,-5.6261,-5.622,-5.5629,-5.5081,-5.3635,-5.1794,-5.0279,-4.9351,-4.724,-4.596,-4.7024,-4.8081,-4.8544,-4.9603,-5.1761,-5.3396,-5.4649,-5.5306,-5.5673,-5.5722,-5.5656,-5.575,-5.5533,-5.5808,-5.6171,-6.0188,-6.046,-6.0685,-6.08,-6.08,-6.0781,-6.08,-6.08,-6.08,-6.08,-6.08,-6.08,-6.08,-6.08,-6.08,-6.08,-6.08,-6.0823,-6.0823,-6.0894,-6.1,-6.1131,-6.125,-6.1379,-6.1537,-6.1654,-6.1701,-6.1701,-6.1701,-6.1701,-6.1701,-6.1701,-6.1701,-6.1701,-6.1701,-6.1701,-6.1701,-6.1701,-6.1701,-6.1447,-6.1115,-6.1017,-6.0412,-5.9573,-5.8319,-5.7714,-5.7395,-5.6382,-5.6074,-5.6465,-5.6562,-5.6606,-5.6606,-5.6606,-5.6606,-5.6606,-5.6606,-5.6606,-5.6606,-5.6606,-5.6606,-5.6606,-5.6606,-5.6606,-5.6606,-5.6411,-5.5767,-5.5005,-5.4888,-5.4439,-5.3893,-5.4108,-5.4654,-5.4986,-5.5005,-5.4635,-5.3932,-5.3678,-5.362,-5.3225,-5.3869,-5.5104,-5.6296,-5.6398,-5.6366,-5.632,-5.6281,-5.623,-5.62,-5.6208,-5.6212,-5.6168,-5.5884,-5.5269,-5.3765,-5.1959,-5.0306,-4.8694,-4.6716,-4.5432,-4.6257,-4.7219,-4.799,-4.976,-5.2241,-5.3972,-5.534,-5.5728,-5.5768,-5.5904,-5.5891,-5.6084,-5.6281,-5.6355,-5.6446,-5.9311,-5.9517,-5.973,-5.9819,-5.98,-5.98,-5.9819,-5.9915,-6.0492,-6.08,-6.08,-6.08,-6.08,-6.08,-6.08,-6.08,-6.08,-6.08,-6.08,-6.0846,-6.0933,-6.1095,-6.1201,-6.1343,-6.1519,-6.1648,-6.1701,-6.1701,-6.1701,-6.1701,-6.1701,-6.1701,-6.1701,-6.1701,-6.1701,-6.1701,-6.1701,-6.1701,-6.1642,-6.1369,-6.1076,-6.0783,-6.0198,-5.9026,-5.7641,-5.7246,-5.6801,-5.562,-5.5723,-5.6152,-5.6269,-5.6606,-5.6606,-5.6606,-5.6606,-5.6606,-5.6606,-5.6606,-5.6606,-5.6606,-5.6606,-5.6606,-5.6606,-5.6606,-5.6606,-5.6508,-5.5493,-5.4615,-5.5142,-5.5396,-5.4908,-5.4596,-5.522,-5.5825,-5.5728,-5.563,-5.5259,-5.4888,-5.4318,-5.365,-5.4323,-5.5568,-5.6223,-5.6251,-5.625,-5.6193,-5.6149,-5.6088,-5.6049,-5.6038,-5.6039,-5.6024,-5.5803,-5.5383,-5.3725,-5.2163,-5.0585,-4.8815,-4.6795,-4.5874,-4.6105,-4.6932,-4.8221,-5.0414,-5.2913,-5.4357,-5.5549,-5.5667,-5.5747,-5.5847,-5.5904,-5.602,-5.6142,-5.625,-5.6355,-5.7844,-5.8073,-5.8235,-5.8434,-5.8319,-5.8415,-5.8415,-5.8454,-5.9877,-6.0627,-6.0608,-6.0762,-6.08,-6.08,-6.08,-6.08,-6.08,-6.08,-6.08,-6.0781,-6.0933,-6.1079,-6.1182,-6.1324,-6.15,-6.1634,-6.1701,-6.1701,-6.1701,-6.1701,-6.1701,-6.1701,-6.1701,-6.1701,-6.1701,-6.1701,-6.1701,-6.1701,-6.1681,-6.1525,-6.1427,-6.1271,-6.0783,-5.9109,-5.7879,-5.6977,-5.5817,-5.5267,-5.5234,-5.5564,-5.6026,-5.6556,-5.6606,-5.6606,-5.6606,-5.6606,-5.6606,-5.6606,-5.6606,-5.6606,-5.6606,-5.6606,-5.6606,-5.6606,-5.6606,-5.6606,-5.5689,-5.481,-5.5142,-5.5142,-5.4732,-5.5298,-5.604,-5.6255,-5.6196,-5.5845,-5.5357,-5.5181,-5.504,-5.464,-5.5159,-5.6242,-5.6203,-5.6236,-5.6116,-5.6063,-5.6004,-5.5919,-5.5898,-5.5907,-5.5896,-5.5923,-5.5731,-5.5286,-5.3879,-5.2319,-5.0856,-4.9048,-4.6874,-4.6009,-4.6009,-4.7163,-4.8663,-5.1068,-5.347,-5.4491,-5.5415,-5.559,-5.5724,-5.5745,-5.5807,-5.5847,-5.5952,-5.6116,-5.622,-5.7889,-5.8092,-5.8231,-5.8277,-5.828,-5.8303,-5.8264,-5.8319,-5.8684,-5.9261,-5.9858,-6.0416,-6.08,-6.08,-6.08,-6.08,-6.08,-6.08,-6.08,-6.0808,-6.0875,-6.0963,-6.1177,-6.1272,-6.1471,-6.1634,-6.1701,-6.1691,-6.1671,-6.1691,-6.1696,-6.1696,-6.1676,-6.1671,-6.1671,-6.1691,-6.1696,-6.1701,-6.1676,-6.1398,-6.1027,-6.0588,-5.9909,-5.832,-5.7015,-5.6141,-5.5167,-5.4672,-5.4879,-5.5271,-5.6131,-5.6534,-5.661,-5.6606,-5.6606,-5.6606,-5.6606,-5.6606,-5.6606,-5.6606,-5.6606,-5.6606,-5.6606,-5.6606,-5.6606,-5.6606,-5.6196,-5.5318,-5.4869,-5.4771,-5.4947,-5.5845,-5.6606,-5.6606,-5.6606,-5.6001,-5.5435,-5.5509,-5.5621,-5.5886,-5.623,-5.6281,-5.6224,-5.6126,-5.6004,-5.5901,-5.5827,-5.5767,-5.5768,-5.5769,-5.5827,-5.5827,-5.5767,-5.5147,-5.3857,-5.2433,-5.0933,-4.8856,-4.6586,-4.6047,-4.5932,-4.7394,-4.9009,-5.1664,-5.3855,-5.4664,-5.5241,-5.5607,-5.5703,-5.5724,-5.5745,-5.5788,-5.5847,-5.5971,-5.6054,-5.6799,-5.6942,-5.7098,-5.7165,-5.7146,-5.7148,-5.7126,-5.7203,-5.755,-5.7973,-5.8569,-5.9608,-6.0416,-6.0704,-6.08,-6.0704,-6.0723,-6.08,-6.0473,-6.0404,-6.0608,-6.0712,-6.0903,-6.1097,-6.1412,-6.158,-6.1615,-6.1615,-6.1602,-6.1595,-6.1595,-6.1602,-6.1602,-6.1602,-6.1602,-6.1634,-6.1646,-6.1657,-6.166,-6.1355,-6.0873,-6.0754,-6.008,-5.8456,-5.7005,-5.5954,-5.505,-5.4551,-5.4649,-5.5263,-5.6122,-5.652,-5.6605,-5.6618,-5.6606,-5.6606,-5.6606,-5.6606,-5.6582,-5.6582,-5.6563,-5.6543,-5.6606,-5.6602,-5.5942,-5.5845,-5.5454,-5.4752,-5.5083,-5.5083,-5.4908,-5.5513,-5.6313,-5.6606,-5.6602,-5.6309,-5.605,-5.604,-5.6075,-5.6149,-5.631,-5.6205,-5.616,-5.6059,-5.5922,-5.5866,-5.5745,-5.5724,-5.5703,-5.5684,-5.5724,-5.5745,-5.5705,-5.528,-5.426,-5.2664,-5.0952,-4.8721,-4.6432,-4.6028,-4.6067,-4.7644,-4.949,-5.1836,-5.3586,-5.4395,-5.4934,-5.5511,-5.5684,-5.5703,-5.5724,-5.5766,-5.5807,-5.5827,-5.5882,-5.5465,-5.5527,-5.5698,-5.5722,-5.5703,-5.5722,-5.5761,-5.5876,-5.6492,-5.6934,-5.7261,-5.8569,-5.9627,-6.0223,-6.0473,-6.0473,-6.0358,-6.005,-5.9781,-5.9727,-6.0123,-6.0172,-6.0356,-6.0658,-6.1039,-6.1342,-6.1452,-6.1452,-6.1452,-6.1452,-6.1452,-6.1452,-6.1452,-6.1471,-6.149,-6.1537,-6.1541,-6.1541,-6.1545,-6.1539,-6.1545,-6.1589,-6.0495,-5.9113,-5.7645,-5.6343,-5.5377,-5.4838,-5.4708,-5.5235,-5.6064,-5.6422,-5.6579,-5.6582,-5.6577,-5.6567,-5.6567,-5.645,-5.6372,-5.645,-5.6391,-5.6397,-5.648,-5.6226,-5.5562,-5.5001,-5.463,-5.447,-5.4825,-5.5142,-5.4966,-5.5376,-5.6157,-5.6606,-5.6602,-5.6577,-5.6503,-5.6426,-5.6383,-5.6369,-5.6251,-5.6126,-5.6059,-5.5941,-5.5885,-5.5787,-5.5766,-5.5724,-5.5684,-5.5684,-5.5724,-5.5724,-5.5705,-5.5145,-5.4299,-5.2953,-5.1164,-4.9029,-4.7009,-4.6336,-4.622,-4.7663,-4.9433,-5.1644,-5.3163,-5.4087,-5.4934,-5.5607,-5.5684,-5.5684,-5.5724,-5.5724,-5.5745,-5.5747,-5.5726,-5.5437,-5.5662,-5.5703,-5.5684,-5.5684,-5.5684,-5.5684,-5.5703,-5.5876,-5.6299,-5.6896,-5.7223,-5.7934,-5.8761,-5.8781,-5.8896,-5.9184,-5.9069,-5.8858,-5.8668,-5.9023,-5.9321,-5.9647,-5.9885,-6.0526,-6.0817,-6.0994,-6.1169,-6.0897,-6.1033,-6.1227,-6.1188,-6.1246,-6.1266,-6.1266,-6.1265,-6.125,-6.1203,-6.1129,-6.1084,-6.1259,-6.11,-6.0568,-5.9377,-5.8114,-5.6719,-5.5641,-5.5132,-5.5081,-5.5424,-5.6001,-5.6372,-5.6491,-5.6491,-5.6496,-5.6391,-5.6391,-5.6008,-5.5884,-5.5903,-5.5825,-5.567,-5.5755,-5.5945,-5.525,-5.4501,-5.4008,-5.3384,-5.378,-5.4548,-5.4767,-5.5782,-5.6563,-5.6606,-5.6602,-5.6567,-5.6511,-5.6398,-5.6329,-5.6224,-5.6093,-5.6004,-5.5959,-5.5866,-5.5787,-5.5724,-5.5724,-5.5684,-5.5684,-5.5684,-5.5684,-5.5684,-5.5684,-5.4684,-5.3722,-5.2991,-5.1375,-4.9279,-4.7605,-4.6894,-4.6817,-4.7605,-4.9433,-5.1894,-5.3047,-5.3876,-5.4703,-5.5684,-5.5684,-5.5684,-5.5684,-5.5703,-5.5684,-5.5684,-5.5684]}]]